[[{"header":{"parameterUnit":"m.s-1","parameterCategory":1,"la1":30.6,"la2":28.766,"lo1":-90.7593,"lo2":-88.6598,"dy":0.0162,"dx":0.0183,"nx":116,"ny":114,"refTime":"2023-05-18T00:00:00:Z","depth":0,"parameterNumber":2,"parameterNumberName":"U-component_of_WINDS"},"data":[0.0,0.0,0.0,0.0,0.0,0.0,0.0,0.0,0.0,0.0,0.0,0.0,0.0,0.0,0.0,0.0,0.0,0.0,0.0,0.0,0.0,0.0,0.0,0.0,0.0,0.0,0.0,0.0,0.0,0.0,0.0,0.0,0.0,0.0,0.0,0.0,0.0,0.0,0.0,0.0,0.0,0.0,0.0,0.0,0.0,0.0,0.0,0.0,0.0,0.0,0.0,0.0,0.0,0.0,0.0,0.0,0.0,0.0,0.0,0.0,0.0,0.0,0.0,0.0,0.0,0.0,0.0,0.0,0.0,0.0,0.0,0.0,0.0,0.0,0.0,0.0,0.0,0.0,0.0,0.0,0.0,0.0,0.0,0.0,0.0,0.0,0.0,0.0,0.0,0.0,0.0,0.0,0.0,0.0,0.0,0.0,0.0,0.0,0.0,0.0,0.0,0.0,0.0,0.0,0.0,0.0,0.0,0.0,0.0,0.0,0.0,0.0,0.0,0.0,0.0,0.0,0.0,0.0,0.0,0.0,0.0,0.0,0.0,0.0,0.0,0.0,0.0,0.0,0.0,0.0,0.0,0.0,0.0,0.0,0.0,0.0,0.0,0.0,0.0,0.0,0.0,0.0,0.0,0.0,0.0,0.0,0.0,0.0,0.0,0.0,0.0,0.0,0.0,0.0,0.0,0.0,0.0,0.0,0.0,0.0,0.0,0.0,0.0,0.0,0.0,0.0,0.0,0.0,0.0,0.0,0.0,0.0,0.0,0.0,0.0,0.0,0.0,0.0,0.0,0.0,0.0,0.0,0.0,0.0,0.0,0.0,0.0,0.0,0.0,0.0,0.0,0.0,0.0,0.0,0.0,0.0,0.0,0.0,0.0,0.0,0.0,0.0,0.0,0.0,0.0,0.0,0.0,0.0,0.0,0.0,0.0,0.0,0.0,0.0,0.0,0.0,0.0,0.0,0.0,0.0,0.0,0.0,0.0,0.0,0.0,0.0,0.0,0.0,0.0,0.0,0.0,0.0,0.0,0.0,0.0,0.0,0.0,0.0,0.0,0.0,0.0,0.0,0.0,0.0,0.0,0.0,0.0,0.0,0.0,0.0,0.0,0.0,0.0,0.0,0.0,0.0,0.0,0.0,0.0,0.0,0.0,0.0,0.0,0.0,0.0,0.0,0.0,0.0,0.0,0.0,0.0,0.0,0.0,0.0,0.0,0.0,0.0,0.0,0.0,0.0,0.0,0.0,0.0,0.0,0.0,0.0,0.0,0.0,0.0,0.0,0.0,0.0,0.0,0.0,0.0,0.0,0.0,0.0,0.0,0.0,0.0,0.0,0.0,0.0,0.0,0.0,0.0,0.0,0.0,0.0,0.0,0.0,0.0,0.0,0.0,0.0,0.0,0.0,0.0,0.0,0.0,0.0,0.0,0.0,0.0,0.0,0.0,0.0,0.0,0.0,0.0,0.0,0.0,0.0,0.0,0.0,0.0,0.0,0.0,0.0,0.0,0.0,0.0,0.0,0.0,0.0,0.0,0.0,0.0,0.0,0.0,0.0,0.0,0.0,0.0,0.0,0.0,0.0,0.0,0.0,0.0,0.0,0.0,0.0,0.0,0.0,0.0,0.0,0.0,0.0,0.0,0.0,0.0,0.0,0.0,0.0,0.0,0.0,0.0,0.0,0.0,0.0,0.0,0.0,0.0,0.0,0.0,0.0,0.0,0.0,0.0,0.0,0.0,0.0,0.0,0.0,0.0,0.0,0.0,0.0,0.0,0.0,0.0,0.0,0.0,0.0,0.0,0.0,0.0,0.0,0.0,0.0,0.0,0.0,0.0,0.0,0.0,0.0,0.0,0.0,0.0,0.0,0.0,0.0,0.0,0.0,0.0,0.0,0.0,0.0,0.0,0.0,0.0,0.0,0.0,0.0,0.0,0.0,0.0,0.0,0.0,0.0,0.0,0.0,0.0,0.0,0.0,0.0,0.0,0.0,0.0,0.0,0.0,0.0,0.0,0.0,0.0,0.0,0.0,0.0,0.0,0.0,0.0,0.0,0.0,0.0,0.0,0.0,0.0,0.0,0.0,0.0,0.0,0.0,0.0,0.0,0.0,0.0,0.0,0.0,0.0,0.0,0.0,0.0,0.0,0.0,0.0,0.0,0.0,0.0,0.0,0.0,0.0,0.0,0.0,0.0,0.0,0.0,0.0,0.0,0.0,0.0,0.0,0.0,0.0,0.0,0.0,0.0,0.0,0.0,0.0,0.0,0.0,0.0,0.0,0.0,0.0,0.0,0.0,0.0,0.0,0.0,0.0,0.0,0.0,0.0,0.0,0.0,0.0,0.0,0.0,0.0,0.0,0.0,0.0,0.0,0.0,0.0,0.0,0.0,0.0,0.0,0.0,0.0,0.0,0.0,0.0,0.0,0.0,0.0,0.0,0.0,0.0,0.0,0.0,0.0,0.0,0.0,0.0,0.0,0.0,0.0,0.0,0.0,0.0,0.0,0.0,0.0,0.0,0.0,0.0,0.0,0.0,0.0,0.0,0.0,0.0,0.0,0.0,0.0,0.0,0.0,0.0,0.0,0.0,0.0,0.0,0.0,0.0,0.0,0.0,0.0,0.0,0.0,0.0,0.0,0.0,0.0,0.0,0.0,0.0,0.0,0.0,0.0,0.0,0.0,0.0,0.0,0.0,0.0,0.0,0.0,0.0,0.0,0.0,0.0,0.0,0.0,0.0,0.0,0.0,0.0,0.0,0.0,0.0,0.0,0.0,0.0,0.0,0.0,0.0,0.0,0.0,0.0,0.0,0.0,0.0,0.0,0.0,0.0,0.0,0.0,0.0,0.0,0.0,0.0,0.0,0.0,0.0,0.0,0.0,0.0,0.0,0.0,0.0,0.0,0.0,0.0,0.0,0.0,0.0,0.0,0.0,0.0,0.0,0.0,0.0,0.0,0.0,0.0,0.0,0.0,0.0,0.0,0.0,0.0,0.0,0.0,0.0,0.0,0.0,0.0,0.0,0.0,0.0,0.0,0.0,0.0,0.0,0.0,0.0,0.0,0.0,0.0,0.0,0.0,0.0,0.0,0.0,0.0,0.0,0.0,0.0,0.0,0.0,0.0,0.0,0.0,0.0,0.0,0.0,0.0,0.0,0.0,0.0,0.0,0.0,0.0,0.0,0.0,0.0,0.0,0.0,0.0,0.0,0.0,0.0,0.0,0.0,0.0,0.0,0.0,0.0,0.0,0.0,0.0,0.0,0.0,0.0,0.0,0.0,0.0,0.0,0.0,0.0,0.0,0.0,0.0,0.0,0.0,0.0,0.0,0.0,0.0,0.0,0.0,0.0,0.0,0.0,0.0,0.0,0.0,0.0,0.0,0.0,0.0,0.0,0.0,0.0,0.0,0.0,0.0,0.0,0.0,0.0,0.0,0.0,0.0,0.0,0.0,0.0,0.0,0.0,0.0,0.0,0.0,0.0,0.0,0.0,0.0,0.0,0.0,0.0,0.0,0.0,0.0,0.0,0.0,0.0,0.0,0.0,0.0,0.0,0.0,0.0,0.0,0.0,0.0,0.0,0.0,0.0,0.0,0.0,0.0,0.0,0.0,0.0,0.0,0.0,0.0,0.0,0.0,0.0,0.0,0.0,0.0,0.0,0.0,0.0,0.0,0.0,0.0,0.0,0.0,0.0,0.0,0.0,0.0,0.0,0.0,0.0,0.0,0.0,0.0,0.0,0.0,0.0,0.0,0.0,0.0,0.0,0.0,0.0,0.0,0.0,0.0,0.0,0.0,0.0,0.0,0.0,0.0,0.0,0.0,0.0,0.0,0.0,0.0,0.0,0.0,0.0,0.0,0.0,0.0,0.0,0.0,0.0,0.0,0.0,0.0,0.0,0.0,0.0,0.0,0.0,0.0,0.0,0.0,0.0,0.0,0.0,0.0,0.0,0.0,0.0,0.0,0.0,0.0,0.0,0.0,0.0,0.0,0.0,0.0,0.0,0.0,0.0,0.0,0.0,0.0,0.0,0.0,0.0,0.0,0.0,0.0,0.0,0.0,0.0,0.0,0.0,0.0,0.0,0.0,0.0,0.0,0.0,0.0,0.0,0.0,0.0,0.0,0.0,0.0,0.0,0.0,0.0,0.0,0.0,0.0,0.0,0.0,0.0,0.0,0.0,0.0,0.0,0.0,0.0,0.0,0.0,0.0,0.0,0.0,0.0,0.0,0.0,0.0,0.0,0.0,0.0,0.0,0.0,0.0,0.0,0.0,0.0,0.0,0.0,0.0,0.0,0.0,0.0,0.0,0.0,0.0,0.0,0.0,0.0,0.0,0.0,0.0,0.0,0.0,0.0,0.0,0.0,0.0,0.0,0.0,0.0,0.0,0.0,0.0,0.0,0.0,0.0,0.0,0.0,0.0,0.0,0.0,0.0,0.0,0.0,0.0,0.0,0.0,0.0,0.0,0.0,0.0,0.0,0.0,0.0,0.0,0.0,0.0,0.0,0.0,0.0,0.0,0.0,0.0,0.0,0.0,0.0,0.0,0.0,0.0,0.0,0.0,0.0,0.0,0.0,0.0,0.0,0.0,0.0,0.0,0.0,0.0,0.0,0.0,0.0,0.0,0.0,0.0,0.0,0.0,0.0,0.0,0.0,0.0,0.0,0.0,0.0,0.0,0.0,0.0,0.0,0.0,0.0,0.0,0.0,0.0,0.0,0.0,0.0,0.0,0.0,0.0,0.0,0.0,0.0,0.0,0.0,0.0,0.0,0.0,0.0,0.0,0.0,0.0,0.0,0.0,0.0,0.0,0.0,0.0,0.0,0.0,0.0,0.0,0.0,0.0,0.0,0.0,0.0,0.0,0.0,0.0,0.0,0.0,0.0,0.0,0.0,0.0,0.0,0.0,0.0,0.0,0.0,0.0,0.0,0.0,0.0,0.0,0.0,0.0,0.0,0.0,0.0,0.0,0.0,0.0,0.0,0.0,0.0,0.0,0.0,0.0,0.0,0.0,0.0,0.0,0.0,0.0,0.0,0.0,0.0,0.0,0.0,0.0,0.0,0.0,0.0,0.0,0.0,0.0,0.0,0.0,0.0,0.0,0.0,0.0,0.0,0.0,0.0,0.0,0.0,0.0,0.0,0.0,0.0,0.0,0.0,0.0,0.0,0.0,0.0,0.0,0.0,0.0,0.0,0.0,0.0,0.0,0.0,0.0,0.0,0.0,0.0,0.0,0.0,0.0,0.0,0.0,0.0,0.0,0.0,0.0,0.0,0.0,0.0,0.0,0.0,0.0,0.0,0.0,0.0,0.0,0.0,0.0,0.0,0.0,0.0,0.0,0.0,0.0,0.0,0.0,0.0,0.0,0.0,0.0,0.0,0.0,0.0,0.0,0.0,0.0,0.0,0.0,0.0,0.0,0.0,0.0,0.0,0.0,0.0,0.0,0.0,0.0,0.0,0.0,0.0,0.0,0.0,0.0,0.0,0.0,0.0,0.0,0.0,0.0,0.0,0.0,0.0,0.0,0.0,0.0,0.0,0.0,0.0,0.0,0.0,0.0,0.0,0.0,0.0,0.0,0.0,0.0,0.0,0.0,0.0,0.0,0.0,0.0,0.0,0.0,0.0,0.0,0.0,0.0,0.0,0.0,0.0,0.0,0.0,0.0,0.0,0.0,0.0,0.0,0.0,0.0,0.0,0.0,0.0,0.0,0.0,0.0,0.0,0.0,0.0,0.0,0.0,0.0,0.0,0.0,0.0,0.0,0.0,0.0,0.0,0.0,0.0,0.0,0.0,0.0,0.0,0.0,0.0,0.0,0.0,0.0,0.0,0.0,0.0,0.0,0.0,0.0,0.0,0.0,0.0,0.0,0.0,0.0,0.0,0.0,0.0,0.0,0.0,0.0,0.0,0.0,0.0,0.0,0.0,0.0,0.0,0.0,0.0,0.0,0.0,0.0,0.0,0.0,0.0,0.0,0.0,0.0,0.0,0.0,0.0,0.0,0.0,0.0,0.0,0.0,0.0,0.0,0.0,0.0,0.0,0.0,0.0,0.0,0.0,0.0,0.0,0.0,0.0,0.0,0.0,0.0,0.0,0.0,-1.9356,0.0,0.0,0.0,0.0,0.0,0.0,0.0,0.0,0.0,0.0,0.0,0.0,0.0,0.0,0.0,0.0,0.0,0.0,0.0,0.0,0.0,0.0,0.0,0.0,0.0,0.0,0.0,0.0,0.0,0.0,0.0,0.0,0.0,0.0,0.0,0.0,0.0,0.0,0.0,-0.5369,-0.51,-0.5257,-0.5416,-0.6079,-0.7123,0.0,0.0,0.0,0.0,0.0,0.0,0.0,0.0,0.0,0.0,0.0,0.0,0.0,0.0,0.0,0.0,0.0,0.0,0.0,0.0,0.0,0.0,0.0,0.0,0.0,0.0,0.0,0.0,0.0,0.0,0.0,0.0,0.0,0.0,0.0,0.0,0.0,0.0,0.0,0.0,0.0,0.0,0.0,0.0,0.0,0.0,0.0,0.0,0.0,0.0,0.0,0.0,0.0,0.0,0.0,0.0,0.0,0.0,0.0,0.0,0.0,0.0,0.0,0.0,0.0,0.0,0.0,0.0,0.0,0.0,0.0,-1.7992,0.0,0.0,0.0,0.0,0.0,0.0,0.0,0.0,0.0,0.0,0.0,0.0,0.0,0.0,0.0,0.0,0.0,0.0,0.0,0.0,0.0,0.0,0.0,0.0,0.0,0.0,0.0,0.0,0.0,0.0,0.0,0.0,0.0,0.0,0.0,0.0,0.0,0.0,-0.4889,-0.4479,-0.4172,-0.4611,-0.5645,-0.713,-0.7583,0.0,0.0,0.0,0.0,0.0,0.0,0.0,0.0,0.0,0.0,0.0,0.0,0.0,0.0,0.0,0.0,0.0,0.0,0.0,0.0,0.0,0.0,0.0,0.0,0.0,0.0,0.0,0.0,0.0,0.0,0.0,0.0,0.0,0.0,0.0,0.0,0.0,0.0,0.0,0.0,0.0,0.0,0.0,0.0,0.0,0.0,0.0,0.0,0.0,0.0,0.0,0.0,0.0,0.0,0.0,0.0,0.0,0.0,0.0,0.0,0.0,0.0,0.0,-1.9313,-1.7704,-1.697,-1.8095,-1.8589,-1.8589,-1.8589,-1.8589,-1.8579,-1.8447,0.0,0.0,0.0,0.0,0.0,0.0,0.0,0.0,0.0,0.0,0.0,0.0,0.0,0.0,0.0,0.0,0.0,0.0,0.0,0.0,0.0,0.0,-0.2827,-0.2888,-0.2757,0.0,0.0,0.0,0.0,0.0,0.0,0.0,0.0,-0.5522,-0.5414,-0.5231,-0.5159,-0.4754,-0.408,-0.5957,-0.6667,-0.6412,-0.6278,-0.6754,-0.7721,0.0,0.0,0.0,0.0,0.0,0.0,0.0,0.0,0.0,0.0,0.0,0.0,0.0,0.0,0.0,0.0,0.0,0.0,0.0,0.0,0.0,0.0,0.0,0.0,0.0,0.0,0.0,0.0,0.0,0.0,0.0,0.0,0.0,0.0,0.0,0.0,0.0,0.0,0.0,0.0,0.0,-1.4342,-1.42,0.0,0.0,0.0,0.0,0.0,0.0,0.0,0.0,0.0,0.0,0.0,0.0,0.0,-1.7091,-1.9345,-1.9429,-1.9665,-2.005,-1.9649,-2.0162,-2.1434,-2.1619,-2.1718,-2.1718,-2.1718,0.0,-2.1515,-1.8965,0.0,0.0,0.0,0.0,0.0,0.0,0.0,0.0,0.0,0.0,0.0,0.0,0.0,0.0,0.0,0.0,0.0,0.0,0.0,0.0,0.0,-0.3222,-0.3082,-0.3115,-0.3064,-0.3092,0.0,0.0,0.0,0.0,0.0,0.0,0.0,-0.5184,-0.5063,-0.4859,-0.4658,-0.4713,-0.4984,-0.5604,-0.6006,-0.6259,-0.6294,-0.6844,-0.7758,-0.7949,0.0,0.0,0.0,0.0,0.0,0.0,0.0,0.0,0.0,0.0,0.0,0.0,0.0,0.0,0.0,0.0,0.0,0.0,0.0,0.0,0.0,0.0,0.0,0.0,0.0,0.0,0.0,0.0,0.0,0.0,0.0,0.0,0.0,0.0,0.0,0.0,0.0,0.0,0.0,-1.4354,-1.4491,-1.3797,-1.4437,-1.4951,0.0,0.0,0.0,0.0,0.0,0.0,0.0,0.0,0.0,-1.5824,-1.8633,-2.0722,-2.1874,-2.1874,-2.1874,-2.1874,-2.1874,-2.2278,-2.297,-2.151,-2.0829,-2.0924,-2.2374,-2.2767,-2.2209,-2.0863,-1.9454,-1.8207,0.0,0.0,0.0,0.0,-1.8807,-1.9101,0.0,0.0,0.0,0.0,0.0,0.0,0.0,0.0,0.0,0.0,0.0,0.0,-0.3545,-0.3321,-0.3242,-0.3331,-0.3383,-0.3279,-0.2997,0.0,0.0,0.0,0.0,0.0,-0.5251,-0.5057,-0.4945,-0.4968,-0.4824,-0.5204,-0.611,-0.61,-0.6397,-0.6815,-0.7241,-0.7556,-0.7767,-0.7777,-0.7891,-0.8054,0.0,0.0,0.0,0.0,0.0,0.0,0.0,0.0,0.0,0.0,0.0,0.0,0.0,0.0,0.0,0.0,0.0,0.0,0.0,0.0,0.0,0.0,0.0,0.0,0.0,0.0,0.0,0.0,0.0,0.0,0.0,0.0,0.0,0.0,0.0,0.0,0.0,-1.398,-1.4493,-1.3784,-1.4479,-1.4874,0.0,0.0,0.0,0.0,0.0,0.0,-1.5746,-2.1134,-2.2398,-1.8317,-2.2363,-2.4612,-2.4612,-2.4612,-2.4268,-2.3595,-2.3595,-2.3595,-2.3535,-2.1575,-2.0692,-2.0797,-2.2757,-2.3535,-2.3376,-2.2615,-2.0991,-1.9063,-2.0379,-2.0291,-1.9486,-1.9486,-1.9729,-2.0101,0.0,0.0,0.0,0.0,0.0,0.0,0.0,0.0,0.0,0.0,0.0,-0.3179,-0.3633,-0.321,-0.308,-0.3463,-0.3504,-0.3188,-0.2386,-0.2933,-0.3622,-0.4281,-0.4522,-0.4968,-0.567,-0.5225,-0.5316,-0.5927,-0.6271,-0.6723,-0.7277,-0.8738,-0.9106,-0.8527,-0.9221,-0.877,-0.7446,-0.7442,-0.7614,-0.7931,-0.8267,0.0,0.0,0.0,0.0,0.0,0.0,0.0,0.0,0.0,0.0,0.0,0.0,0.0,0.0,0.0,0.0,0.0,0.0,0.0,0.0,0.0,0.0,0.0,0.0,0.0,0.0,0.0,0.0,0.0,0.0,0.0,0.0,0.0,0.0,0.0,0.0,0.0,0.0,-1.4259,-1.4928,0.0,0.0,0.0,0.0,-1.3301,-1.5244,-1.8239,-2.241,-2.5652,-2.5952,-2.2858,-2.5756,-2.7415,-2.7415,-2.7415,-2.6108,-2.3595,-2.3595,-2.3595,-2.3595,-2.346,-2.34,-2.3415,-2.3535,-2.4682,-2.6251,-2.346,-2.2226,-2.209,-2.2158,-2.2186,-2.2101,-2.2101,-2.2129,-2.2312,0.0,0.0,0.0,0.0,0.0,0.0,0.0,0.0,0.0,-0.4661,-0.4182,-0.3938,-0.4239,-0.3833,-0.3632,-0.3844,-0.2968,-0.2615,-0.3034,-0.3723,-0.4177,0.0,0.0,0.0,-0.5065,-0.4812,-0.5296,-0.6514,-0.6317,-0.7099,-0.8825,-0.8918,-0.9084,-0.9324,-0.9563,-0.9389,-0.8836,-0.8272,-0.8108,-0.8134,-0.7721,-0.8053,0.0,0.0,0.0,0.0,0.0,0.0,0.0,0.0,0.0,0.0,0.0,0.0,0.0,0.0,0.0,0.0,0.0,0.0,0.0,0.0,0.0,0.0,0.0,0.0,0.0,0.0,0.0,0.0,0.0,0.0,0.0,0.0,0.0,0.0,0.0,0.0,0.0,-1.584,-1.6956,0.0,-1.7244,-1.5553,-1.4777,-1.5462,-1.878,-2.1412,-2.299,-2.4137,-2.5078,-2.5957,-2.519,-2.5631,-2.7575,-2.7625,-2.7145,-2.6153,-2.6153,-2.6153,-2.6108,-2.4388,-2.3595,-2.3595,-2.3595,-2.476,-2.6607,-2.5575,-2.5135,-2.4932,-2.3054,-2.231,-2.2547,-2.4425,-2.3934,-2.2349,0.0,0.0,0.0,0.0,0.0,0.0,0.0,0.0,0.0,-0.4895,-0.4592,-0.4392,-0.4397,-0.4078,-0.3955,-0.4214,-0.3232,-0.2934,-0.3657,-0.4248,-0.4557,0.0,-0.5095,0.0,0.0,-0.484,-0.5611,-0.7471,-0.6869,-0.7812,-1.0127,-0.9627,-0.9688,-1.0127,-1.0127,-1.0127,-1.008,-0.9399,-0.8815,-0.8304,-0.7872,-0.8316,-0.91,0.0,0.0,0.0,0.0,0.0,0.0,0.0,0.0,0.0,0.0,0.0,0.0,0.0,0.0,0.0,0.0,0.0,0.0,0.0,0.0,0.0,0.0,0.0,0.0,0.0,0.0,0.0,0.0,0.0,0.0,0.0,0.0,0.0,0.0,0.0,-1.6992,-1.7428,-1.8566,-1.9271,-1.923,-1.8059,-1.7647,-1.8485,-2.209,-2.4092,-2.3666,-2.4154,-2.4927,-2.6026,-2.5134,-2.5577,-2.7575,-2.7625,-2.7625,-2.7625,-2.7625,-2.7625,-2.7535,-2.4807,-2.4088,-2.4881,-2.3984,-2.476,-2.6691,-2.6691,-2.6691,-2.6404,-2.346,-2.231,-2.2665,-2.5609,-2.4831,-2.2349,0.0,0.0,0.0,0.0,0.0,0.0,0.0,0.0,0.0,-0.4828,-0.4688,-0.4514,-0.4065,-0.3939,-0.4041,-0.444,-0.4329,-0.4171,-0.4129,-0.4381,-0.4656,0.0,0.0,0.0,-0.5785,-0.5377,-0.6365,-0.8727,-0.8011,-0.8811,-1.0989,-1.0936,-1.1009,-1.1009,-1.1009,-1.1009,-1.0989,-1.0779,-0.9838,-0.8514,-0.8826,-0.9201,-0.9606,0.0,0.0,0.0,0.0,0.0,0.0,0.0,0.0,0.0,0.0,0.0,0.0,0.0,0.0,0.0,0.0,0.0,0.0,0.0,0.0,0.0,0.0,0.0,0.0,0.0,0.0,0.0,0.0,0.0,0.0,0.0,0.0,0.0,-1.6597,-1.7169,-1.8008,-1.9032,-1.9635,-2.0175,-2.0794,-2.1619,-2.2088,-2.2088,-2.4833,-2.5988,-2.4895,-2.614,-2.5748,-2.3163,-2.5974,-2.7599,-2.7625,-2.7625,-2.7625,-2.7625,-2.7625,-2.7625,-2.7535,-2.4896,-2.5121,-2.7475,-2.4747,-2.476,-2.6691,-2.6691,-2.6691,-2.642,-2.3562,-2.2395,-2.2665,-2.5507,-2.4746,-2.247,0.0,0.0,0.0,0.0,0.0,0.0,0.0,0.0,-0.6069,-0.5235,-0.5667,-0.5615,-0.4496,-0.4788,-0.4908,-0.4508,-0.4167,-0.4116,-0.4427,-0.4688,0.0,0.0,0.0,0.0,-0.5235,-0.4975,-0.5588,-0.7045,-0.6994,-0.8007,-1.0055,-1.0177,-1.061,-1.1309,-1.1309,-1.1309,-1.1316,-1.145,-1.1156,-1.0514,-0.9782,-0.9708,-0.998,0.0,0.0,0.0,0.0,0.0,0.0,0.0,0.0,0.0,0.0,0.0,0.0,0.0,0.0,0.0,0.0,0.0,0.0,0.0,0.0,0.0,0.0,0.0,0.0,0.0,0.0,0.0,0.0,0.0,0.0,0.0,0.0,-1.8377,-1.8399,-1.9535,-2.0765,-2.187,-2.2862,-2.3502,-2.3665,-2.4142,-2.4456,-2.4456,-2.5699,-2.6168,-2.5259,-2.4591,-2.3837,-2.3138,-2.553,-2.7092,-2.759,-2.7625,-2.7625,-2.7625,-2.7625,-2.7625,-2.7595,-2.6861,-2.692,-2.7475,-2.4747,-2.476,-2.6691,-2.6691,-2.6691,-2.6607,-2.5812,-2.4188,-2.2412,-2.3224,-2.3004,-2.2349,0.0,0.0,0.0,0.0,0.0,0.0,0.0,0.0,-0.6505,-0.5384,-0.6156,-0.6139,-0.4419,-0.4871,-0.4976,-0.4289,-0.4058,-0.4123,-0.451,0.0,0.0,0.0,0.0,-0.5342,-0.5607,-0.5128,-0.5852,-0.7846,-0.7546,-0.857,-1.0773,-1.0852,-1.121,-1.1797,-1.1924,-1.1911,-1.181,-1.2111,-1.2211,-1.2124,-1.1563,-1.1306,-1.1205,-1.0342,-1.0271,-1.0583,-1.0105,-0.9932,-0.9914,-0.9437,0.0,0.0,0.0,0.0,0.0,0.0,0.0,0.0,0.0,0.0,0.0,0.0,0.0,0.0,0.0,0.0,0.0,0.0,0.0,0.0,0.0,0.0,0.0,0.0,-1.9446,-2.0903,-2.1423,-2.1857,-2.2598,-2.3715,-2.4431,-2.4908,-2.5121,-2.5285,-2.5564,-2.5866,-2.6282,-2.6345,-2.5917,-2.4996,-2.4519,-2.4519,-2.5787,-2.6713,-2.7123,-2.8525,-2.8667,-2.7625,-2.7625,-2.7625,-2.7625,-2.7625,-2.7625,-2.7535,-2.5929,-2.5315,-2.5454,-2.635,-2.6691,0.0,0.0,0.0,0.0,0.0,-2.3359,-2.231,0.0,0.0,0.0,0.0,0.0,0.0,0.0,0.0,-0.6932,-0.5447,-0.6394,-0.6361,-0.4154,-0.4522,-0.4642,-0.3943,-0.3931,-0.412,0.0,0.0,0.0,-0.4803,-0.5177,-0.5665,-0.6282,-0.5694,-0.6779,-0.9597,-0.8859,-0.974,-1.215,-1.219,-1.2291,-1.2412,-1.2679,-1.2652,-1.2425,-1.2759,-1.3053,-1.334,-1.3661,-1.3471,-1.2813,-1.1983,-1.2048,-1.248,-1.1556,-1.0916,-1.0377,-0.9633,0.0,0.0,0.0,0.0,0.0,0.0,0.0,0.0,0.0,0.0,0.0,0.0,0.0,0.0,0.0,0.0,0.0,0.0,0.0,0.0,0.0,0.0,0.0,0.0,-2.1907,-2.3715,-2.4845,-2.4192,-2.3954,-2.4895,-2.5059,-2.5259,-2.5649,-2.5649,-2.5917,-2.6483,-2.6533,-2.6533,-2.6533,0.0,0.0,0.0,0.0,-2.6533,-2.6533,-2.9827,-3.0357,-2.8023,-2.8023,-2.8023,-2.8008,-2.7709,-2.7625,-2.7625,-2.7625,-2.6228,-2.4173,-2.597,-2.6691,-2.6691,-2.6691,-2.6691,-2.6657,-2.6319,-2.456,-2.231,0.0,0.0,0.0,0.0,0.0,0.0,0.0,0.0,-0.7257,-0.5791,-0.6882,-0.6885,-0.4409,-0.4799,-0.4952,-0.4346,-0.4128,-0.4273,0.0,0.0,-0.6438,-0.5173,-0.6123,-0.6345,-0.5639,-0.6427,-0.7172,-0.7769,-0.8618,-0.9717,-1.1254,-1.1323,-1.2016,-1.3039,-1.3093,-1.3086,-1.3066,-1.3601,-1.3861,-1.3961,-1.4496,-1.4085,-1.3094,-1.2979,-1.281,-1.2702,-1.1968,-1.2009,-1.2141,-1.1311,-1.1337,-1.1558,-1.0581,0.0,0.0,0.0,0.0,0.0,0.0,0.0,0.0,0.0,0.0,0.0,0.0,0.0,0.0,0.0,0.0,0.0,0.0,0.0,0.0,-2.1519,-2.3265,-2.4883,-2.5988,-2.6339,-2.6402,-2.6176,-2.654,-2.6666,-2.6327,-2.6873,-2.7012,-2.6559,-2.6533,-2.6533,-2.6533,-2.6533,-2.6533,-2.6533,-2.6533,-2.6533,-2.6533,-2.9827,-3.1228,-3.0761,0.0,0.0,-3.0687,-2.8547,-2.7625,-2.7625,-2.7625,-2.7325,-2.6811,-2.6733,-2.6691,-2.6691,-2.6691,-2.6691,-2.6404,-2.4036,-2.2801,-2.231,0.0,0.0,0.0,0.0,0.0,0.0,0.0,0.0,-0.7654,-0.6766,-0.7368,-0.7211,-0.5348,-0.5464,-0.5397,-0.4822,-0.4952,0.0,0.0,-0.6955,-0.7052,-0.5657,-0.7054,-0.7394,-0.6452,-0.7513,-0.8369,-0.9015,-0.9612,-1.0539,-1.1923,-1.2131,-1.2582,-1.3227,-1.3667,-1.3788,-1.3687,-1.4275,-1.4522,-1.4563,-1.5003,-1.483,-1.4289,-1.4142,-1.3988,-1.3864,-1.3193,-1.3073,-1.306,-1.1866,-1.1715,-1.183,-1.0584,-1.026,-1.0248,0.0,0.0,0.0,0.0,0.0,0.0,0.0,0.0,0.0,0.0,0.0,0.0,0.0,0.0,-1.8784,0.0,0.0,-2.298,-2.4154,-2.5561,-2.6653,-2.7205,-2.7369,-2.7381,-2.7293,-2.7532,-2.7519,-2.7125,-2.7507,-2.7444,-2.6596,-2.7494,-2.8122,-2.8122,-2.8122,-2.762,-2.6559,-2.6533,-2.6533,-2.6533,-2.9827,-3.1482,-3.1482,-3.1482,-3.1482,-3.1437,-3.0163,-2.9549,-2.9475,-2.8158,-2.7625,-2.7655,-2.8575,-2.8941,-2.8941,-2.8941,-2.8027,-2.6522,-2.505,-2.4509,-2.4509,0.0,0.0,0.0,0.0,0.0,0.0,0.0,0.0,0.0,-0.7593,-0.7675,-0.73,-0.6271,-0.595,-0.5675,-0.5291,0.0,0.0,0.0,-0.7676,-0.7786,-0.6511,-0.8068,-0.8594,-0.7855,-0.8744,-0.9713,-1.0783,-1.0888,-1.1582,-1.2839,-1.3093,-1.33,-1.3494,-1.4202,-1.4422,-1.4289,-1.4823,-1.505,-1.507,-1.5364,-1.5478,-1.5451,-1.5157,-1.505,-1.497,-1.4382,-1.3908,-1.3319,-1.2205,-1.1909,-1.1799,-1.056,-1.0373,-1.0363,-0.952,-0.9623,0.0,0.0,0.0,0.0,0.0,0.0,0.0,0.0,0.0,-1.7967,-1.9352,-2.0246,-2.1387,-2.3317,-2.4491,-2.5557,-2.6615,-2.7532,-2.8134,-2.821,-2.7959,-2.7946,-2.8373,-2.8235,-2.7908,-2.7465,-2.8009,-2.8059,-2.718,-2.8775,-2.9792,-2.9792,-2.9792,-2.8963,-2.7168,-2.7105,-2.7227,-2.7484,-3.0133,-3.1482,-3.1482,-3.1482,-3.1482,-3.1482,-3.1482,-3.1482,-3.1362,-2.9265,-2.8338,-2.8529,-3.103,-3.2053,-3.2002,-3.141,-2.9702,-2.7486,-2.6911,-2.6691,-2.6691,0.0,0.0,0.0,0.0,0.0,0.0,0.0,0.0,0.0,-0.7549,-0.7464,-0.714,-0.6364,-0.5698,-0.5463,0.0,0.0,0.0,-0.7436,-0.8735,-0.9022,-0.7989,-0.9416,-0.9774,-0.8958,-1.0007,-1.065,-1.0783,-1.1662,-1.249,-1.316,-1.3193,-1.3627,-1.4376,-1.4476,-1.4649,-1.489,-1.5211,-1.5351,-1.5378,-1.5665,-1.5785,-1.5752,-1.5458,-1.5351,-1.5271,-1.4683,-1.3948,-1.3247,-1.3101,-1.2676,-1.2245,-1.2025,-1.168,-1.1061,-0.9916,0.0,-0.9283,-0.9237,-1.0248,-1.1717,-1.3375,-1.3609,-1.4573,0.0,0.0,-2.01,-2.2811,-2.4179,-2.5184,-2.595,-2.659,-2.7205,-2.7821,-2.8021,-2.8235,-2.8574,-2.8599,-2.8825,-2.9528,-2.8712,-2.7708,-2.6747,-2.8411,-2.9553,-2.9428,-2.9654,-2.9792,-2.9792,-2.9792,-2.9679,-2.9428,-2.9415,-2.9905,-3.0925,-3.1278,-3.1482,-3.1482,-3.1482,-3.1482,-3.1482,-3.1482,-3.1482,-3.1452,-3.1168,-3.1091,-3.1287,-3.3971,-3.5131,-3.4861,-3.2222,-3.0987,-3.0362,-2.7689,-2.6691,-2.6691,0.0,0.0,0.0,0.0,0.0,0.0,0.0,0.0,0.0,0.0,0.0,-0.7826,-0.777,-0.7042,-0.6753,0.0,0.0,0.0,-0.8222,-0.9467,-0.9743,-0.8715,-1.0487,-1.1077,-1.0109,-1.1107,-1.1694,-1.1694,-1.2315,-1.2692,-1.2953,-1.3474,-1.3921,-1.4289,-1.4803,-1.5097,-1.5237,-1.5524,-1.5651,-1.5658,-1.5778,-1.5832,-1.5778,-1.5317,-1.4823,-1.4302,-1.3872,-1.3491,0.0,0.0,-1.2084,-1.1988,-1.1666,-1.1202,-1.0566,-0.9709,-0.9598,0.0,-1.069,-1.1628,0.0,0.0,-1.5557,-1.7143,-2.0313,-2.1271,-2.2333,-2.5344,-2.6527,-2.7331,-2.8235,-2.8586,-2.8825,0.0,-2.9089,-2.9151,-2.9315,-2.934,-2.9453,-2.9754,-2.9377,-2.89,-2.8436,-2.9239,-2.9792,-2.9792,-2.9792,-2.9792,-2.9792,-2.9792,-2.9792,-2.9792,-2.9792,-3.0057,-3.0526,-3.2695,-3.3844,-3.3844,-3.3844,-3.3036,-3.1482,-3.1482,-3.1482,-3.1482,-3.1482,-3.1482,-3.1582,-3.2756,-3.3219,-3.3248,-3.3611,-3.3761,-3.322,-2.8828,-2.8111,-2.9313,0.0,0.0,0.0,0.0,0.0,0.0,0.0,0.0,0.0,0.0,0.0,0.0,0.0,0.0,0.0,0.0,0.0,0.0,0.0,-0.9691,-0.9973,-0.9322,-1.105,-1.1721,-1.1126,-1.1961,-1.2425,-1.2425,-1.2726,-1.2913,-1.3006,-1.3661,-1.4095,-1.4355,-1.4997,-1.5364,-1.5531,-1.5738,-1.5832,-1.5818,-1.5745,-1.5665,-1.5504,-1.4763,-1.3981,-1.3292,-1.2996,-1.2691,0.0,0.0,-1.1368,-1.1546,-1.1187,-1.0899,-1.0502,-0.9811,-0.9828,-1.0293,-1.1158,0.0,0.0,-1.5238,-1.7206,-1.9384,-2.1691,-2.2868,-2.4319,-2.716,-2.8172,-2.8825,-2.9641,-2.9792,-2.9792,-2.9792,-2.9792,-2.9792,-2.9792,-2.9792,-2.9566,-2.8938,-2.8875,-2.9114,-2.9729,-2.9792,-2.9792,-2.9792,-2.9792,-2.9792,-2.9792,-2.9792,-2.9792,-2.9792,-2.9792,-2.9792,-2.9792,-3.3575,-3.5504,-3.5504,-3.5504,-3.4487,-3.2632,-3.2632,-3.2632,-3.2632,-3.2632,-3.3102,-3.3895,-3.3895,-3.3388,-3.281,-3.48,-3.5622,-3.5048,-3.0375,-2.9309,-3.0192,0.0,0.0,0.0,0.0,0.0,0.0,0.0,0.0,0.0,0.0,0.0,0.0,0.0,0.0,0.0,0.0,0.0,0.0,0.0,-0.9429,-0.9811,-1.004,-1.0916,-1.159,-1.1877,-1.2438,-1.2808,-1.2808,-1.3046,-1.334,-1.3621,-1.3559,-1.4115,-1.4937,-1.4963,-1.5291,-1.5818,-1.5825,-1.5832,-1.5805,-1.5524,-1.5244,-1.4863,-1.3707,-1.304,-1.2686,-1.237,0.0,0.0,0.0,-1.0805,-1.0823,-1.1282,-1.1355,0.0,-1.0617,-1.0173,-0.9814,0.0,0.0,-1.4302,-1.5709,-1.7726,-2.0159,-2.3466,-2.472,-2.587,-2.8374,-2.934,-2.9754,-2.9779,-2.9792,-2.9792,-2.9792,-2.9792,-2.9792,-2.9792,-2.9792,-2.8988,-2.6886,-2.6634,-2.7406,0.0,-2.9792,-2.9792,-2.9792,-2.9792,-2.9792,-2.9792,-2.9792,-2.9792,-2.9792,-2.9792,-2.9792,-2.9792,-3.3575,-3.5504,-3.5504,-3.5504,-3.5459,-3.5385,-3.5385,-3.5385,-3.5385,-3.5385,-3.7093,-3.9817,-3.9817,-3.813,-3.547,-3.5577,-3.5622,-3.5253,-3.2408,-2.9828,-2.771,0.0,0.0,0.0,0.0,0.0,0.0,0.0,0.0,0.0,0.0,0.0,0.0,0.0,0.0,0.0,0.0,0.0,0.0,0.0,-0.9417,-0.964,-1.0158,-1.0424,-1.0788,-1.1276,-1.1483,-1.1677,-1.187,-1.2365,-1.2659,-1.2766,-1.3367,-1.3908,-1.4389,-1.4583,-1.489,-1.5257,-1.5257,-1.5144,-1.4917,-1.4429,-1.4175,-1.3935,-1.3009,-1.248,-1.2172,0.0,0.0,0.0,0.0,-0.9825,-1.0017,-1.0248,-1.015,-0.9944,-0.9923,-1.0057,-1.0348,0.0,0.0,-1.587,-1.7437,-1.9481,-2.1889,-2.5065,-2.5947,-2.6577,-2.8484,-2.8263,-2.7631,-2.7356,-2.7209,-2.7321,-2.7766,-2.8587,-2.9352,-2.9741,-2.9792,-2.9327,-2.8097,-2.7708,0.0,0.0,0.0,0.0,-2.9792,-2.9792,-2.9792,-2.9792,-2.9792,-2.9792,-2.9792,-2.9792,-2.9792,-2.9792,-3.3575,-3.5504,-3.5504,-3.5504,-3.5504,-3.5504,-3.5504,-3.5504,-3.5504,-3.5504,-3.7279,-4.007,-4.007,-3.8311,-3.5622,-3.5622,-3.5622,-3.547,-3.4544,-3.253,-3.0208,0.0,0.0,0.0,0.0,0.0,0.0,0.0,0.0,0.0,0.0,0.0,0.0,0.0,0.0,0.0,0.0,0.0,0.0,0.0,0.0,-0.9683,-1.0105,-1.024,-1.0551,-1.1005,-1.124,-1.1382,-1.1368,-1.1861,-1.209,-1.2004,-1.2579,-1.3006,-1.3307,-1.3594,-1.3895,-1.4168,-1.4168,-1.4062,-1.3828,-1.3212,-1.2939,-1.2839,-1.1961,-1.1567,0.0,0.0,0.0,0.0,0.0,-0.9656,-0.9839,-0.9954,-0.9992,-0.9881,-0.9875,-1.0393,-1.122,-1.2355,-1.467,-1.7167,-1.8797,-2.0809,-2.3082,-2.6052,-2.6461,-2.6577,-2.8027,-2.7815,-2.7135,-2.6338,-2.5105,-2.4878,-2.681,-2.7673,-2.8448,-2.9628,-2.9792,-2.9528,-2.8787,-2.8699,-2.8888,0.0,0.0,0.0,-2.9792,-2.9792,-2.9792,-2.9792,-2.9792,-2.9792,-2.9792,-2.9792,-2.9792,-2.9792,-3.3575,-3.5504,-3.5504,-3.5504,-3.5504,-3.5504,-3.5504,-3.5504,-3.5504,-3.5504,-3.7279,-4.007,-4.007,-3.8954,-3.7212,-3.7212,-3.7212,-3.7212,-3.7212,-3.481,-3.164,0.0,0.0,0.0,0.0,0.0,0.0,0.0,0.0,0.0,0.0,0.0,0.0,0.0,0.0,0.0,0.0,0.0,0.0,0.0,0.0,0.0,-0.9962,-1.0399,-1.0794,-1.1019,-1.1575,-1.168,-1.1367,-1.1623,-1.1615,-1.1377,-1.1391,-1.1565,-1.1861,-1.2136,-1.2425,-1.2708,-1.2708,-1.2701,-1.2607,-1.1956,-1.1682,-1.1532,-1.0782,0.0,0.0,0.0,0.0,0.0,0.0,0.0,0.0,0.0,-1.0808,-1.1044,-1.059,-1.1258,-1.233,-1.3209,-1.5579,-1.8163,-1.9712,-2.1626,-2.3767,-2.6461,-2.6289,-2.5846,-2.7051,-2.7896,-2.7886,0.0,0.0,-2.2727,-2.6746,-2.6929,-2.7318,-2.9528,-2.9829,-2.9591,0.0,0.0,0.0,0.0,0.0,0.0,-2.9854,0.0,-2.9854,-2.9792,-2.9792,-2.9792,-2.9792,-2.9792,-2.9792,-2.9792,-3.3575,-3.5504,-3.5504,-3.5504,-3.5504,-3.5504,-3.5504,-3.5504,-3.5504,-3.5683,-3.7397,-4.007,-4.007,-4.007,-4.007,-4.007,-4.007,-4.007,-4.007,-3.6529,-3.2091,0.0,0.0,0.0,0.0,0.0,0.0,0.0,0.0,0.0,0.0,0.0,0.0,0.0,0.0,0.0,0.0,0.0,0.0,0.0,0.0,0.0,0.0,0.0,0.0,0.0,0.0,0.0,-1.1075,-1.117,-1.1115,-1.0877,-1.1012,-1.1185,-1.1317,-1.1396,-1.1539,-1.1831,-1.1831,-1.1638,-1.1305,0.0,-1.0552,-1.0541,0.0,0.0,0.0,0.0,0.0,0.0,0.0,0.0,0.0,0.0,-1.101,-1.0918,-1.21,-1.2531,-1.2897,-1.421,-1.6411,-1.8652,-2.0132,-2.1299,-2.2881,-2.5847,-2.5438,-2.4971,-2.7123,-2.5642,-2.3308,0.0,0.0,0.0,-2.397,-2.6226,0.0,-3.0156,-3.0407,0.0,0.0,0.0,-3.0909,-3.0721,-3.0871,0.0,0.0,-3.0846,-3.0633,-2.9829,-2.9792,-2.9792,-2.9792,-2.9792,-2.9792,-2.9792,-3.3575,-3.5504,-3.5504,-3.5504,-3.5504,-3.5504,-3.5504,-3.5504,-3.5619,-3.7905,-3.9385,-4.007,-4.007,-4.007,-4.007,-4.007,-4.007,-4.007,-4.007,-3.7737,-3.4879,0.0,0.0,0.0,0.0,0.0,0.0,0.0,0.0,0.0,0.0,0.0,0.0,0.0,0.0,0.0,0.0,0.0,0.0,0.0,0.0,0.0,0.0,0.0,0.0,0.0,0.0,0.0,0.0,0.0,0.0,-1.012,-1.0265,-1.0257,-1.0124,-1.0265,-1.0372,-1.0534,-1.0534,0.0,0.0,0.0,0.0,0.0,0.0,0.0,0.0,0.0,0.0,0.0,0.0,0.0,-1.0157,-1.0151,-1.0263,-1.0584,-1.2351,0.0,-1.3591,-1.5324,-1.7056,-1.8913,-2.0671,-2.1345,-2.2428,-2.5923,-2.5484,-2.4732,-2.6087,-2.3594,0.0,0.0,0.0,0.0,0.0,0.0,0.0,-2.9566,-3.0306,-3.0721,0.0,-3.1248,0.0,-3.1386,-3.1386,-3.1386,0.0,-3.1386,-3.1348,-3.1235,-3.1235,-3.1235,-3.1235,-3.1235,-3.0771,-2.9804,-3.3575,-3.5504,-3.5504,-3.5504,-3.5504,-3.5504,-3.5504,-3.5504,-3.5683,0.0,-4.007,-4.007,-4.007,-4.007,-4.007,-4.007,-4.007,-4.007,-4.007,-3.7397,-3.4364,0.0,0.0,0.0,0.0,0.0,0.0,0.0,0.0,0.0,0.0,0.0,0.0,0.0,0.0,0.0,0.0,0.0,0.0,0.0,0.0,0.0,0.0,0.0,0.0,0.0,0.0,0.0,0.0,0.0,0.0,0.0,0.0,0.0,0.0,0.0,0.0,0.0,0.0,0.0,0.0,0.0,0.0,0.0,0.0,0.0,0.0,0.0,0.0,0.0,0.0,-1.0386,-0.9475,-0.909,-0.9445,-1.0279,-1.1901,-1.2852,-1.3779,-1.5801,-1.7196,-1.8569,-2.0601,-2.131,-2.2263,-2.591,-2.5182,-2.3745,-2.4071,0.0,-1.8714,-1.7424,0.0,-1.892,-2.2878,0.0,-2.5784,-2.8512,-2.9965,-3.0746,-3.0821,-3.1286,-3.1612,-3.1612,-3.1687,-3.1838,-3.2114,-3.1813,-3.2039,-3.3031,-3.3081,-3.3081,-3.3081,-3.3081,-3.2014,-2.9817,-3.3575,-3.5504,-3.5504,-3.5504,-3.5504,-3.5504,-3.5504,-3.5504,-3.5683,-3.8761,-4.007,-4.007,-4.007,-4.007,-4.007,-4.007,-4.007,-4.007,-4.007,-3.6675,-3.2801,0.0,0.0,0.0,0.0,0.0,0.0,0.0,0.0,0.0,0.0,-0.7713,-0.7589,0.0,0.0,0.0,0.0,0.0,0.0,0.0,0.0,0.0,0.0,0.0,0.0,0.0,0.0,0.0,0.0,0.0,0.0,0.0,0.0,0.0,0.0,0.0,0.0,0.0,0.0,0.0,0.0,0.0,0.0,0.0,0.0,0.0,0.0,0.0,0.0,0.0,0.0,-1.0122,-1.0409,-1.1651,-1.0798,-0.9854,-1.1845,-1.2043,-1.194,-1.3975,-1.5059,-1.6085,-1.782,-2.0005,-2.2253,-2.4404,-2.1181,0.0,0.0,0.0,-1.5812,-1.5233,-1.6789,0.0,-2.104,0.0,0.0,0.0,0.0,-3.1424,0.0,0.0,0.0,0.0,0.0,0.0,0.0,0.0,-3.2867,-3.3068,-3.3081,-3.3081,-3.3081,-3.3081,-3.2014,-2.9817,-3.3575,-3.5504,-3.5504,-3.5504,-3.5504,-3.5504,-3.5504,-3.5504,-3.5683,-3.8761,0.0,-4.007,-4.007,-4.007,-4.007,-4.007,-4.007,-4.007,-4.007,-3.7866,-3.5336,0.0,0.0,0.0,0.0,0.0,0.0,0.0,-0.7451,-0.7491,-0.7851,-0.7627,-0.7534,-0.7687,-0.7981,-0.8417,0.0,0.0,0.0,0.0,0.0,0.0,0.0,0.0,0.0,0.0,0.0,0.0,0.0,0.0,0.0,0.0,0.0,0.0,0.0,0.0,0.0,0.0,0.0,0.0,0.0,0.0,0.0,0.0,0.0,0.0,0.0,0.0,0.0,0.0,0.0,-1.0231,-1.1324,-1.1174,-1.0066,-0.9111,-1.1074,-1.1429,-1.1763,-1.3895,-1.5617,-1.7054,-1.7879,-1.8851,-1.9975,-2.1381,0.0,0.0,0.0,0.0,-1.4184,-1.4686,0.0,0.0,0.0,0.0,0.0,0.0,0.0,0.0,0.0,0.0,0.0,0.0,0.0,0.0,0.0,0.0,-3.3081,-3.3081,-3.3081,-3.3081,-3.3081,-3.3081,-3.2014,-2.9817,-3.3575,-3.5504,-3.5504,-3.5504,-3.5504,-3.5504,-3.5504,-3.6368,-3.7962,-3.9454,-4.007,-4.007,-4.007,-4.007,-4.007,-4.007,-4.007,-3.9901,-3.8302,-3.6768,-3.5733,0.0,0.0,0.0,0.0,0.0,0.0,0.0,-0.754,-0.7535,-0.782,-0.7767,-0.764,-0.7557,-0.7682,-0.7992,0.0,0.0,0.0,0.0,0.0,0.0,0.0,0.0,0.0,0.0,0.0,0.0,0.0,0.0,0.0,0.0,0.0,0.0,0.0,0.0,0.0,0.0,0.0,0.0,0.0,0.0,0.0,0.0,0.0,0.0,0.0,0.0,0.0,0.0,0.0,-0.984,-1.1281,-0.9961,-0.9177,-0.8977,-1.042,-1.1223,-1.192,-1.3181,-1.5526,-1.7872,-1.8559,-1.8171,-1.7719,-1.7877,-1.5488,0.0,0.0,-1.2881,-1.3263,-1.4512,0.0,0.0,0.0,0.0,0.0,0.0,0.0,0.0,0.0,0.0,0.0,0.0,0.0,0.0,0.0,0.0,0.0,-3.3081,-3.3081,-3.3081,-3.3081,-3.3081,-3.2014,-2.9817,-3.3575,-3.5504,-3.5504,-3.5504,-3.5504,-3.5504,-3.5504,-3.716,-4.007,-4.007,-4.007,-4.007,-4.007,-4.007,-4.007,-4.007,-3.9679,-3.8816,-3.6368,-3.5504,-3.5504,0.0,0.0,0.0,0.0,0.0,0.0,0.0,-0.8009,-0.7991,-0.8374,-0.8171,-0.7792,-0.7364,-0.7349,-0.789,0.0,0.0,0.0,0.0,0.0,0.0,0.0,0.0,0.0,0.0,0.0,0.0,0.0,0.0,0.0,0.0,0.0,0.0,0.0,0.0,0.0,0.0,0.0,0.0,0.0,0.0,0.0,0.0,0.0,0.0,0.0,0.0,0.0,0.0,0.0,0.0,-0.8971,-0.9676,-0.9836,-0.9976,-1.0477,0.0,0.0,-1.0303,-1.2346,-1.5606,-1.8571,-1.8606,-1.7166,-1.416,0.0,0.0,-1.3086,-1.2881,-1.3145,-1.4014,-1.4403,0.0,0.0,0.0,0.0,0.0,0.0,0.0,0.0,0.0,0.0,0.0,0.0,0.0,0.0,0.0,0.0,-3.3081,-3.3081,-3.3081,-3.3081,-3.3081,-3.2014,-2.9817,-3.3575,-3.5504,-3.5504,-3.5504,-3.5504,-3.5504,-3.5504,-3.716,-4.007,-4.007,-4.007,0.0,-4.007,-4.007,-4.007,-4.007,-3.8414,-3.591,-3.5619,-3.5504,-3.5504,0.0,0.0,0.0,0.0,0.0,0.0,-0.8066,-0.7894,-0.787,-0.8254,-0.8152,-0.8018,-0.7975,-0.7589,-0.7526,-0.7968,0.0,0.0,0.0,0.0,0.0,0.0,0.0,0.0,0.0,0.0,0.0,0.0,0.0,0.0,0.0,0.0,0.0,0.0,0.0,0.0,0.0,0.0,0.0,0.0,0.0,0.0,0.0,0.0,0.0,0.0,0.0,0.0,0.0,0.0,0.0,0.0,-0.9615,-1.0299,0.0,0.0,-1.1505,-1.2697,-1.1987,-1.3992,-1.671,-1.7954,-1.7383,-1.6084,-1.4717,0.0,0.0,-1.3047,-1.2881,-1.3194,-1.41,-1.4257,-1.4824,-1.6698,0.0,0.0,0.0,0.0,0.0,0.0,0.0,0.0,0.0,0.0,0.0,0.0,0.0,0.0,-3.3081,-3.3081,-3.3081,-3.3081,-3.3081,-3.2654,-3.1775,-3.4257,-3.5504,-3.5504,-3.5504,-3.5504,-3.5504,-3.5504,-3.716,-4.007,-4.007,-3.9049,0.0,-3.7338,-3.843,-4.007,-4.007,-3.8246,-3.5504,-3.5504,-3.5504,-3.5504,0.0,0.0,0.0,0.0,0.0,-0.8049,-0.8137,-0.794,-0.7894,-0.8222,-0.8197,-0.8165,-0.8228,-0.7707,-0.7298,-0.7134,-0.7556,0.0,0.0,0.0,0.0,0.0,0.0,0.0,0.0,0.0,0.0,-1.0176,-0.9509,0.0,0.0,0.0,0.0,0.0,0.0,0.0,0.0,0.0,0.0,0.0,0.0,0.0,0.0,0.0,0.0,0.0,0.0,0.0,0.0,0.0,0.0,0.0,0.0,0.0,0.0,0.0,-1.1912,-1.345,-1.3925,-1.575,-1.7435,-1.7555,-1.6637,-1.5486,0.0,0.0,0.0,-1.3047,-1.2881,-1.3165,-1.4044,-1.4129,-1.4596,-1.6095,0.0,-1.6884,0.0,0.0,0.0,0.0,0.0,0.0,0.0,0.0,0.0,0.0,0.0,0.0,-3.3081,-3.3081,-3.3081,-3.3081,-3.3081,-3.3081,-3.3081,-3.4667,-3.5504,-3.5504,-3.5504,-3.5504,-3.5504,-3.5504,-3.6707,-3.8761,-3.8761,-3.7515,0.0,-3.5504,-3.6768,-3.8761,-3.8761,-3.7381,-3.5504,-3.5504,-3.5504,-3.5504,0.0,0.0,0.0,0.0,0.0,0.0,-0.8479,-0.832,-0.8228,-0.839,-0.8271,-0.8096,-0.7823,-0.7518,-0.7288,-0.7198,-0.7271,0.0,0.0,0.0,0.0,0.0,0.0,0.0,0.0,0.0,-1.0667,-0.9619,-0.9222,-0.8659,-0.8021,-0.7787,0.0,0.0,0.0,0.0,0.0,0.0,0.0,0.0,0.0,0.0,0.0,0.0,0.0,0.0,0.0,0.0,0.0,0.0,0.0,0.0,0.0,0.0,0.0,0.0,-1.2663,-1.4089,-1.5364,-1.6413,-1.7094,-1.7482,-1.6802,-1.5745,0.0,0.0,0.0,-1.3145,-1.2881,-1.3057,-1.3633,-1.3886,-1.4526,-1.6043,-1.6363,0.0,0.0,0.0,0.0,0.0,0.0,0.0,0.0,0.0,0.0,0.0,0.0,0.0,-3.3081,-3.3081,-3.3081,-3.3081,-3.3081,-3.3081,-3.3081,-3.4667,-3.5504,-3.5504,-3.5504,-3.5504,-3.5504,-3.5504,-3.5504,-3.5569,-3.5569,-3.5504,0.0,-3.5504,-3.5504,-3.5569,-3.5569,-3.5504,-3.5504,-3.5504,-3.5504,-3.5504,0.0,0.0,0.0,0.0,0.0,0.0,0.0,-0.8364,-0.8239,-0.8316,-0.8169,-0.8015,-0.7878,-0.7475,-0.723,-0.7206,-0.7218,0.0,0.0,0.0,0.0,0.0,0.0,0.0,0.0,0.0,-0.9843,-0.9208,-0.8464,-0.8005,-0.7807,-0.7628,-0.7377,0.0,0.0,0.0,0.0,0.0,0.0,0.0,0.0,0.0,0.0,0.0,0.0,0.0,0.0,0.0,0.0,0.0,0.0,0.0,0.0,0.0,0.0,-1.1559,0.0,0.0,-1.3747,-1.4664,-1.5354,-1.5159,-1.4648,-1.3941,-1.3214,0.0,0.0,-1.3126,-1.3036,-1.3204,-1.3777,-1.3941,-1.4491,-1.6267,-1.6921,0.0,0.0,0.0,0.0,0.0,0.0,0.0,0.0,0.0,0.0,0.0,0.0,0.0,-3.3081,-3.3081,-3.3081,-3.3081,-3.3081,-3.3081,-3.3081,-3.65,-3.7285,-3.5504,-3.5504,-3.5504,-3.5504,-3.5504,-3.5504,-3.5504,-3.5504,-3.5504,-3.5504,-3.5504,-3.5504,-3.5504,-3.5504,-3.5504,-3.5504,-3.5504,-3.5504,-3.5504,0.0,0.0,0.0,0.0,0.0,0.0,0.0,-0.8442,-0.8309,-0.8349,-0.8107,-0.797,-0.7984,-0.7558,-0.7262,-0.7222,-0.7187,0.0,0.0,0.0,0.0,0.0,0.0,0.0,0.0,-0.9448,-0.8822,-0.8488,-0.7724,-0.7266,-0.7091,-0.7076,-0.6956,-0.6732,-0.6699,0.0,0.0,0.0,0.0,0.0,0.0,0.0,-0.652,0.0,0.0,0.0,0.0,0.0,0.0,0.0,0.0,0.0,0.0,0.0,0.0,0.0,-1.2033,0.0,0.0,-1.3476,-1.4134,-1.394,-1.366,0.0,0.0,0.0,0.0,-1.3067,-1.3027,-1.3184,-1.3621,-1.3734,-1.4193,-1.5778,-1.6999,0.0,0.0,0.0,0.0,0.0,0.0,0.0,0.0,0.0,0.0,0.0,0.0,0.0,-3.3081,-3.3081,-3.3081,-3.3081,-3.3081,-3.3869,-3.5453,-3.7128,-3.712,-3.5504,-3.5504,-3.5504,-3.5504,-3.5504,-3.5504,-3.5504,-3.5504,-3.5504,0.0,-3.5504,-3.5504,-3.5504,-3.5504,-3.5504,-3.5504,-3.5504,-3.5504,-3.5504,0.0,0.0,0.0,0.0,0.0,0.0,0.0,-0.8555,-0.8488,-0.841,-0.8127,-0.7989,-0.8105,-0.7698,-0.7351,-0.7163,0.0,0.0,0.0,0.0,0.0,0.0,0.0,0.0,0.0,-0.8277,-0.7712,-0.7712,-0.7027,-0.6489,-0.6053,-0.6251,-0.6422,-0.6569,-0.6708,0.0,0.0,0.0,0.0,0.0,0.0,0.0,0.0,0.0,0.0,0.0,0.0,0.0,0.0,0.0,0.0,0.0,0.0,0.0,0.0,0.0,0.0,0.0,0.0,-1.277,0.0,0.0,0.0,0.0,0.0,0.0,0.0,0.0,0.0,0.0,-1.323,-1.3347,-1.3768,-1.4819,0.0,0.0,0.0,0.0,0.0,0.0,0.0,0.0,0.0,0.0,0.0,0.0,0.0,0.0,-3.2965,-3.3016,-3.3076,-3.3204,-3.3229,-3.513,-3.9068,-3.6716,-3.5504,-3.5504,-3.5504,-3.5504,-3.5504,-3.5504,-3.5504,0.0,-3.5504,-3.5504,-3.5504,-3.5504,-3.5504,-3.5504,-3.5504,-3.5504,-3.5504,-3.5504,-3.5504,-3.5504,0.0,0.0,0.0,0.0,0.0,0.0,0.0,0.0,0.0,0.0,-0.8382,-0.8254,-0.8186,-0.7842,-0.734,0.0,0.0,0.0,0.0,0.0,0.0,0.0,0.0,0.0,0.0,-0.7362,-0.7712,-0.7712,-0.7196,-0.6505,-0.5634,-0.5574,-0.5754,-0.6145,-0.6395,-0.6538,0.0,0.0,0.0,0.0,0.0,0.0,0.0,0.0,0.0,0.0,-0.7072,-0.7632,0.0,0.0,0.0,0.0,0.0,0.0,0.0,0.0,-1.1977,-1.2059,-1.2112,0.0,-1.2312,-1.2432,-1.2528,0.0,0.0,0.0,0.0,0.0,0.0,0.0,0.0,0.0,0.0,0.0,0.0,0.0,0.0,0.0,0.0,0.0,0.0,0.0,0.0,0.0,0.0,0.0,0.0,-3.0947,-3.178,-3.1769,-3.2489,-3.3945,-3.4651,-3.5394,-3.6432,-3.5818,-3.5504,-3.5504,-3.5504,-3.5504,-3.5504,-3.5504,-3.5504,-3.5504,-3.5504,-3.5504,-3.5504,-3.5504,-3.5504,-3.5504,-3.5504,-3.5504,-3.5504,-3.5504,-3.5504,-3.5504,0.0,0.0,0.0,0.0,0.0,0.0,0.0,0.0,0.0,0.0,0.0,0.0,0.0,0.0,0.0,0.0,0.0,0.0,0.0,0.0,0.0,0.0,0.0,0.0,-0.5811,-0.7053,-0.7712,-0.7712,-0.6823,-0.6339,-0.6232,-0.5653,-0.5423,-0.5555,-0.5706,-0.5766,0.0,0.0,0.0,0.0,-0.6774,0.0,0.0,0.0,0.0,0.0,-0.7241,-0.776,0.0,-0.9006,-0.9657,-1.0326,0.0,0.0,0.0,0.0,-1.1578,-1.1877,-1.2026,-1.2026,-1.2072,-1.2406,-1.2454,-1.2518,0.0,0.0,0.0,0.0,0.0,0.0,0.0,0.0,0.0,0.0,0.0,0.0,0.0,0.0,0.0,0.0,0.0,0.0,0.0,0.0,0.0,0.0,0.0,-3.0047,-3.0611,-3.0628,-3.1533,-3.3454,-3.4802,-3.5504,-3.5504,-3.5504,-3.5504,-3.5504,-3.5504,-3.5504,-3.5504,-3.5504,-3.5504,-3.5504,-3.5504,-3.5504,-3.5504,-3.5504,-3.5504,-3.5504,-3.5504,-3.5504,-3.5504,-3.5504,-3.5504,-3.5504,0.0,0.0,0.0,0.0,0.0,0.0,0.0,0.0,0.0,0.0,0.0,0.0,0.0,0.0,0.0,0.0,0.0,0.0,0.0,0.0,0.0,0.0,0.0,-0.6374,-0.6105,-0.7148,-0.7545,-0.7286,-0.6167,-0.6038,-0.6791,-0.5891,-0.5316,-0.5033,-0.5002,-0.5116,0.0,0.0,0.0,0.0,-0.6781,0.0,0.0,0.0,0.0,0.0,0.0,0.0,0.0,-0.8938,-0.9479,-0.9865,-1.0174,0.0,0.0,0.0,0.0,0.0,-1.1828,-1.1981,-1.2159,-1.261,-1.2617,-1.2605,0.0,0.0,0.0,0.0,0.0,0.0,0.0,0.0,0.0,0.0,0.0,0.0,0.0,0.0,0.0,0.0,0.0,0.0,0.0,0.0,0.0,0.0,0.0,-2.9792,-2.9792,-2.9934,-3.0709,-3.2105,-3.4056,-3.5213,-3.5504,-3.5504,-3.5504,-3.5504,-3.5504,-3.5504,-3.5504,-3.5504,-3.5504,-3.5504,0.0,0.0,-3.5504,-3.5504,-3.5504,-3.5504,-3.5504,-3.5504,-3.5504,-3.5504,-3.5504,-3.5504,0.0,0.0,0.0,0.0,0.0,0.0,0.0,0.0,0.0,0.0,0.0,0.0,0.0,0.0,0.0,0.0,0.0,0.0,0.0,0.0,0.0,0.0,-0.7091,-0.7459,-0.7419,-0.7616,-0.695,-0.5415,-0.539,-0.54,-0.5508,-0.5358,-0.5296,-0.5267,-0.5069,-0.5626,-0.6683,-0.6496,-0.6502,-0.6708,-0.6907,0.0,0.0,0.0,0.0,0.0,0.0,0.0,0.0,-0.8686,-0.9134,-0.9762,-0.9584,0.0,0.0,0.0,0.0,0.0,-1.1167,-1.1472,-1.1746,-1.1939,-1.2162,-1.2342,0.0,0.0,0.0,0.0,0.0,0.0,0.0,0.0,0.0,0.0,0.0,0.0,0.0,0.0,0.0,0.0,0.0,0.0,0.0,0.0,0.0,0.0,0.0,-2.9792,-2.9792,-3.0558,-3.0758,-3.0216,-3.2046,-3.3837,-3.5504,-3.5504,-3.5504,-3.5504,-3.5504,-3.5504,-3.5504,-3.5504,-3.5504,-3.5504,0.0,-3.5504,-3.5504,-3.5504,-3.5504,-3.5504,-3.5504,-3.5504,-3.5504,-3.5504,-3.5504,-3.5504,0.0,0.0,0.0,0.0,0.0,0.0,0.0,0.0,0.0,0.0,0.0,0.0,0.0,0.0,0.0,0.0,0.0,0.0,0.0,0.0,0.0,-0.6315,-0.7213,-0.7712,-0.7712,-0.7188,-0.6482,-0.5661,-0.5357,-0.5261,-0.5239,-0.5299,-0.5092,-0.4771,-0.5035,-0.5726,-0.6696,-0.6696,-0.6781,-0.6865,0.0,0.0,0.0,0.0,0.0,0.0,0.0,0.0,0.0,0.0,-0.8909,-0.9211,-0.912,0.0,0.0,0.0,0.0,0.0,-1.0659,-1.1079,-1.1444,-1.1497,-1.1744,-1.2061,0.0,0.0,0.0,0.0,0.0,0.0,0.0,0.0,0.0,0.0,0.0,0.0,0.0,0.0,0.0,0.0,0.0,0.0,0.0,0.0,0.0,0.0,0.0,0.0,-2.9792,-3.0696,-3.1254,-3.1341,-3.2499,-3.387,-3.5504,-3.5504,-3.5504,-3.5504,-3.5504,-3.5504,-3.5504,-3.5504,-3.5504,-3.5504,0.0,-3.5504,-3.5504,-3.5504,-3.5504,-3.5504,-3.5504,-3.5504,-3.5504,-3.5504,-3.5504,-3.5504,0.0,0.0,0.0,0.0,0.0,0.0,0.0,0.0,0.0,0.0,0.0,0.0,0.0,0.0,0.0,0.0,0.0,0.0,0.0,0.0,-0.6364,-0.6446,-0.6944,-0.7377,-0.7712,-0.6764,-0.6257,-0.6178,-0.5606,-0.5266,-0.5217,-0.5273,-0.5004,-0.4591,-0.5325,-0.6008,-0.6575,-0.6859,-0.6979,-0.6979,0.0,0.0,0.0,0.0,0.0,0.0,0.0,0.0,0.0,0.0,0.0,0.0,0.0,0.0,0.0,-0.9106,-0.9465,-0.9821,-1.0087,-1.0549,-1.0943,-1.095,0.0,0.0,0.0,0.0,0.0,0.0,0.0,0.0,0.0,0.0,0.0,0.0,0.0,0.0,0.0,0.0,0.0,0.0,0.0,0.0,0.0,0.0,0.0,0.0,0.0,0.0,-3.0139,-3.1044,-3.196,-3.2834,-3.3649,-3.4535,-3.5504,-3.5504,-3.5504,-3.5504,-3.5504,-3.5504,-3.5504,-3.5504,-3.5504,-3.5504,-3.5504,-3.5504,-3.5504,-3.5504,-3.5504,-3.5504,-3.5504,-3.5504,-3.5504,-3.5504,-3.5504,-3.5504,0.0,0.0,0.0,0.0,0.0,0.0,0.0,0.0,0.0,0.0,0.0,0.0,0.0,0.0,0.0,0.0,0.0,0.0,0.0,0.0,-0.6477,-0.6929,-0.6228,-0.6447,-0.767,-0.6825,-0.6327,-0.6178,-0.5827,-0.5425,-0.5027,-0.5193,-0.5273,-0.53,-0.6394,-0.693,-0.6937,-0.6979,-0.6979,-0.6979,-0.6979,0.0,0.0,0.0,0.0,0.0,0.0,0.0,0.0,0.0,0.0,0.0,0.0,0.0,-0.8679,-0.8956,-0.9068,-0.9225,-0.942,-0.9614,-0.9784,-1.0052,-1.109,0.0,-1.0902,-1.0674,0.0,0.0,0.0,0.0,0.0,0.0,0.0,0.0,0.0,0.0,0.0,0.0,0.0,0.0,0.0,0.0,0.0,0.0,0.0,0.0,0.0,0.0,-3.1044,-3.196,-3.2834,-3.3506,-3.4735,-3.5389,-3.5504,-3.5504,-3.5504,-3.5504,-3.5504,-3.5504,-3.5504,-3.5504,-3.5504,-3.5504,-3.5504,-3.5504,-3.5504,-3.5504,-3.5504,-3.5504,-3.5504,-3.5504,-3.5504,-3.5504,-3.5504,-3.5504,0.0,0.0,0.0,0.0,0.0,0.0,0.0,0.0,0.0,0.0,0.0,0.0,0.0,0.0,0.0,0.0,0.0,0.0,0.0,0.0,-0.6834,-0.7001,-0.6441,-0.6239,-0.6447,-0.6236,-0.6142,-0.6178,-0.5878,-0.5473,-0.4995,-0.5007,-0.5497,-0.6475,-0.7217,-0.7344,-0.7068,-0.7816,-0.813,-0.813,-0.813,-0.7822,0.0,0.0,0.0,0.0,0.0,0.0,0.0,0.0,-0.8692,-0.8633,-0.8857,-0.8745,-0.8626,-0.8738,-0.8949,-0.9218,-0.9382,-0.9752,-1.0072,-0.9806,-0.988,0.0,0.0,-1.1751,-1.3834,0.0,0.0,0.0,0.0,0.0,0.0,0.0,0.0,0.0,0.0,0.0,0.0,0.0,0.0,0.0,0.0,0.0,0.0,0.0,0.0,0.0,-3.196,-3.2834,-3.3353,-3.3575,-3.4854,-3.5504,-3.5504,-3.5504,-3.5504,-3.5504,-3.5504,-3.5504,-3.5504,-3.5504,-3.5504,-3.5504,-3.5504,-3.5504,-3.5504,-3.5504,-3.5504,-3.5504,-3.5504,-3.5504,-3.5504,-3.5504,-3.5504,-3.5504,0.0,0.0,0.0,0.0,0.0,0.0,0.0,0.0,0.0,0.0,0.0,0.0,0.0,0.0,0.0,0.0,0.0,0.0,-0.6495,-0.6816,-0.6979,-0.6979,-0.6653,-0.6318,-0.6045,-0.6129,-0.6136,-0.6087,-0.5866,-0.5488,-0.5075,-0.4995,-0.5634,-0.6828,-0.7194,-0.7326,-0.7341,-0.796,-0.8362,-0.854,-0.854,-0.8017,0.0,0.0,0.0,0.0,0.0,0.0,0.0,0.0,-0.8533,-0.8421,-0.8586,-0.8586,-0.8474,-0.8527,-0.8738,-0.9008,-0.918,-0.9686,-1.018,-1.005,0.0,0.0,-0.9399,-1.2712,-1.5832,0.0,0.0,0.0,0.0,0.0,0.0,0.0,0.0,0.0,0.0,0.0,0.0,0.0,0.0,0.0,0.0,0.0,0.0,0.0,0.0,0.0,0.0,-3.3308,-3.3565,-3.3902,-3.4963,-3.537,-3.51,-3.537,-3.5085,-3.4247,-3.4247,-3.4696,-3.5504,-3.5504,-3.5504,-3.5459,-3.4607,-3.4726,-3.5504,-3.5504,-3.5504,-3.5504,-3.5504,-3.5504,-3.5504,-3.5504,-3.5504,-3.5504,0.0,0.0,0.0,0.0,0.0,0.0,0.0,0.0,0.0,0.0,0.0,0.0,0.0,0.0,0.0,0.0,0.0,0.0,-0.6927,-0.7014,-0.6979,-0.6979,-0.6738,-0.665,-0.6814,-0.6577,-0.6331,-0.5903,-0.5866,-0.564,-0.5305,-0.5321,-0.5597,-0.6106,-0.6139,-0.6834,-0.7829,-0.7224,-0.7304,-0.7848,-0.7848,-0.7901,-0.7901,0.0,0.0,0.0,0.0,0.0,0.0,0.0,-0.8221,-0.7955,-0.8321,-0.8321,-0.8221,-0.8374,-0.8427,-0.854,-0.8752,-0.9218,-0.9821,0.0,0.0,0.0,0.0,-1.33,-1.5812,0.0,0.0,0.0,0.0,0.0,0.0,0.0,0.0,0.0,0.0,0.0,0.0,0.0,0.0,0.0,0.0,0.0,0.0,0.0,0.0,0.0,0.0,-3.3437,-3.3514,-3.4457,-3.513,-3.5055,-3.4188,-3.504,-3.4143,-3.1482,-3.1482,-3.2916,-3.5474,-3.5474,-3.5474,-3.5325,-3.2677,-3.3036,-3.5474,-3.5474,-3.5489,-3.5504,-3.5504,-3.5504,-3.5504,-3.5504,-3.5504,-3.5504,0.0,0.0,0.0,0.0,0.0,0.0,0.0,0.0,0.0,0.0,0.0,0.0,0.0,0.0,0.0,0.0,0.0,0.0,-0.5833,-0.6567,-0.6859,-0.6575,-0.6653,-0.6606,-0.652,-0.6567,-0.6492,-0.6375,-0.6354,-0.6334,-0.6216,-0.5557,-0.5619,-0.6308,-0.5788,-0.61,-0.6897,-0.5727,-0.5562,-0.6059,-0.6059,-0.6815,-0.7901,0.0,0.0,0.0,0.0,0.0,0.0,0.0,0.0,0.0,-0.8321,-0.8321,-0.8221,-0.8275,-0.8533,-0.8798,-0.8685,-0.9309,0.0,0.0,0.0,0.0,0.0,0.0,0.0,0.0,0.0,0.0,0.0,0.0,0.0,0.0,0.0,0.0,0.0,0.0,0.0,0.0,0.0,0.0,0.0,0.0,0.0,0.0,0.0,0.0,-3.3613,-3.314,-3.2998,-3.3335,-3.3529,-3.3215,-3.2332,-3.2587,-3.2317,-3.1482,-3.1482,-3.1943,-3.2721,-3.2721,-3.2721,-3.2662,-3.1884,-3.1915,-3.2721,-3.2721,-3.3814,-3.5504,-3.5504,-3.5504,-3.5504,-3.5504,-3.5504,-3.5504,0.0,0.0,0.0,0.0,0.0,0.0,0.0,0.0,0.0,0.0,0.0,0.0,0.0,0.0,0.0,0.0,0.0,0.0,0.0,0.0,-0.6816,-0.6447,-0.6435,-0.6459,-0.6484,-0.6612,-0.6701,-0.669,-0.6679,-0.6612,-0.6473,-0.5892,-0.5788,-0.6164,-0.5567,-0.5508,-0.5878,-0.512,-0.5018,-0.5297,-0.5297,-0.595,-0.6874,0.0,0.0,0.0,0.0,0.0,0.0,0.0,0.0,0.0,-0.7883,-0.8049,-0.8221,-0.8275,-0.8533,-0.8791,-0.8685,0.0,0.0,0.0,0.0,0.0,0.0,0.0,0.0,0.0,0.0,0.0,0.0,0.0,0.0,0.0,0.0,0.0,0.0,0.0,0.0,0.0,0.0,0.0,0.0,0.0,0.0,0.0,0.0,-3.2572,-3.3438,-3.2991,-3.2706,-3.2706,-3.2393,-3.2004,-3.1482,-3.1482,-3.1482,-3.1482,-3.1482,-3.1482,-3.1482,-3.1482,-3.1482,-3.1482,-3.1482,-3.1482,-3.1482,-3.1482,-3.2422,-3.3933,-3.3933,-3.3933,-3.3933,-3.3933,-3.4607,-3.5504,0.0,0.0,0.0,0.0,0.0,0.0,0.0,0.0,0.0,0.0,0.0,0.0,0.0,0.0,0.0,0.0,0.0,0.0,0.0,0.0,-0.6816,-0.6435,-0.6173,-0.6194,-0.6556,-0.6675,-0.6726,-0.673,-0.683,-0.6667,-0.6375,-0.6284,-0.6077,-0.5773,-0.5403,-0.5128,-0.4901,-0.5183,-0.5297,-0.5297,-0.5242,-0.5246,-0.5297,-0.5297,0.0,0.0,0.0,0.0,0.0,0.0,0.0,0.0,-0.7289,-0.7729,-0.8221,-0.8321,-0.8474,-0.8626,0.0,0.0,0.0,0.0,0.0,0.0,0.0,0.0,0.0,0.0,0.0,0.0,0.0,0.0,0.0,0.0,0.0,0.0,0.0,0.0,0.0,0.0,0.0,0.0,0.0,0.0,0.0,0.0,-3.2416,-3.2382,-3.3244,-3.2751,-3.2422,-3.2422,-3.1839,-3.1482,-3.1482,-3.1392,-3.1362,-3.1362,-3.1437,-3.1482,-3.1482,-3.1482,-3.1482,-3.1482,-3.1482,-3.1482,-3.1482,-3.1482,-3.1482,-3.1482,-3.1482,-3.1482,-3.1482,-3.1482,-3.3066,-3.5175,0.0,0.0,0.0,0.0,0.0,0.0,0.0,0.0,0.0,0.0,0.0,0.0,0.0,0.0,0.0,0.0,0.0,0.0,0.0,0.0,-0.6647,-0.589,-0.5583,-0.5609,-0.6104,-0.6174,-0.619,-0.6235,-0.6919,-0.714,-0.6931,-0.6463,-0.6158,-0.5832,-0.5014,-0.4739,-0.4901,-0.5183,-0.5297,-0.5242,-0.4853,-0.4908,-0.5297,-0.5297,-0.5297,0.0,0.0,0.0,0.0,0.0,0.0,0.0,-0.7628,-0.7842,-0.8008,-0.8168,-0.8421,-0.8633,0.0,0.0,0.0,0.0,0.0,0.0,0.0,0.0,0.0,0.0,0.0,0.0,0.0,0.0,0.0,0.0,0.0,0.0,0.0,0.0,0.0,0.0,0.0,0.0,0.0,0.0,0.0,0.0,-3.0875,-3.1129,-3.187,-3.1824,-3.1749,-3.1749,-3.1556,-3.1482,-3.1482,-3.0795,-3.0451,-3.0522,-3.1138,-3.1482,-3.1482,-3.1482,-3.1482,-3.1482,-3.1482,-3.1482,-3.1482,-3.1482,-3.1482,-3.1482,-3.1482,-3.1482,-3.1482,-3.1482,-3.1898,-3.2691,0.0,0.0,0.0,0.0,0.0,0.0,0.0,0.0,0.0,0.0,0.0,0.0,0.0,0.0,0.0,0.0,0.0,0.0,0.0,0.0,0.0,-0.5062,-0.4937,-0.5062,-0.5534,-0.5572,-0.5636,-0.5713,-0.6343,-0.6713,-0.6713,-0.6839,-0.6496,-0.5832,-0.5179,-0.4794,-0.4736,-0.5128,-0.5132,-0.4908,-0.4629,-0.4798,-0.5297,-0.5022,-0.5077,-0.5297,-0.5297,0.0,0.0,0.0,0.0,0.0,0.0,0.0,-0.8162,-0.8328,-0.858,-0.8896,0.0,0.0,0.0,0.0,0.0,0.0,0.0,0.0,0.0,0.0,0.0,0.0,0.0,0.0,0.0,0.0,0.0,0.0,0.0,0.0,0.0,0.0,0.0,0.0,0.0,0.0,0.0,-2.9579,-2.9879,-3.0223,-3.0582,-3.0597,-3.0597,-3.0597,-3.0806,-3.0854,-3.0854,-3.081,-3.0537,-2.9924,-3.0372,-3.0253,-2.9639,-2.9639,-3.0328,-3.1482,-3.1482,-3.1482,-3.1482,-3.1482,-3.1482,-3.1482,-3.1482,-3.1482,-3.1482,-3.1482,-3.2332,-3.3455,0.0,0.0,0.0,0.0,0.0,0.0,0.0,0.0,0.0,0.0,0.0,0.0,0.0,0.0,0.0,0.0,0.0,0.0,0.0,0.0,0.0,-0.4364,-0.4412,-0.4631,-0.4941,-0.5024,-0.5125,-0.5252,-0.5533,0.0,0.0,0.0,-0.6864,-0.5555,-0.5293,-0.4963,-0.4684,-0.5022,-0.4908,-0.4519,-0.4574,-0.4908,-0.5242,-0.4798,-0.4908,-0.5297,-0.5297,-0.5297,-0.5297,-0.5297,0.0,0.0,0.0,0.0,-0.8374,-0.8533,-0.885,-0.9159,0.0,0.0,0.0,0.0,0.0,0.0,0.0,0.0,0.0,0.0,0.0,0.0,0.0,0.0,0.0,0.0,0.0,0.0,0.0,0.0,0.0,0.0,0.0,0.0,0.0,0.0,0.0,-2.8704,-2.9116,-2.943,-2.946,-2.9535,-2.9579,-2.9579,-2.9924,-3.0148,-3.0167,-3.0761,-3.0507,-2.946,-2.931,-2.8652,-2.7625,-2.7625,-2.8771,-3.0866,-3.1108,-3.1332,-3.1482,-3.1482,-3.1482,-3.1482,-3.1482,-3.1482,-3.1482,-3.1482,-3.2931,-3.4502,0.0,0.0,0.0,0.0,0.0,0.0,0.0,0.0,0.0,0.0,0.0,0.0,0.0,0.0,0.0,0.0,0.0,0.0,0.0,0.0,0.0,-0.436,-0.432,-0.4447,-0.4661,-0.4626,-0.4785,-0.5148,0.0,0.0,0.0,0.0,0.0,-0.468,0.0,-0.4853,-0.5187,-0.4798,-0.4574,-0.4519,-0.5018,-0.5242,-0.5297,-0.5242,-0.5242,-0.5297,-0.5297,-0.5297,-0.5297,-0.5297,-0.5782,0.0,0.0,0.0,-0.8321,-0.8837,-0.9001,-0.9054,0.0,0.0,0.0,0.0,0.0,0.0,0.0,0.0,0.0,0.0,0.0,0.0,0.0,0.0,0.0,0.0,0.0,0.0,0.0,0.0,0.0,0.0,0.0,0.0,0.0,0.0,0.0,-2.779,-2.8353,-2.8801,-2.8951,-2.9355,-2.9579,-2.9579,-2.9639,-2.9849,-3.0167,-2.94,-2.8981,-2.8951,-2.8255,-2.779,-2.7625,-2.7625,-2.7769,-2.8188,-2.9729,-3.078,-3.1482,-3.1482,-3.1482,-3.1482,-3.1482,-3.1482,-3.1482,-3.1482,-3.1706,-3.1959,0.0,0.0,0.0,0.0,0.0,0.0,0.0,0.0,0.0,0.0,0.0,0.0,0.0,0.0,0.0,0.0,0.0,0.0,0.0,0.0,0.0,-0.432,-0.4316,-0.4272,-0.4276,-0.4364,-0.4418,-0.4434,0.0,0.0,0.0,-0.5281,-0.4787,0.0,0.0,0.0,0.0,-0.4245,-0.4353,-0.4519,-0.4577,-0.4798,-0.5069,-0.5242,-0.5297,-0.5297,-0.5297,-0.5297,-0.5297,-0.5297,-0.5677,-0.6381,-0.7521,0.0,0.0,0.0,0.0,0.0,0.0,0.0,0.0,0.0,0.0,0.0,0.0,0.0,0.0,0.0,0.0,0.0,0.0,0.0,0.0,0.0,0.0,0.0,0.0,0.0,0.0,0.0,0.0,0.0,0.0,0.0,0.0,-2.692,-2.723,-2.7515,-2.759,-2.7799,-2.8068,-2.8442,-2.8457,-2.8547,-2.8742,-2.753,-2.6841,-2.6741,-2.6916,-2.7021,-2.7051,-2.7799,-2.8143,-2.8203,-2.9086,-2.9834,-3.0492,-3.124,-3.1482,-3.1482,-3.1482,-3.1482,-3.1482,-3.1482,-3.1482,-3.1482,0.0,0.0,0.0,0.0,0.0,0.0,0.0,0.0,0.0,0.0,0.0,0.0,0.0,0.0,0.0,0.0,0.0,0.0,0.0,0.0,0.0,-0.4316,-0.4316,-0.4188,-0.3884,-0.41,-0.41,0.0,0.0,0.0,-0.4463,-0.3747,-0.3251,0.0,-0.2845,-0.28,0.0,0.0,0.0,0.0,-0.4132,-0.4353,-0.4736,-0.5018,-0.5187,-0.5297,-0.5297,-0.5297,-0.5297,-0.5297,-0.5572,-0.6119,-0.6982,-0.7681,0.0,0.0,0.0,0.0,0.0,0.0,0.0,0.0,0.0,0.0,0.0,0.0,0.0,0.0,0.0,0.0,0.0,0.0,0.0,0.0,0.0,0.0,0.0,0.0,0.0,0.0,0.0,0.0,0.0,0.0,0.0,-2.6153,-2.6243,-2.6348,-2.6348,-2.6348,-2.6572,-2.7066,-2.7066,-2.7175,-2.7295,-2.6048,-2.539,-2.5347,-2.6004,-2.6512,-2.6871,-2.7709,-2.8173,-2.8353,-2.8667,-2.9101,-2.9654,-3.0642,-3.124,-3.1482,-3.1482,-3.1482,-3.1482,-3.1482,-3.1482,-3.1482,0.0,0.0,0.0,0.0,0.0,0.0,0.0,0.0,0.0,0.0,0.0,0.0,0.0,0.0,-0.5394,-0.5491,0.0,0.0,0.0,0.0,0.0,-0.4316,-0.4316,0.0,-0.3622,-0.384,0.0,0.0,0.0,0.0,-0.446,-0.3299,-0.329,-0.4177,-0.3139,-0.2074,-0.1122,0.0,0.0,0.0,0.0,0.0,-0.4249,-0.4463,-0.4853,-0.5297,-0.5297,-0.5297,-0.5297,-0.5297,-0.5301,-0.5356,-0.5407,-0.6381,-0.7622,0.0,0.0,0.0,0.0,0.0,0.0,0.0,0.0,0.0,0.0,0.0,0.0,0.0,0.0,0.0,0.0,0.0,0.0,0.0,0.0,0.0,0.0,0.0,0.0,0.0,0.0,0.0,0.0,0.0,0.0,-2.5689,-2.5659,-2.5659,-2.5659,-2.5659,-2.5674,-2.5704,-2.5704,-2.5914,-2.6381,-2.5497,-2.5452,-2.6246,-2.5839,-2.6318,-2.755,-2.6946,-2.7036,-2.7715,-2.8323,-2.8981,-2.9594,-2.9654,-3.0417,-3.1482,-3.1482,-3.1482,-3.1482,-3.1482,-3.1482,-3.1482,0.0,0.0,0.0,0.0,0.0,0.0,0.0,0.0,0.0,0.0,0.0,0.0,0.0,-0.4927,-0.4851,-0.4974,-0.4966,0.0,0.0,0.0,0.0,-0.4047,-0.4217,-0.41,-0.3626,-0.3357,0.0,0.0,0.0,-0.3732,-0.3913,-0.3471,-0.3046,-0.2699,-0.309,-0.28,-0.2074,-0.2798,0.0,0.0,0.0,0.0,0.0,0.0,0.0,0.0,0.0,0.0,0.0,-0.5297,-0.5297,-0.5352,-0.5736,-0.6119,-0.6657,-0.7883,0.0,0.0,0.0,0.0,0.0,0.0,0.0,0.0,0.0,0.0,0.0,0.0,0.0,0.0,0.0,0.0,0.0,0.0,0.0,0.0,0.0,0.0,0.0,0.0,0.0,0.0,0.0,0.0,0.0,0.0,-2.4986,-2.4986,-2.4986,-2.4986,-2.5181,-2.56,-2.5615,-2.548,-2.5211,-2.4896,-2.4687,-2.4552,-2.4837,-2.545,-2.6318,-2.6497,-2.6946,-2.7625,-2.7829,-2.8068,-2.8353,-2.9235,-2.934,-2.916,-3.0866,-3.1482,-3.1482,-3.1482,-3.1482,-3.1482,0.0,0.0,0.0,0.0,0.0,0.0,0.0,0.0,0.0,0.0,0.0,0.0,0.0,0.0,-0.4566,-0.4774,-0.4737,-0.4657,-0.4611,-0.4364,-0.4097,-0.3807,-0.3778,-0.3726,-0.3588,0.0,0.0,0.0,0.0,0.0,0.0,-0.3691,-0.3357,-0.2411,-0.2802,-0.297,0.0,0.0,0.0,-0.1905,0.0,0.0,-0.3144,0.0,0.0,0.0,0.0,0.0,0.0,0.0,-0.5297,-0.5407,-0.5905,0.0,0.0,0.0,0.0,0.0,0.0,0.0,0.0,0.0,0.0,0.0,0.0,0.0,0.0,0.0,0.0,0.0,0.0,0.0,0.0,0.0,0.0,0.0,0.0,0.0,0.0,0.0,0.0,0.0,0.0,0.0,0.0,-2.4328,-2.4088,0.0,-2.4268,-2.4088,-2.4268,-2.4911,-2.4941,-2.4717,-2.4283,-2.4283,-2.4059,-2.361,-2.4059,-2.4672,-2.5405,-2.5764,-2.6378,-2.7175,-2.7175,-2.7355,-2.7685,-2.8532,-2.8382,-2.779,-2.952,-3.0208,-3.0208,-3.0208,-3.0761,-3.1482,0.0,0.0,0.0,0.0,0.0,0.0,0.0,0.0,0.0,-0.5193,0.0,0.0,0.0,0.0,0.0,-0.4931,-0.4742,-0.4565,-0.4498,-0.4071,-0.3735,-0.3633,0.0,0.0,0.0,0.0,0.0,0.0,0.0,0.0,0.0,0.0,-0.4135,-0.353,-0.2411,-0.2523,-0.3527,0.0,-0.1629,-0.1347,0.0,-0.2242,-0.3033,0.0,0.0,0.0,-0.4594,-0.4519,0.0,0.0,0.0,0.0,0.0,0.0,0.0,0.0,0.0,0.0,0.0,0.0,0.0,0.0,0.0,0.0,0.0,0.0,0.0,0.0,0.0,0.0,0.0,0.0,0.0,0.0,0.0,0.0,0.0,0.0,0.0,0.0,0.0,0.0,0.0,0.0,0.0,-2.3595,-2.2981,-2.2906,-2.3505,-2.2981,-2.2921,-2.3535,-2.3565,-2.3565,-2.3565,-2.3595,-2.3595,-2.3595,-2.3595,-2.4073,-2.5002,-2.4747,-2.5226,-2.6291,-2.6336,-2.6831,-2.7625,-2.7625,-2.7625,-2.7625,-2.7625,-2.7625,-2.7625,-2.7625,-2.9205,-3.1362,0.0,0.0,0.0,0.0,0.0,0.0,0.0,0.0,0.0,0.0,0.0,0.0,-0.3839,-0.4334,-0.4703,-0.477,-0.4963,-0.4919,-0.4512,-0.4354,-0.4081,-0.3638,-0.3416,-0.3635,0.0,0.0,0.0,0.0,0.0,0.0,0.0,0.0,0.0,0.0,-0.4135,-0.4298,-0.4187,-0.3413,0.0,0.0,-0.1741,-0.1909,0.0,0.0,0.0,0.0,0.0,-0.4519,-0.4519,0.0,-0.4739,-0.5011,0.0,0.0,0.0,0.0,0.0,0.0,-0.9829,0.0,0.0,0.0,0.0,0.0,0.0,0.0,0.0,0.0,0.0,0.0,0.0,0.0,0.0,0.0,0.0,0.0,0.0,0.0,0.0,0.0,0.0,0.0,0.0,0.0,-2.2428,0.0,-2.2069,-2.2039,-2.2218,-2.2054,-2.2173,-2.2637,-2.2832,-2.2936,-2.2936,-2.337,-2.3595,-2.3595,-2.3595,-2.4073,-2.5002,-2.4942,-2.5211,-2.5839,-2.6797,-2.74,-2.7625,-2.7625,-2.7625,-2.7625,-2.7625,-2.7625,-2.7625,-2.7625,-2.8038,-2.8667,0.0,0.0,0.0,0.0,0.0,0.0,-0.5578,-0.5173,-0.4714,0.0,0.0,0.0,0.0,-0.4113,-0.4487,-0.4922,-0.505,-0.4959,-0.4519,-0.4519,-0.4242,-0.3638,-0.3585,-0.3968,-0.4798,0.0,0.0,0.0,0.0,0.0,0.0,0.0,0.0,0.0,0.0,0.0,0.0,0.0,0.0,0.0,-0.1685,0.0,0.0,-0.4519,-0.5284,0.0,0.0,0.0,-0.4858,-0.4604,-0.5062,0.0,0.0,0.0,0.0,0.0,0.0,0.0,0.0,0.0,0.0,0.0,0.0,0.0,-1.1642,-1.1819,0.0,0.0,0.0,0.0,0.0,0.0,0.0,0.0,0.0,0.0,0.0,0.0,0.0,0.0,0.0,0.0,0.0,-2.1695,-2.1695,-2.1695,-2.144,-2.1291,-2.1291,-2.1365,-2.1605,-2.2039,-2.2353,-2.2443,-2.2263,-2.2802,-2.2966,-2.2802,-2.2966,-2.3325,-2.3908,-2.4267,-2.4522,-2.4822,-2.5585,-2.5914,-2.6004,-2.716,-2.7625,-2.7625,-2.7625,-2.7625,-2.7625,-2.7625,-2.7625,-2.7625,0.0,0.0,0.0,-0.49,-0.4882,-0.5018,-0.5023,-0.4844,-0.466,0.0,0.0,0.0,0.0,-0.3747,-0.4082,-0.5132,-0.5014,-0.4736,-0.4519,-0.4574,-0.4301,-0.3749,-0.3694,-0.419,-0.5187,-0.4794,0.0,0.0,0.0,0.0,0.0,0.0,0.0,0.0,0.0,0.0,0.0,0.0,0.0,-0.1233,-0.1684,-0.3237,0.0,0.0,-0.4625,0.0,-0.588,-0.578,-0.5243,-0.47,-0.5664,0.0,0.0,0.0,0.0,0.0,-1.0159,0.0,0.0,0.0,0.0,0.0,0.0,0.0,-1.1769,-1.2147,-1.2472,0.0,0.0,0.0,0.0,0.0,0.0,0.0,0.0,0.0,0.0,0.0,0.0,0.0,0.0,0.0,-2.147,-2.147,-2.147,-2.147,-2.0932,-2.0602,-2.0602,-2.0752,-2.1036,-2.1455,-2.1919,-2.1934,-2.147,-2.1979,-2.2039,-2.1695,-2.2054,-2.2308,-2.2458,-2.3251,-2.3595,-2.3595,-2.3595,-2.3595,-2.3774,-2.6153,-2.7355,-2.7625,-2.7625,-2.7625,-2.7625,-2.7625,-2.7625,-2.7625,0.0,0.0,-0.4941,-0.5091,-0.5025,-0.5075,-0.5211,-0.482,-0.4552,0.0,0.0,0.0,0.0,0.0,-0.4408,-0.4629,-0.4629,-0.4574,-0.4519,-0.4908,-0.4908,-0.4353,-0.4298,-0.4408,-0.4629,-0.4963,-0.5132,0.0,0.0,0.0,0.0,0.0,0.0,0.0,0.0,0.0,0.0,0.0,0.0,-0.3023,-0.2691,0.0,-0.4683,-0.4563,-0.4515,-0.4588,-0.4823,-0.4808,-0.4676,0.0,-0.4736,-0.5391,0.0,0.0,0.0,0.0,0.0,0.0,0.0,0.0,0.0,0.0,0.0,0.0,-1.2783,-1.2957,-1.3178,0.0,0.0,0.0,0.0,0.0,0.0,0.0,0.0,0.0,0.0,0.0,0.0,0.0,0.0,0.0,-2.0079,-2.0079,-2.0079,-2.0079,-1.9959,-1.9884,-1.9884,-1.9914,-1.9989,-2.0079,-2.0842,-2.0872,-2.0094,-2.1231,-2.1769,-2.1695,-2.1784,-2.2353,-2.3355,-2.352,-2.3595,-2.3595,-2.3595,-2.3595,-2.364,-2.4163,-2.563,-2.7625,-2.7625,-2.7625,-2.7625,-2.7625,-2.7625,-2.7625,0.0,0.0,-0.4506,-0.4701,-0.4742,-0.4883,-0.5245,-0.4853,0.0,0.0,0.0,0.0,0.0,0.0,0.0,0.0,-0.4519,-0.4519,-0.4519,-0.4743,-0.4794,-0.4519,-0.4519,-0.4519,-0.4519,-0.5018,-0.5187,0.0,0.0,0.0,0.0,0.0,0.0,0.0,0.0,0.0,0.0,0.0,-0.4967,-0.4245,-0.2181,0.0,-0.4519,-0.4519,-0.4519,-0.4519,-0.4519,-0.4519,-0.4519,-0.4519,-0.4519,0.0,0.0,-0.7147,-0.8317,0.0,-0.9788,-1.0716,0.0,0.0,0.0,-1.2026,0.0,0.0,0.0,-1.3102,-1.3341,-1.4071,-1.5027,0.0,0.0,0.0,0.0,0.0,0.0,0.0,0.0,0.0,0.0,0.0,0.0,0.0,-1.969,-1.969,-1.969,-1.969,-1.969,-1.969,-1.969,-1.969,-1.969,-1.969,-2.0109,-2.0124,-1.969,-2.0363,-2.0692,-2.0692,-2.0692,-2.1021,-2.1695,-2.3011,-2.3595,-2.3595,-2.3595,-2.3595,-2.3595,-2.3595,-2.4388,-2.5585,-2.5585,-2.5585,-2.5585,-2.5585,-2.6422,-2.7625,-0.5004,0.0,0.0,-0.4409,-0.4448,-0.4684,-0.5128,-0.4798,0.0,0.0,0.0,0.0,0.0,0.0,0.0,0.0,0.0,-0.4519,0.0,0.0,0.0,-0.4519,-0.4519,-0.4519,-0.4519,-0.4908,-0.4853,-0.4353,0.0,0.0,0.0,0.0,0.0,0.0,0.0,0.0,0.0,0.0,0.0,-0.5073,0.0,-0.2397,-0.4519,-0.4519,-0.4519,-0.4519,-0.4519,-0.4519,-0.4536,-0.4936,-0.4836,-0.4532,-0.4889,-0.6346,0.0,0.0,0.0,0.0,0.0,0.0,0.0,0.0,0.0,-1.2412,0.0,0.0,0.0,-1.4247,-1.5209,0.0,0.0,0.0,0.0,0.0,0.0,0.0,0.0,0.0,0.0,0.0,0.0,0.0,-1.969,-1.969,-1.969,-1.969,-1.969,-1.969,-1.969,-1.969,-1.969,-1.969,-1.969,-1.969,-1.969,-1.969,-1.969,-1.969,-1.969,-1.969,-1.975,-2.1874,-2.3116,-2.3595,-2.3595,-2.3595,-2.3595,-2.3595,-2.3595,-2.3595,-2.3595,-2.3595,-2.3595,-2.3595,-2.4956,-2.6886,-0.5061,-0.4941,0.0,0.0,-0.4634,-0.4629,-0.4901,-0.468,0.0,0.0,0.0,0.0,0.0,0.0,0.0,0.0,0.0,0.0,-0.4519,0.0,0.0,-0.4519,-0.4519,-0.4519,-0.4519,-0.4574,-0.4298,-0.3694,0.0,0.0,0.0,0.0,0.0,0.0,-0.4794,0.0,0.0,0.0,-0.5354,0.0,-0.4849,-0.4625,0.0,-0.4519,-0.4519,-0.4519,-0.4519,-0.4519,-0.4766,0.0,-0.5984,-0.4748,0.0,-0.6875,-0.7429,0.0,0.0,0.0,0.0,0.0,0.0,0.0,-1.2666,0.0,0.0,0.0,-1.4212,-1.472,0.0,-1.6625,-1.7177,0.0,0.0,0.0,0.0,0.0,0.0,0.0,0.0,0.0,0.0,0.0,-1.969,-1.969,-1.969,-1.969,-1.969,-1.969,-1.969,-1.969,-1.969,-1.969,-1.969,-1.969,-1.969,-1.969,-1.969,-1.969,-1.969,-1.969,-1.969,-1.9989,-2.1395,-2.3595,-2.3595,-2.3595,-2.3595,-2.3595,-2.3595,-2.3595,-2.3595,-2.3595,-2.3595,-2.3595,-2.3789,-2.4388,-0.564,-0.5399,0.0,0.0,-0.4791,-0.4519,-0.4625,-0.457,0.0,0.0,0.0,0.0,0.0,0.0,0.0,0.0,0.0,-0.4896,0.0,0.0,0.0,0.0,0.0,0.0,-0.4519,-0.4798,-0.4522,-0.3585,-0.4082,0.0,0.0,0.0,0.0,0.0,-0.5093,0.0,-0.5309,0.0,0.0,0.0,0.0,0.0,0.0,-0.5329,-0.5118,-0.4519,-0.4519,-0.4519,-0.4612,0.0,-0.5687,0.0,0.0,0.0,0.0,0.0,0.0,0.0,0.0,0.0,0.0,0.0,0.0,0.0,-1.3705,0.0,-1.4351,0.0,0.0,0.0,0.0,0.0,0.0,0.0,-2.0373,0.0,0.0,0.0,0.0,0.0,0.0,0.0,-1.9925,-2.0015,-1.9929,-1.9711,-1.969,-1.969,-1.969,-1.969,-1.969,-1.969,-1.969,-1.969,-1.969,-1.969,-1.969,-1.969,-1.969,-1.969,-1.969,-1.969,-2.0288,-2.1335,-2.1335,-2.2188,-2.3595,-2.3595,-2.3595,-2.3595,-2.3595,-2.3595,-2.3595,-2.3595,-2.3595,-2.3984,-0.5668,0.0,0.0,0.0,0.0,0.0,-0.4353,0.0,0.0,0.0,0.0,0.0,-0.4021,-0.2068,0.0,0.0,0.0,-0.3755,0.0,0.0,-0.4519,-0.4519,-0.4519,0.0,0.0,0.0,-0.4525,-0.386,-0.3694,0.0,0.0,0.0,0.0,0.0,0.0,-0.5317,-0.5301,0.0,0.0,-0.5296,-0.5296,-0.5011,-0.4622,-0.5498,-0.5322,-0.4519,-0.4519,-0.4519,-0.4519,-0.4519,-0.5104,0.0,-0.6224,0.0,0.0,0.0,0.0,0.0,-1.1302,0.0,0.0,0.0,0.0,0.0,0.0,0.0,0.0,0.0,0.0,0.0,0.0,0.0,-1.9609,0.0,0.0,-2.0579,0.0,0.0,0.0,0.0,0.0,0.0,0.0,-2.0224,-2.0104,-1.9818,0.0,-1.969,-1.969,-1.969,-1.969,-1.969,-1.969,-1.969,-1.969,-1.969,-1.969,-1.969,-1.969,-1.969,-1.969,-1.969,-1.969,-1.969,-1.969,-2.0767,-2.2577,-2.3295,-2.3595,-2.3595,-2.3595,-2.3595,-2.3595,-2.3595,-2.3595,-2.3879,-0.4597,-0.4519,0.0,0.0,0.0,0.0,0.0,0.0,0.0,0.0,0.0,0.0,0.0,0.0,0.0,0.0,0.0,-0.0169,-0.0168,0.0,-0.4519,-0.4519,-0.4519,-0.4739,0.0,0.0,0.0,-0.4463,0.0,0.0,0.0,0.0,0.0,0.0,0.0,-0.5297,-0.5305,-0.5374,-0.5397,-0.5397,-0.5397,-0.5044,-0.4519,0.0,-0.4536,-0.4519,-0.4519,0.0,0.0,-0.4519,-0.4529,0.0,0.0,0.0,0.0,0.0,0.0,0.0,0.0,0.0,0.0,-1.1651,0.0,0.0,0.0,0.0,-1.5182,0.0,0.0,0.0,0.0,-1.8977,-1.9579,-2.0376,0.0,0.0,0.0,0.0,0.0,0.0,0.0,0.0,0.0,0.0,0.0,0.0,-1.9869,-1.969,-1.969,-1.969,-1.969,-1.969,-1.969,-1.969,-1.969,-1.969,-1.969,-1.969,-1.969,-1.969,-1.969,-1.969,-1.969,-1.969,-1.969,-1.9735,-2.0004,-2.2562,-2.3595,-2.3595,-2.3595,-2.3595,-2.3595,-2.3595,-2.3595,-2.361,0.0,0.0,0.0,0.0,0.0,0.0,0.0,-0.3527,0.0,0.0,0.0,0.0,0.0,0.0,-0.2193,0.0,0.0,-0.342,-0.3028,-0.3956,0.0,0.0,0.0,-0.4739,0.0,0.0,0.0,0.0,0.0,0.0,0.0,0.0,0.0,0.0,0.0,-0.5297,0.0,0.0,0.0,0.0,0.0,-0.5479,-0.6362,0.0,-0.4519,-0.4519,-0.4519,-0.4519,0.0,-0.4519,-0.4519,-0.4705,-0.5927,-0.6764,-0.7547,-0.8971,-0.9649,-0.9879,0.0,0.0,-1.1124,-1.1931,0.0,0.0,0.0,0.0,0.0,0.0,0.0,0.0,0.0,0.0,-1.9823,-2.0426,-2.0745,0.0,0.0,0.0,0.0,0.0,0.0,0.0,0.0,0.0,0.0,0.0,-1.9854,0.0,-1.969,-1.969,-1.969,-1.969,-1.969,-1.969,-1.969,-1.969,-1.969,-1.969,-1.969,-1.969,-1.969,-1.969,-1.969,-1.969,-1.969,-1.969,-1.975,-2.0647,-2.1006,-2.1186,-2.2921,-2.3595,-2.3595,-2.3595,-2.3595,-2.3595,-0.4467,0.0,0.0,0.0,0.0,0.0,0.0,0.0,0.0,0.0,-0.3191,0.0,-0.3887,0.0,-0.3724,0.0,-0.4207,-0.526,-0.4869,-0.4841,0.0,-0.5411,-0.4841,0.0,0.0,0.0,0.0,0.0,0.0,-0.4445,0.0,0.0,0.0,0.0,0.0,0.0,-0.5659,0.0,-0.449,0.0,0.0,-0.527,0.0,0.0,-0.5386,-0.4625,0.0,-0.5605,-0.5003,-0.5171,-0.5226,-0.5336,-0.5719,-0.6723,-0.7932,-0.9028,-0.9501,-0.9608,-0.9387,-0.9762,0.0,-1.1516,-1.2081,0.0,-1.3678,0.0,0.0,0.0,0.0,0.0,0.0,0.0,0.0,-2.0357,-2.0679,-2.0909,0.0,-2.099,0.0,0.0,0.0,0.0,0.0,0.0,0.0,-2.01,-1.9904,-1.9762,0.0,-1.969,-1.969,-1.969,-1.969,-1.969,-1.969,-1.969,-1.969,-1.969,-1.969,-1.969,-1.969,-1.969,-1.969,-1.969,-1.969,-1.969,-1.969,-1.969,-1.969,-1.9944,-2.2577,-2.3595,-2.3595,-2.3595,-2.3595,-2.3595,0.0,0.0,0.0,0.0,-0.3471,0.0,0.0,0.0,-0.3998,0.0,-0.3463,-0.3928,-0.606,-0.6338,-0.6338,-0.6338,-0.5779,0.0,-0.5428,-0.5428,0.0,0.0,-0.4828,-0.479,-0.537,0.0,0.0,0.0,0.0,0.0,0.0,0.0,0.0,0.0,-0.5297,0.0,-0.6306,-0.5067,-0.4519,-0.4519,-0.457,-0.4632,-0.4916,-0.767,-0.702,-0.5018,-0.7723,-0.7551,-0.614,-0.6583,-0.6696,-0.648,-0.5117,-0.6578,-0.8804,-0.8804,-0.8804,-0.8804,-0.8804,-0.9211,-0.9762,-1.0466,-1.1559,0.0,0.0,0.0,-1.5791,0.0,0.0,0.0,0.0,0.0,0.0,-2.027,-2.0646,-2.0974,0.0,0.0,0.0,0.0,0.0,0.0,0.0,0.0,-2.0392,-2.0135,-2.0025,-1.9919,0.0,-1.9726,-1.9726,-1.969,-1.969,-1.969,-1.969,-1.969,-1.969,-1.969,-1.969,-1.969,-1.969,-1.969,-1.969,-1.969,-1.969,-1.969,-1.969,-1.969,-1.969,-1.9929,-2.2443,-2.3415,-2.3415,-2.355,-2.3595,-2.3595,-0.4298,-0.3968,-0.3527,0.0,-0.3244,-0.3135,0.0,0.0,0.0,0.0,-0.448,-0.5017,-0.614,-0.6338,-0.6338,-0.6338,-0.5779,0.0,0.0,0.0,0.0,-0.4773,-0.4601,-0.4591,-0.4749,-0.471,0.0,-0.5297,0.0,0.0,-0.5297,0.0,0.0,0.0,0.0,0.0,-0.6306,-0.5067,-0.4519,-0.4574,-0.5664,-0.6165,-0.6322,0.0,-0.6963,-0.6692,-0.7025,-0.7557,-0.8096,-0.8209,-0.8209,-0.8156,-0.783,-0.8209,-0.8804,-0.8804,-0.8804,-0.8804,-0.8804,-0.9413,-1.0167,-1.0762,-1.1595,-1.2596,0.0,0.0,0.0,0.0,0.0,0.0,0.0,0.0,0.0,0.0,0.0,0.0,0.0,0.0,0.0,-2.1054,0.0,0.0,0.0,0.0,-2.0323,-2.0308,-2.0115,-1.9919,-1.9726,0.0,-1.9852,-1.969,-1.969,-1.969,-1.969,-1.969,-1.969,-1.969,-1.969,-1.969,-1.969,-1.969,-1.969,-1.969,-1.969,-1.969,-1.969,-1.969,-1.969,-1.975,-2.0423,-2.0692,-2.0932,-2.2877,-2.3595,-2.3595,-0.4132,0.0,0.0,-0.3413,0.0,0.0,-0.3069,0.0,0.0,-0.4833,-0.5228,0.0,-0.6227,-0.6259,-0.6136,-0.5957,-0.5628,0.0,-0.5428,0.0,0.0,-0.4543,-0.4519,-0.4519,-0.4519,-0.4519,0.0,-0.534,0.0,0.0,-0.5751,0.0,0.0,0.0,0.0,-0.6162,0.0,-0.5814,-0.5445,-0.5496,-0.6263,-0.6798,0.0,-0.7469,-0.7541,-0.7533,-0.7555,-0.7883,-0.8374,-0.8699,-0.8804,-0.8804,-0.8804,-0.8804,-0.8804,-0.8804,-0.8804,-0.8804,-0.8804,-0.9465,-1.0312,-1.0813,-1.1657,-1.265,-1.3915,-1.4691,-1.5349,0.0,-1.6967,-1.7947,0.0,0.0,0.0,0.0,0.0,0.0,0.0,0.0,0.0,0.0,-2.1022,0.0,0.0,-2.0527,-2.0323,-2.041,-2.0254,-2.015,-2.003,0.0,-2.0,-1.9869,-2.0047,-1.9989,-1.969,-1.9989,-1.9989,-1.969,-1.969,-1.969,-1.969,-1.969,-1.969,-1.969,-1.969,-1.969,-1.969,-1.969,-1.969,-1.969,-1.969,-1.969,-1.9869,-2.1335,-2.2622,-2.3595,0.0,0.0,0.0,0.0,0.0,0.0,0.0,-0.3944,0.0,-0.5382,0.0,-0.606,-0.6239,-0.6125,-0.5871,-0.5463,0.0,-0.5428,-0.5428,-0.5428,-0.5154,-0.4543,-0.4519,-0.4519,-0.4519,-0.4519,0.0,0.0,0.0,0.0,0.0,0.0,0.0,0.0,0.0,0.0,0.0,-0.714,-0.6965,-0.6858,-0.6804,-0.702,-0.7563,-0.8427,-0.8427,-0.7943,-0.8586,-0.8374,-0.7937,-0.8593,-0.8804,-0.8804,-0.8804,-0.8804,-0.8804,-0.8804,-0.8804,-0.8804,-0.8903,-0.9658,-1.0466,-1.0864,-1.1789,-1.2878,-1.372,-1.4646,-1.5427,-1.5683,-1.7011,-1.8185,-1.8145,0.0,0.0,0.0,0.0,0.0,0.0,0.0,0.0,0.0,0.0,0.0,0.0,0.0,-2.0323,-2.0376,-2.0376,-2.0376,0.0,0.0,-2.0065,-2.003,-2.0384,-2.0333,-1.9824,-2.0318,-2.0318,-1.9824,-1.9735,-1.969,-1.969,-1.969,-1.9639,-1.9603,-1.969,-1.9639,-1.9603,-1.969,-1.969,-1.969,-1.969,-1.969,-1.969,-1.969,-2.1126,-2.3131,0.0,0.0,0.0,0.0,0.0,-0.3046,-0.2848,-0.2717,-0.3398,-0.5426,-0.5731,-0.5796,-0.5834,-0.5957,-0.5871,-0.5463,-0.5428,0.0,0.0,0.0,0.0,-0.4543,-0.4519,-0.4519,-0.4519,-0.4519,-0.457,0.0,0.0,0.0,0.0,0.0,0.0,0.0,0.0,0.0,-0.7553,-0.8676,0.0,-0.8374,-0.7777,-0.7563,-0.7723,-0.848,-0.8699,-0.8646,-0.8752,-0.8699,-0.8646,-0.8752,-0.8804,-0.8804,-0.8804,-0.8804,-0.8804,-0.8804,-0.8804,-0.8903,-0.9467,-1.0442,-1.1325,-1.1566,-1.2608,-1.373,-1.4398,-1.5074,-1.5695,-1.6219,-1.6938,-1.7626,-1.8185,0.0,0.0,0.0,0.0,0.0,0.0,0.0,0.0,0.0,0.0,-2.0392,0.0,0.0,0.0,-2.0323,0.0,0.0,0.0,0.0,-1.9955,0.0,-1.9831,0.0,0.0,0.0,-2.0094,-2.0528,-1.9959,-1.969,-1.969,-1.969,-1.9442,-1.9043,-1.953,-1.9442,-1.908,-1.953,-1.969,-1.969,-1.969,-1.969,-1.969,-1.969,-1.9974,-2.0677,0.0,0.0,0.0,0.0,0.0,0.0,0.0,-0.4438,0.0,-0.5919,-0.5854,-0.5732,-0.5732,-0.5684,-0.5682,-0.5593,-0.549,-0.5428,-0.5428,-0.5428,-0.5154,-0.4543,-0.4519,0.0,-0.4519,-0.4519,-0.4519,-0.4519,0.0,0.0,0.0,0.0,0.0,0.0,0.0,-0.8112,0.0,0.0,0.0,-0.8306,-0.829,-0.8049,-0.7777,-0.8533,-0.8804,-0.8804,-0.8804,-0.8804,-0.8804,-0.8804,-0.8804,-0.8804,-0.8804,-0.8804,-0.8804,-0.8804,-0.9159,-0.9555,-0.974,-1.0965,-1.2246,-1.2297,-1.3062,-1.4054,-1.496,-1.541,-1.5776,-1.638,-1.7146,-1.7987,-1.8855,-1.9479,0.0,0.0,0.0,0.0,0.0,0.0,0.0,0.0,0.0,0.0,0.0,0.0,0.0,0.0,0.0,0.0,0.0,0.0,-1.9995,0.0,0.0,0.0,-2.0183,0.0,-2.0213,-2.0183,-1.9839,-1.969,-1.969,-1.9406,-1.9281,-1.9332,-1.9281,-1.9281,-1.9332,-1.9603,-1.969,-1.969,-1.969,-1.969,-1.969,-1.969,-1.969,-1.9869,0.0,-0.4347,0.0,0.0,-0.5664,0.0,-0.6266,-0.6338,-0.6264,-0.6274,-0.6,-0.58,-0.58,-0.5538,-0.5494,-0.5652,-0.5521,-0.5428,-0.5428,-0.5305,-0.502,-0.4539,-0.4519,-0.4519,-0.4519,-0.4519,-0.4519,0.0,0.0,0.0,0.0,0.0,0.0,0.0,0.0,0.0,0.0,0.0,-0.8086,-0.7875,-0.8543,-0.8427,-0.7996,-0.8586,-0.8804,-0.8804,-0.8804,-0.8804,-0.8804,-0.8804,-0.8804,-0.8804,-0.8804,-0.8804,-0.885,-0.8981,-0.9547,-1.0108,-1.0195,-1.1416,-1.2706,-1.2803,-1.3328,-1.4057,-1.5163,-1.5508,-1.576,-1.638,-1.7353,-1.8419,-1.9479,-1.9726,0.0,0.0,0.0,0.0,0.0,0.0,0.0,0.0,0.0,0.0,-2.0429,0.0,0.0,0.0,0.0,0.0,-2.0338,0.0,0.0,0.0,0.0,-2.0303,-1.9914,0.0,-2.0288,-1.9899,-1.9641,-1.9603,-1.969,-1.9095,-1.9043,-1.9317,-1.9008,-1.917,-1.969,-1.969,-1.969,-1.969,-1.969,-1.969,-1.969,-1.969,-2.0034,-2.0438,0.0,0.0,0.0,0.0,0.0,0.0,-0.6328,-0.6338,-0.6338,-0.6264,-0.5993,-0.58,-0.58,-0.5538,-0.5435,-0.5456,-0.5439,-0.5428,-0.5428,-0.491,-0.4577,-0.4519,-0.4519,-0.4519,-0.4519,-0.4519,-0.4519,0.0,0.0,-0.642,0.0,0.0,0.0,0.0,0.0,0.0,0.0,-0.7703,-0.8224,-0.7501,-0.844,-0.8752,-0.8699,-0.8752,-0.8804,-0.8804,-0.8804,-0.8804,-0.8804,-0.8804,-0.8804,-0.8804,-0.8804,-0.8804,-0.8942,-0.9541,-0.9783,-1.01,-1.1294,-1.1733,-1.208,-1.2715,-1.3331,-1.3975,-1.4641,-1.5236,-1.5776,-1.6386,-1.7353,-1.8419,-1.9479,-1.9726,-1.9726,0.0,0.0,0.0,0.0,0.0,0.0,0.0,0.0,0.0,0.0,-2.017,0.0,0.0,-2.041,0.0,0.0,0.0,0.0,-1.9747,-1.9771,-2.0049,-2.0617,-2.0064,-2.0064,-2.0602,-1.9499,-1.9244,-1.969,-1.8968,-1.8496,-1.8274,-1.8518,-1.9045,-1.969,-1.969,-1.969,-1.969,-1.969,-1.969,-1.969,-1.969,-2.1186,-2.2892,0.0,0.0,0.0,0.0,0.0,0.0,0.0,-0.6338,-0.6257,-0.6022,-0.5838,-0.5708,-0.5722,-0.5504,-0.5428,-0.5428,-0.5428,-0.5274,-0.4906,-0.4652,-0.4519,-0.4519,-0.4519,-0.4519,-0.4519,-0.4519,-0.4519,0.0,0.0,0.0,0.0,0.0,0.0,0.0,0.0,-0.7199,-0.8175,-0.8599,-0.8394,-0.7789,-0.8517,-0.8533,-0.8209,-0.8646,-0.8804,-0.8804,-0.8804,-0.8804,-0.8804,-0.8804,-0.8804,-0.8804,-0.8804,-0.9061,-0.9458,-0.971,-1.0375,-1.1107,-1.1661,-1.2101,-1.2598,-1.3276,-1.3595,-1.4068,-1.5039,-1.544,-1.5768,-1.6367,-1.7353,-1.8419,-1.9479,-1.969,-1.969,-1.969,0.0,0.0,0.0,0.0,0.0,0.0,0.0,0.0,0.0,0.0,0.0,0.0,0.0,0.0,0.0,0.0,0.0,-1.9767,0.0,-1.9824,-2.0094,-1.9824,-1.9824,-2.0094,-1.9612,-1.9479,-1.969,-1.893,-1.8066,-1.7216,-1.8645,-1.9417,-1.969,-1.969,-1.969,-1.969,-1.969,-1.969,-1.969,-1.969,-2.0348,-2.1096,-0.6234,0.0,-0.5935,0.0,-0.6115,-0.6338,-0.6338,-0.6183,-0.608,-0.5931,-0.5838,-0.5704,-0.5708,-0.5498,-0.5428,-0.5428,-0.5264,-0.4979,-0.4546,-0.4519,-0.4519,-0.4519,-0.4519,0.0,-0.4519,-0.4519,-0.4519,-0.4519,-0.4697,0.0,0.0,0.0,0.0,0.0,-0.647,-0.7037,-0.9794,-0.9479,-0.8652,-0.7611,-0.8476,-0.848,-0.8103,-0.8586,-0.8804,-0.8804,-0.8804,-0.8804,-0.8804,-0.8804,-0.8804,-0.8857,-0.9008,-0.9413,-0.9865,-1.0261,-1.1065,-1.1864,-1.208,-1.2501,-1.3017,-1.342,-1.3521,-1.3867,-1.5084,-1.533,-1.5628,-1.6727,-1.7585,-1.8419,-1.9479,-1.969,-1.969,-1.969,0.0,0.0,0.0,0.0,0.0,0.0,-1.969,-1.9762,-1.9884,-1.9919,0.0,0.0,0.0,0.0,0.0,0.0,0.0,0.0,0.0,0.0,-1.969,-1.969,-1.969,-1.969,-1.9369,-1.9281,-1.9332,-1.8419,-1.7422,-1.6637,-1.8765,-1.9332,-1.8765,-1.8765,-1.9132,-1.9639,-1.9006,-1.9132,-1.969,-1.969,-1.969,-1.969,-0.6261,-0.6335,-0.6254,-0.6254,-0.6257,-0.6338,-0.6338,-0.6003,-0.5915,-0.622,-0.5915,-0.5728,-0.5724,-0.5535,-0.5428,-0.5428,-0.4876,-0.4525,-0.4519,-0.4519,-0.4519,0.0,0.0,-0.4519,-0.4519,-0.4519,-0.4519,-0.4519,0.0,0.0,-0.8447,0.0,-0.5428,-0.5491,-0.5428,-0.6351,-0.8112,-0.9832,-0.9022,-0.6756,-0.8215,-0.8804,-0.8804,-0.8804,-0.8804,-0.8804,-0.8804,-0.8804,-0.8804,-0.8804,-0.8804,-0.891,-0.9562,-0.9814,-1.0064,-1.1366,-1.1765,-1.1972,-1.2666,-1.2881,-1.2881,-1.2929,-1.2929,-1.3248,-1.4433,-1.4699,-1.5365,-1.7599,-1.8106,-1.8419,-1.9479,-1.969,-1.969,-1.969,0.0,0.0,0.0,0.0,0.0,0.0,-1.969,-1.969,-1.969,-1.969,0.0,0.0,0.0,0.0,0.0,0.0,0.0,-1.9711,-1.969,0.0,-1.969,-1.969,-1.969,-1.969,-1.8612,-1.8302,-1.8574,-1.7146,-1.6522,-1.6637,-1.8765,-1.8496,-1.6552,-1.6552,-1.7787,-1.9479,-1.7394,-1.7827,-1.969,-1.969,-1.969,-1.969,-0.6338,-0.6338,-0.6338,-0.6338,-0.6338,-0.6338,-0.6338,-0.6176,-0.6,-0.5761,-0.5768,-0.5728,-0.5545,-0.5416,-0.5428,0.0,-0.4869,-0.4519,0.0,-0.4519,-0.4519,-0.4519,-0.4519,-0.4519,-0.4519,-0.4519,-0.4519,-0.4519,0.0,0.0,0.0,-0.6276,-0.6662,-0.8935,-0.8935,-0.9233,-0.9838,-1.0345,-0.9864,-0.8733,-0.8803,-0.8804,-0.8804,-0.8804,-0.8804,-0.8804,-0.8804,-0.8804,-0.8804,-0.8804,-0.9113,-0.9614,-1.0261,-1.0466,-1.0661,-1.1566,-1.2187,-1.2608,-1.2822,-1.2881,-1.2881,-1.2881,-1.2881,-1.32,-1.4433,-1.5353,-1.6336,-1.78,-1.8106,-1.8419,-1.9479,-1.969,-1.969,-1.969,-1.969,0.0,-1.969,0.0,0.0,0.0,-1.969,-1.969,-1.969,-1.969,0.0,0.0,0.0,0.0,0.0,0.0,0.0,0.0,-1.9726,0.0,-1.969,-1.969,-1.969,-1.969,-1.9369,-1.884,-1.8258,-1.8555,-1.7867,-1.6552,-1.7229,-1.7947,-1.8574,-1.7118,-1.6909,-1.7463,-1.6752,-1.6909,-1.7706,-1.9169,-1.969,-1.969,-0.6338,-0.6338,-0.6338,-0.6338,-0.6338,-0.6338,-0.6338,-0.6338,-0.6119,-0.5507,-0.5544,-0.5558,-0.5403,-0.5428,0.0,-0.5106,-0.4738,-0.4519,-0.4519,-0.4519,-0.4519,-0.4519,-0.4519,-0.4519,-0.4519,-0.4519,0.0,-0.4519,-0.527,-0.6345,-0.7632,-0.7442,-0.8544,-1.0624,-1.0624,-1.0624,-1.0624,-1.0624,-1.0409,-0.998,-0.9613,-0.9292,-0.9025,-0.8985,-0.8898,-0.8804,-0.8804,-0.8804,-0.8857,-0.9106,-0.9465,-0.9961,-1.0864,-1.1166,-1.1316,-1.203,-1.2559,-1.2881,-1.2881,-1.2881,-1.2881,-1.2881,-1.2881,-1.32,-1.4433,-1.5611,-1.6795,-1.7867,-1.8106,-1.8419,-1.9479,-1.969,-1.969,-1.969,-1.969,-1.969,-1.969,0.0,-1.969,0.0,0.0,0.0,0.0,-1.969,-1.969,0.0,0.0,0.0,0.0,0.0,-1.9797,-1.9762,-1.9726,-1.969,-1.969,-1.969,-1.969,-1.969,-1.9281,-1.8743,-1.8115,-1.8379,-1.8224,-1.7666,-1.6837,-1.7271,-1.838,-1.7034,-1.6522,-1.6522,-1.6522,-1.6522,-1.668,-1.7987,-1.9006,-1.969,-0.6338,-0.6338,-0.6338,-0.6338,-0.6338,-0.6338,-0.6338,-0.6227,-0.607,-0.5504,-0.5428,-0.5428,-0.5428,-0.5391,-0.5137,-0.4567,0.0,0.0,-0.4519,-0.4519,-0.4519,-0.4519,-0.4519,-0.4519,-0.4519,-0.4519,-0.4522,-0.4588,-0.5981,-0.6831,-0.7279,-0.9442,-1.0491,-1.0624,-1.0624,-1.0624,-1.0624,-1.0624,-1.0624,-1.0618,-1.0537,-1.0027,-0.9399,-0.9259,-0.9038,-0.8804,-0.8804,-0.8804,-0.891,-0.951,-0.9814,-1.0064,-1.1366,-1.1814,-1.2021,-1.2715,-1.2881,-1.2881,-1.2881,-1.2881,-1.2881,-1.2881,-1.2968,-1.3344,-1.4525,-1.5688,-1.6837,-1.7907,-1.8145,-1.8458,-1.953,-1.969,-1.969,-1.969,-1.969,-1.969,-1.969,-1.969,-1.969,0.0,0.0,0.0,-1.969,-1.969,-1.969,0.0,0.0,0.0,0.0,0.0,-1.9919,-1.9726,-1.969,-1.969,-1.969,-1.969,-1.969,-1.969,-1.865,-1.8106,-1.8014,-1.7047,-1.7666,-1.9369,-1.7394,-1.6522,-1.6522,-1.6522,-1.6522,-1.6522,-1.6522,-1.6522,-1.6522,-1.6522,-1.7867,-1.969,0.0,0.0,-0.6338,-0.6338,-0.6338,-0.6338,-0.6338,-0.5943,-0.5593,-0.5449,-0.5428,-0.5428,-0.5428,-0.5013,-0.4673,-0.4529,-0.4519,-0.4519,-0.4519,-0.4519,-0.4519,-0.4519,-0.4519,-0.4519,-0.4519,-0.4519,-0.4849,-0.5482,-0.5378,-0.6375,-0.8386,-0.8972,-0.9716,-1.0624,-1.0624,-1.0624,-1.0624,-1.0624,-1.0624,-1.0544,-0.9586,-0.9379,-0.9566,-0.9092,-0.8871,-0.8804,-0.8804,-0.8804,-0.8804,-0.8956,-0.971,-1.0618,-1.0965,-1.1783,-1.2666,-1.2832,-1.2881,-1.2881,-1.2881,-1.2881,-1.2881,-1.2881,-1.361,-1.4468,-1.5231,-1.6275,-1.7312,-1.7947,-1.8419,-1.8893,-1.9566,-1.969,-1.969,-1.969,-1.969,-1.969,-1.969,-1.969,-1.969,0.0,-1.969,-1.969,-1.969,-1.969,-1.969,0.0,0.0,-1.9848,-1.9726,-1.9884,-1.9919,-1.9726,-1.969,-1.969,-1.969,-1.969,-1.969,-1.969,-1.9043,-1.8363,-1.7695,-1.7719,-1.7544,-1.7229,-1.671,-1.6522,-1.6522,-1.6522,-1.6522,-1.6522,-1.6522,-1.6522,-1.6522,-1.6522,-1.7867,-1.969,-0.6338,-0.6338,-0.6338,-0.6338,-0.6338,-0.6242,-0.5964,-0.5641,-0.5428,-0.5428,-0.5428,-0.5322,-0.5044,-0.4714,-0.4519,-0.4519,-0.4519,-0.4519,-0.4519,-0.4519,-0.4519,-0.4519,-0.4519,-0.4519,-0.4519,-0.4519,-0.4723,-0.52,-0.5801,-0.6773,-0.8049,-0.9152,-0.9882,-1.0301,-1.0544,-1.0624,-1.0624,-1.0624,-1.047,-1.008,-0.9172,-0.9078,-0.9452,-0.9178,-0.8965,-0.8804,-0.8804,-0.8804,-0.8857,-0.9159,-0.9762,-1.0466,-1.1065,-1.1783,-1.2452,-1.2774,-1.2881,-1.2881,-1.2881,-1.2881,-1.2978,-1.3238,-1.4014,-1.488,-1.5454,-1.6287,-1.7146,-1.7947,-1.8341,-1.8765,-1.9566,-1.969,-1.969,-1.969,-1.969,-1.969,-1.969,-1.969,-1.969,-1.969,-1.969,-1.969,-1.969,-1.969,-1.969,-1.969,-1.9797,0.0,-1.9726,-1.9797,-1.9797,-1.969,-1.969,-1.969,-1.969,-1.9442,-1.9207,-1.8968,-1.8419,-1.7815,-1.7106,-1.728,-1.7034,-1.6522,-1.6522,-1.6522,-1.6522,-1.6522,-1.6522,-1.6522,-1.6522,-1.6522,-1.6522,-1.6522,-1.7867,-1.969,-0.6338,-0.6338,-0.6338,-0.6338,-0.6263,-0.6026,-0.5507,-0.5428,-0.5428,-0.5428,-0.5428,-0.5195,-0.4584,-0.4519,-0.4519,-0.4519,-0.4519,-0.4519,-0.4519,-0.4519,-0.4519,-0.4519,-0.4519,-0.4519,-0.4519,-0.4519,-0.4519,-0.4519,-0.6213,-0.7123,-0.7327,-0.9284,-1.0091,-0.9947,-1.0327,-1.0514,-1.0485,-1.0494,-1.0181,-0.964,-0.9065,-0.8958,-0.913,-0.9272,-0.9098,-0.8804,-0.8804,-0.8804,-0.891,-0.9465,-0.971,-1.0012,-1.1266,-1.1715,-1.1922,-1.2666,-1.2881,-1.2881,-1.2881,-1.2881,-1.3065,-1.3779,-1.4329,-1.488,-1.5588,-1.6182,-1.6909,-1.7907,-1.8185,-1.8535,-1.953,-1.969,-1.969,-1.969,-1.969,-1.969,-1.969,0.0,-1.969,-1.969,-1.969,-1.969,-1.969,-1.969,-1.969,-1.969,-1.969,-1.969,-1.969,-1.969,-1.969,-1.969,-1.969,-1.9639,-1.9566,-1.9132,-1.8612,-1.8106,-1.7544,-1.7076,-1.6637,-1.6552,-1.6522,-1.6522,-1.6522,-1.6522,-1.6522,-1.6522,-1.6522,-1.6522,-1.6522,-1.6522,-1.6522,-1.6522,-1.7867,-1.969,-0.6338,-0.6338,-0.6338,-0.6338,-0.5913,-0.5538,-0.5442,-0.5428,-0.5428,-0.5428,-0.5428,-0.5195,-0.4584,-0.4519,-0.4519,-0.4519,-0.4519,-0.4519,-0.4519,-0.4519,-0.4519,-0.4519,-0.4519,-0.4519,-0.4519,-0.4519,-0.4519,-0.4519,-0.4842,-0.6039,-0.8061,-0.8121,-0.8731,-0.974,-1.0047,-1.0177,-1.0103,-1.0065,-0.9955,-0.9671,-0.903,-0.8831,-0.8878,-0.8891,-0.8858,-0.8804,-0.8804,-0.8804,-0.8804,-0.891,-0.9309,-0.9909,-1.0712,-1.1366,-1.1922,-1.2666,-1.2881,-1.2881,-1.2881,-1.2881,-1.3162,-1.4294,-1.4606,-1.4971,-1.6107,-1.6782,-1.7353,-1.7987,-1.8458,-1.8968,-1.9603,-1.969,-1.969,-1.969,-1.969,-1.969,-1.969,0.0,-1.969,-1.969,-1.969,-1.969,-1.969,-1.969,-1.969,-1.969,-1.969,-1.969,-1.969,-1.969,-1.969,-1.969,-1.969,-1.9479,-1.9043,-1.893,-1.8612,-1.8106,-1.7544,-1.7271,-1.7146,-1.671,-1.6522,-1.6522,-1.6522,-1.6522,-1.6522,-1.6522,-1.6522,-1.6522,-1.6522,-1.6522,-1.6522,-1.6522,-1.7867,-1.969,-0.6338,-0.6338,-0.6338,-0.6338,-0.5834,-0.5428,-0.5428,-0.5428,-0.5428,-0.5428,-0.5428,-0.5195,-0.4584,-0.4519,-0.4519,-0.4519,-0.4519,-0.4519,-0.4519,-0.4519,-0.4519,-0.4519,-0.4519,-0.4519,-0.4519,-0.4519,-0.4519,-0.4519,-0.4519,-0.5266,-0.6734,-0.7349,-0.7971,-0.8664,-0.9084,-0.9573,-1.0023,-0.998,-0.984,-0.948,-0.9011,-0.8804,-0.8804,-0.8804,-0.8804,-0.8804,-0.8804,-0.8804,-0.8804,-0.8804,-0.9263,-0.9917,-1.0568,-1.1266,-1.1922,-1.2666,-1.2881,-1.2881,-1.2881,-1.2881,-1.32,-1.4387,-1.4698,-1.5017,-1.6194,-1.668,-1.7034,-1.7544,-1.7867,-1.8224,-1.8727,-1.8855,-1.893,-1.9207,-1.9281,-1.9369,-1.9639,-1.969,-1.969,-1.969,-1.969,-1.969,-1.969,-1.969,-1.969,-1.969,-1.969,-1.969,-1.969,-1.969,-1.969,-1.969,-1.9406,-1.9169,-1.8893,-1.8341,-1.7907,-1.7666,-1.7105,-1.6879,-1.6879,-1.6595,-1.6522,-1.6522,-1.6522,-1.6522,-1.6522,-1.6522,-1.6522,-1.6522,-1.6522,-1.6522,-1.6522,-1.6522,-1.7867,-1.969,-0.6311,-0.6225,-0.6125,-0.6125,-0.5737,-0.5428,-0.5428,-0.5308,-0.5267,-0.5411,-0.5428,-0.525,-0.4779,-0.4604,-0.4519,-0.4519,-0.4519,-0.4519,-0.4519,-0.4519,-0.4519,-0.4519,-0.4519,-0.4519,-0.4519,-0.4519,-0.4519,-0.4519,-0.4519,-0.4787,-0.5277,-0.6758,-0.7537,-0.7741,-0.8426,-0.9092,-0.9706,-0.98,-0.9613,-0.9232,-0.8925,-0.8804,-0.8804,-0.8804,-0.8804,-0.8804,-0.8804,-0.8804,-0.8804,-0.8804,-0.9159,-0.9666,-1.0364,-1.0914,-1.1516,-1.2403,-1.2774,-1.2881,-1.2881,-1.2881,-1.32,-1.4387,-1.4698,-1.5017,-1.6194,-1.6522,-1.6637,-1.7188,-1.7312,-1.7463,-1.7987,-1.8106,-1.8224,-1.865,0.0,-1.8893,-1.9442,-1.953,-1.9566,-1.969,-1.969,-1.969,-1.969,-1.969,-1.969,-1.969,-1.969,-1.969,-1.969,-1.969,-1.9639,-1.953,-1.9132,-1.8855,-1.8727,-1.7787,-1.7229,-1.7118,-1.671,-1.6522,-1.6522,-1.6522,-1.6522,-1.6522,-1.6522,-1.6522,-1.6522,-1.6522,-1.6522,-1.6522,-1.6522,-1.6522,-1.6522,-1.6522,-1.7867,-1.969,-0.6228,-0.5882,-0.5497,-0.5497,-0.5459,-0.5428,-0.5428,-0.4948,-0.4786,-0.5356,-0.5428,-0.5411,-0.5367,-0.4855,-0.4519,-0.4519,-0.4519,-0.4519,-0.4519,-0.4519,-0.4519,-0.4519,-0.4519,-0.4519,-0.4519,-0.4519,-0.4519,-0.4519,-0.4519,-0.4515,-0.4625,-0.651,-0.749,-0.7735,-0.8741,-0.9077,-0.8918,-0.9279,-0.9212,-0.8844,-0.8818,-0.8804,-0.8804,-0.8804,-0.8804,-0.8804,-0.8804,-0.8804,-0.8804,-0.8804,-0.8857,-0.9008,-0.9666,-0.9917,-1.0218,-1.1516,-1.2344,-1.2881,-1.2881,-1.2881,-1.32,-1.4387,-1.4698,-1.5017,-1.6194,-1.6522,-1.6637,-1.7188,-1.7312,-1.7463,-1.7987,-1.8106,-1.8106,-1.8145,0.0,0.0,-1.8893,-1.8968,-1.9132,-1.9639,-1.969,-1.969,-1.969,-1.969,-1.969,-1.969,-1.969,-1.969,-1.969,-1.969,-1.9479,-1.8968,-1.893,-1.865,-1.8185,-1.7585,-1.7034,-1.6552,-1.6522,-1.6522,-1.6522,-1.6522,-1.6522,-1.6522,-1.6522,-1.6522,-1.6522,-1.6522,-1.6522,-1.6522,-1.6522,-1.6522,-1.6522,-1.6522,-1.7867,-1.969,-0.5727,-0.5586,-0.5428,-0.5428,-0.5428,-0.5428,-0.5428,-0.491,-0.4601,-0.4834,-0.5191,-0.5428,-0.5428,-0.5222,-0.4931,-0.4553,-0.4519,-0.4519,-0.4519,-0.4519,-0.4519,-0.4519,-0.4519,-0.4519,-0.4519,-0.4519,-0.4519,-0.4519,-0.5391,-0.566,-0.5382,-0.6421,-0.7182,-0.7729,-0.8099,-0.8565,-0.9072,-0.9045,-0.9085,-0.9145,-0.8905,-0.8951,-0.9145,-0.8898,-0.8918,-0.9051,-0.8871,-0.8804,-0.8804,-0.8804,-0.9061,-0.951,-1.0218,-1.072,-1.1216,-1.2197,-1.2666,-1.2881,-1.2881,-1.2881,-1.32,-1.4387,-1.4698,-1.5017,-1.6194,-1.6522,-1.6552,-1.6752,-1.6795,-1.6879,-1.7076,-1.7118,-1.7229,-1.7544,0.0,-1.7907,-1.8779,-1.8893,-1.9095,-1.9639,-1.969,-1.969,-1.969,-1.969,-1.969,-1.969,-1.969,-1.969,-1.969,-1.9369,-1.9132,-1.8893,-1.8263,-1.7827,-1.7626,-1.7076,-1.671,-1.6522,-1.6522,-1.6522,-1.6522,-1.6522,-1.6522,-1.6522,-1.6522,-1.6522,-1.6522,-1.6522,-1.6522,-1.6522,-1.6522,-1.6522,-1.6522,-1.6522,-1.7867,-1.969,-0.5428,-0.5428,-0.5367,-0.5178,-0.5143,-0.5143,-0.5143,-0.4786,-0.4519,-0.4519,-0.5051,-0.5428,-0.5428,-0.5257,-0.4972,-0.4553,-0.4519,-0.4519,-0.4519,-0.4519,-0.4519,-0.4519,-0.4519,-0.4519,-0.4519,-0.4519,-0.4952,-0.5873,-0.5932,-0.6095,-0.6357,-0.6691,-0.7128,-0.7616,-0.7937,-0.8422,-0.9037,-0.8891,-0.9011,-0.9312,-0.8951,-0.9025,-0.9305,-0.8945,-0.8931,-0.9024,-0.8878,-0.8804,-0.8824,-0.8911,-0.9189,-0.9577,-1.0135,-1.0853,-1.1616,-1.2344,-1.2725,-1.2881,-1.2881,-1.2881,-1.32,-1.4387,-1.4698,-1.5017,-1.6194,-1.6522,-1.6522,-1.6522,-1.6522,-1.6522,-1.6522,-1.6522,-1.6637,-1.6993,-1.7034,-1.7435,-1.8496,-1.865,-1.8893,-1.9603,-1.969,-1.969,-1.969,-1.969,-1.969,-1.969,-1.969,-1.9639,-1.9442,-1.893,-1.8574,-1.8419,-1.7504,-1.7034,-1.7034,-1.668,-1.6522,-1.6522,-1.6522,-1.6522,-1.6522,-1.6522,-1.6522,-1.6522,-1.6522,-1.6522,-1.6522,-1.6522,-1.6522,-1.6522,-1.6522,-1.6522,-1.6595,-1.7271,-1.8458,-1.969,-0.5428,-0.5428,-0.5236,-0.4625,-0.4519,-0.4519,-0.4519,-0.4522,-0.4522,-0.4519,-0.5051,-0.5428,-0.5428,-0.4886,-0.4522,-0.4519,-0.4519,-0.4519,-0.4519,-0.4519,-0.4519,-0.4519,-0.4519,-0.4519,-0.4519,-0.4519,-0.5873,-0.8752,-0.5928,-0.5496,-0.7402,-0.7402,-0.7402,-0.7461,-0.8374,-0.8804,-0.8804,-0.8804,-0.8971,-0.9157,-0.8925,-0.8978,-0.9157,-0.8918,-0.8811,-0.8811,-0.8811,-0.8811,-0.8851,-0.909,-0.9051,-0.8864,-0.9145,-0.9969,-1.0965,-1.1616,-1.2344,-1.2881,-1.2881,-1.2881,-1.32,-1.4387,-1.4698,-1.5017,-1.6194,-1.6522,-1.6522,-1.6522,-1.6522,-1.6522,-1.6522,-1.6522,-1.6522,-1.6522,-1.6522,-1.6879,-1.7947,-1.8106,-1.8496,-1.9566,-1.969,-1.969,-1.969,-1.969,-1.969,-1.969,-1.969,-1.9442,-1.893,-1.838,-1.7867,-1.7312,-1.6795,-1.6522,-1.6522,-1.6522,-1.6522,-1.6522,-1.6522,-1.6522,-1.6522,-1.6522,-1.6522,-1.6522,-1.6522,-1.6522,-1.6522,-1.6522,-1.6522,-1.6522,-1.6522,-1.6522,-1.6752,-1.8893,-1.969,-1.969,-0.5428,-0.5428,-0.5236,-0.4625,-0.4519,-0.4519,-0.4519,-0.4882,-0.5003,-0.4573,-0.5051,-0.5428,-0.5428,-0.5267,-0.4982,-0.4556,-0.4519,-0.4519,-0.4519,-0.4519,-0.4519,-0.4519,-0.4519,-0.4519,-0.4519,-0.4519,-0.4897,-0.5764,-0.6956,-0.783,-0.8374,-0.8374,-0.8374,-0.8374,-0.8699,-0.8804,-0.8804,-0.8804,-0.8858,-0.8931,-0.8844,-0.9025,-0.9325,-0.9172,-0.9057,-0.9084,-0.9345,-0.9285,-0.907,-0.9157,-0.913,-0.9248,-1.0053,-1.0853,-1.1616,-1.2344,-1.2715,-1.2881,-1.2881,-1.2881,-1.32,-1.4387,-1.4698,-1.5017,-1.6194,-1.6522,-1.6522,-1.6522,-1.6522,-1.6522,-1.6522,-1.6522,-1.6647,-1.7061,-1.6785,-1.6893,-1.8007,-1.7825,-1.7787,-1.8496,-1.8893,-1.9132,-1.9132,-1.9479,-1.969,-1.969,-1.9369,-1.908,-1.8893,-1.8027,-1.7463,-1.7312,-1.6795,-1.6522,-1.6522,-1.6522,-1.6522,-1.6522,-1.6522,-1.6522,-1.6522,-1.6522,-1.6522,-1.6522,-1.6522,-1.6522,-1.6522,-1.6522,-1.6522,-1.6522,-1.6522,-1.6522,-1.6752,-1.8893,-1.969,-1.969,-0.5428,-0.5428,-0.5312,-0.4941,-0.4879,-0.4879,-0.4879,-0.5191,-0.5294,-0.4927,-0.5198,-0.5336,-0.5095,-0.5284,-0.5181,-0.457,-0.4519,-0.4519,-0.4519,-0.4519,-0.4519,-0.4519,-0.5605,-0.6199,-0.6199,-0.6199,-0.6199,-0.6199,-0.7937,-0.8804,-0.8804,-0.8804,-0.8804,-0.8804,-0.8804,-0.8804,-0.8804,-0.8804,-0.8945,-0.9145,-0.9025,-0.9192,-0.9486,-0.9305,-0.9183,-0.921,-0.9446,-0.9392,-0.9203,-0.9379,-0.9339,-0.9398,-1.0474,-1.1065,-1.1625,-1.2618,-1.2881,-1.2881,-1.2881,-1.2881,-1.3104,-1.4107,-1.4514,-1.5017,-1.6194,-1.6522,-1.6522,-1.6522,-1.6522,-1.6522,-1.6522,-1.6522,-1.6635,-1.6986,-1.6748,-1.6794,-1.7728,-1.7549,-1.7504,-1.8027,-1.838,-1.8574,-1.8574,-1.8893,-1.908,-1.908,-1.8765,-1.8496,-1.8302,-1.7666,-1.7188,-1.6993,-1.668,-1.6522,-1.6522,-1.6522,-1.6522,-1.6522,-1.6522,-1.6522,-1.6522,-1.6522,-1.6522,-1.6522,-1.6522,-1.6522,-1.6522,-1.6522,-1.6522,-1.6522,-1.6522,-1.7034,-1.7907,-1.9207,-1.969,-1.969,-0.5428,-0.5428,-0.5428,-0.5428,-0.5428,-0.5428,-0.5428,-0.5428,-0.5428,-0.5428,-0.5428,-0.5216,-0.4659,-0.5095,-0.5181,-0.457,-0.4519,-0.4519,-0.4519,-0.4519,-0.4519,-0.4519,-0.7015,-0.8427,-0.8427,-0.8646,-0.8804,-0.8804,-0.8804,-0.8864,-0.8965,-0.8965,-0.8911,-0.8804,-0.8804,-0.8804,-0.8804,-0.8804,-0.9118,-0.9579,-0.9312,-0.9379,-0.9619,-0.9372,-0.9223,-0.923,-0.9283,-0.9283,-0.9303,-0.9599,-0.9543,-0.9453,-1.0474,-1.0864,-1.1174,-1.251,-1.2881,-1.2881,-1.2881,-1.2881,-1.3065,-1.3637,-1.419,-1.4926,-1.6151,-1.6479,-1.6522,-1.6522,-1.6522,-1.6534,-1.6584,-1.6559,-1.6547,-1.666,-1.6584,-1.6693,-1.7225,-1.7269,-1.7435,-1.7907,-1.7987,-1.8027,-1.8027,-1.8066,-1.8106,-1.8106,-1.8066,-1.7827,-1.7353,-1.7229,-1.6993,-1.6522,-1.6522,-1.6522,-1.6522,-1.6522,-1.6522,-1.6522,-1.6522,-1.6522,-1.6522,-1.6522,-1.6522,-1.6522,-1.6522,-1.6522,-1.6522,-1.6522,-1.6522,-1.6522,-1.6522,-1.7827,-1.969,-1.969,-1.969,-1.969,-0.5428,-0.5428,-0.5428,-0.5428,-0.5428,-0.5428,-0.5428,-0.5428,-0.5428,-0.5428,-0.5428,-0.5377,-0.5246,-0.5349,-0.5181,-0.457,-0.4519,-0.4519,-0.4519,-0.4519,-0.4519,-0.4519,-0.5117,-0.5441,-0.5441,-0.7664,-0.8804,-0.8804,-0.8804,-0.9279,-1.018,-1.018,-0.9686,-0.8804,-0.8804,-0.8804,-0.8804,-0.8804,-0.8878,-0.8991,-0.8925,-0.9078,-0.9352,-0.9526,-0.9586,-0.9646,-1.0107,-1.012,-0.99,-0.974,-0.9869,-1.0147,-1.0629,-1.1166,-1.1774,-1.2618,-1.2881,-1.2881,-1.2881,-1.2881,-1.3065,-1.3637,-1.3909,-1.4318,-1.5499,-1.6151,-1.6522,-1.6522,-1.6522,-1.666,-1.7112,-1.6823,-1.681,-1.7702,-1.7099,-1.6716,-1.7302,-1.6959,-1.671,-1.6837,-1.7229,-1.7463,-1.7463,-1.7867,-1.8106,-1.8106,-1.7706,-1.7435,-1.7312,-1.6909,-1.6637,-1.6522,-1.6522,-1.6522,-1.6522,-1.6522,-1.6522,-1.6522,-1.6522,-1.6522,-1.6522,-1.6522,-1.6522,-1.6522,-1.6522,-1.6522,-1.6522,-1.6522,-1.6522,-1.6522,-1.6522,-1.7827,-1.969,-1.969,-1.969,-1.969,-0.5428,-0.5428,-0.5428,-0.5428,-0.5428,-0.5428,-0.5428,-0.5181,-0.5099,-0.5391,-0.5174,-0.4996,-0.4996,-0.4996,-0.4865,-0.4546,-0.4519,-0.4519,-0.4519,-0.4519,-0.4519,-0.4519,-0.4519,-0.4652,-0.4944,-0.6126,-0.7444,-0.8804,-0.8804,-0.9118,-0.9726,-0.9726,-0.9392,-0.8804,-0.8804,-0.8804,-0.8804,-0.8804,-0.8884,-0.9011,-0.9011,-0.905,-0.9203,-0.9412,-0.9472,-0.9532,-0.998,-1.004,-0.9866,-0.9573,-0.9701,-1.0091,-1.0272,-1.1015,-1.1864,-1.2236,-1.2608,-1.2881,-1.2881,-1.2881,-1.2968,-1.3286,-1.36,-1.405,-1.496,-1.5644,-1.6125,-1.6382,-1.6734,-1.7099,-1.7664,-1.7526,-1.7513,-1.8103,-1.7702,-1.7338,-1.7375,-1.7124,-1.6823,-1.6547,-1.6752,-1.6909,-1.6909,-1.7146,-1.7353,-1.7353,-1.7076,-1.6909,-1.6909,-1.6637,-1.6522,-1.6522,-1.6522,-1.6522,-1.6522,-1.6522,-1.6522,-1.6522,-1.6522,-1.6522,-1.6522,-1.6522,-1.6522,-1.6522,-1.6522,-1.6522,-1.6522,-1.6522,-1.6522,-1.6522,-1.6522,-1.7827,-1.969,-1.969,-1.969,-1.969,-0.5291,-0.5274,-0.5305,-0.5411,-0.5343,-0.5274,-0.5274,-0.4841,-0.47,-0.5205,-0.4831,-0.4519,-0.4519,-0.4519,-0.4519,-0.4519,-0.4611,-0.4628,-0.4525,-0.4519,-0.4519,-0.4519,-0.4618,-0.491,-0.5418,-0.4931,-0.5854,-0.8208,-0.8135,-0.8141,-0.8208,-0.8825,-0.8998,-0.8804,-0.8804,-0.8804,-0.8804,-0.8804,-0.8945,-0.911,-0.911,-0.9143,-0.9183,-0.9183,-0.9243,-0.9369,-0.9673,-0.976,-0.9713,-0.9419,-0.954,-0.9888,-0.9829,-1.0712,-1.1814,-1.1814,-1.2344,-1.2881,-1.2881,-1.2881,-1.2881,-1.2881,-1.3286,-1.38,-1.4345,-1.5062,-1.573,-1.63,-1.6916,-1.7576,-1.8229,-1.8267,-1.8242,-1.8329,-1.8267,-1.8016,-1.7463,-1.7388,-1.7162,-1.6584,-1.6522,-1.6522,-1.6522,-1.6522,-1.6522,-1.6522,-1.6522,-1.6522,-1.6522,-1.6522,-1.6522,-1.6522,-1.6522,-1.6522,-1.6522,-1.6522,-1.6522,-1.6522,-1.6522,-1.6522,-1.6522,-1.6522,-1.6522,-1.6522,-1.6522,-1.6522,-1.6522,-1.6522,-1.6522,-1.6522,-1.6522,-1.7827,-1.969,-1.969,-1.969,-1.969,-0.4745,-0.4642,-0.4807,-0.5336,-0.4989,-0.4642,-0.4642,-0.457,-0.4549,-0.4628,-0.457,-0.4519,-0.4519,-0.4519,-0.4519,-0.4519,-0.4999,-0.5082,-0.4553,-0.4519,-0.4519,-0.4519,-0.5023,-0.5343,-0.5425,-0.5346,-0.5496,-0.5879,-0.5351,-0.5362,-0.5944,-0.8925,-0.978,-0.8804,-0.8804,-0.8804,-0.8804,-0.8804,-0.8831,-0.8864,-0.8864,-0.9018,-0.9183,-0.9183,-0.9495,-1.0,-1.0047,-1.006,-1.0013,-0.9719,-0.9918,-1.0195,-0.9903,-1.0712,-1.1814,-1.1814,-1.2344,-1.2881,-1.2881,-1.2881,-1.2881,-1.2881,-1.2968,-1.3115,-1.3571,-1.4671,-1.573,-1.63,-1.6916,-1.7702,-1.8731,-1.853,-1.8355,-1.8844,-1.8518,-1.8016,-1.7463,-1.7388,-1.7162,-1.6584,-1.6522,-1.6522,-1.6522,-1.6522,-1.6522,-1.6522,-1.6522,-1.6522,-1.6522,-1.6522,-1.6522,-1.6522,-1.6522,-1.6522,-1.6522,-1.6522,-1.6522,-1.6522,-1.6522,-1.6522,-1.6522,-1.6522,-1.6522,-1.6522,-1.6522,-1.6522,-1.6522,-1.6522,-1.6522,-1.6522,-1.6522,-1.7827,-1.969,-1.969,-1.969,-1.969,-0.5013,-0.5027,-0.5003,-0.4931,-0.4697,-0.4519,-0.4519,-0.4519,-0.4519,-0.4519,-0.4519,-0.4519,-0.4519,-0.4519,-0.4519,-0.4519,-0.4762,-0.4803,-0.4536,-0.4519,-0.467,-0.5013,-0.5284,-0.5428,-0.5428,-0.5199,-0.5196,-0.5428,-0.4817,-0.4831,-0.5488,-0.8652,-0.9619,-0.8818,-0.8978,-0.8958,-0.8804,-0.8804,-0.8804,-0.8804,-0.8804,-0.8884,-0.9018,-0.9123,-0.9299,-0.9406,-0.9566,-0.9568,-0.9548,-0.9479,-0.9666,-0.9903,-0.9404,-1.0415,-1.1665,-1.0914,-1.1742,-1.2822,-1.2393,-1.2608,-1.2881,-1.2881,-1.2881,-1.293,-1.3115,-1.3926,-1.4978,-1.6428,-1.7264,-1.7909,-1.8675,-1.8307,-1.7965,-1.8201,-1.8358,-1.8177,-1.735,-1.7582,-1.7513,-1.6622,-1.6522,-1.6522,-1.6522,-1.6194,-1.6139,-1.6466,-1.6194,-1.6139,-1.6466,-1.6522,-1.6522,-1.6522,-1.6522,-1.6522,-1.6522,-1.6522,-1.6522,-1.6522,-1.6522,-1.6522,-1.6522,-1.6522,-1.6522,-1.6522,-1.6522,-1.6522,-1.6522,-1.6522,-1.6522,-1.6637,-1.7827,-1.8855,-1.9639,-1.9043,-1.9207,-1.9603]},{"header":{"parameterUnit":"m.s-1","parameterCategory":1,"la1":30.6,"la2":28.766,"lo1":-90.7593,"lo2":-88.6598,"dy":0.0162,"dx":0.0183,"nx":116,"ny":114,"refTime":"2023-05-18T00:00:00:Z","depth":0,"parameterNumber":3,"parameterNumberName":"V-component_of_WINDS"},"data":[0.0,0.0,0.0,0.0,0.0,0.0,0.0,0.0,0.0,0.0,0.0,0.0,0.0,0.0,0.0,0.0,0.0,0.0,0.0,0.0,0.0,0.0,0.0,0.0,0.0,0.0,0.0,0.0,0.0,0.0,0.0,0.0,0.0,0.0,0.0,0.0,0.0,0.0,0.0,0.0,0.0,0.0,0.0,0.0,0.0,0.0,0.0,0.0,0.0,0.0,0.0,0.0,0.0,0.0,0.0,0.0,0.0,0.0,0.0,0.0,0.0,0.0,0.0,0.0,0.0,0.0,0.0,0.0,0.0,0.0,0.0,0.0,0.0,0.0,0.0,0.0,0.0,0.0,0.0,0.0,0.0,0.0,0.0,0.0,0.0,0.0,0.0,0.0,0.0,0.0,0.0,0.0,0.0,0.0,0.0,0.0,0.0,0.0,0.0,0.0,0.0,0.0,0.0,0.0,0.0,0.0,0.0,0.0,0.0,0.0,0.0,0.0,0.0,0.0,0.0,0.0,0.0,0.0,0.0,0.0,0.0,0.0,0.0,0.0,0.0,0.0,0.0,0.0,0.0,0.0,0.0,0.0,0.0,0.0,0.0,0.0,0.0,0.0,0.0,0.0,0.0,0.0,0.0,0.0,0.0,0.0,0.0,0.0,0.0,0.0,0.0,0.0,0.0,0.0,0.0,0.0,0.0,0.0,0.0,0.0,0.0,0.0,0.0,0.0,0.0,0.0,0.0,0.0,0.0,0.0,0.0,0.0,0.0,0.0,0.0,0.0,0.0,0.0,0.0,0.0,0.0,0.0,0.0,0.0,0.0,0.0,0.0,0.0,0.0,0.0,0.0,0.0,0.0,0.0,0.0,0.0,0.0,0.0,0.0,0.0,0.0,0.0,0.0,0.0,0.0,0.0,0.0,0.0,0.0,0.0,0.0,0.0,0.0,0.0,0.0,0.0,0.0,0.0,0.0,0.0,0.0,0.0,0.0,0.0,0.0,0.0,0.0,0.0,0.0,0.0,0.0,0.0,0.0,0.0,0.0,0.0,0.0,0.0,0.0,0.0,0.0,0.0,0.0,0.0,0.0,0.0,0.0,0.0,0.0,0.0,0.0,0.0,0.0,0.0,0.0,0.0,0.0,0.0,0.0,0.0,0.0,0.0,0.0,0.0,0.0,0.0,0.0,0.0,0.0,0.0,0.0,0.0,0.0,0.0,0.0,0.0,0.0,0.0,0.0,0.0,0.0,0.0,0.0,0.0,0.0,0.0,0.0,0.0,0.0,0.0,0.0,0.0,0.0,0.0,0.0,0.0,0.0,0.0,0.0,0.0,0.0,0.0,0.0,0.0,0.0,0.0,0.0,0.0,0.0,0.0,0.0,0.0,0.0,0.0,0.0,0.0,0.0,0.0,0.0,0.0,0.0,0.0,0.0,0.0,0.0,0.0,0.0,0.0,0.0,0.0,0.0,0.0,0.0,0.0,0.0,0.0,0.0,0.0,0.0,0.0,0.0,0.0,0.0,0.0,0.0,0.0,0.0,0.0,0.0,0.0,0.0,0.0,0.0,0.0,0.0,0.0,0.0,0.0,0.0,0.0,0.0,0.0,0.0,0.0,0.0,0.0,0.0,0.0,0.0,0.0,0.0,0.0,0.0,0.0,0.0,0.0,0.0,0.0,0.0,0.0,0.0,0.0,0.0,0.0,0.0,0.0,0.0,0.0,0.0,0.0,0.0,0.0,0.0,0.0,0.0,0.0,0.0,0.0,0.0,0.0,0.0,0.0,0.0,0.0,0.0,0.0,0.0,0.0,0.0,0.0,0.0,0.0,0.0,0.0,0.0,0.0,0.0,0.0,0.0,0.0,0.0,0.0,0.0,0.0,0.0,0.0,0.0,0.0,0.0,0.0,0.0,0.0,0.0,0.0,0.0,0.0,0.0,0.0,0.0,0.0,0.0,0.0,0.0,0.0,0.0,0.0,0.0,0.0,0.0,0.0,0.0,0.0,0.0,0.0,0.0,0.0,0.0,0.0,0.0,0.0,0.0,0.0,0.0,0.0,0.0,0.0,0.0,0.0,0.0,0.0,0.0,0.0,0.0,0.0,0.0,0.0,0.0,0.0,0.0,0.0,0.0,0.0,0.0,0.0,0.0,0.0,0.0,0.0,0.0,0.0,0.0,0.0,0.0,0.0,0.0,0.0,0.0,0.0,0.0,0.0,0.0,0.0,0.0,0.0,0.0,0.0,0.0,0.0,0.0,0.0,0.0,0.0,0.0,0.0,0.0,0.0,0.0,0.0,0.0,0.0,0.0,0.0,0.0,0.0,0.0,0.0,0.0,0.0,0.0,0.0,0.0,0.0,0.0,0.0,0.0,0.0,0.0,0.0,0.0,0.0,0.0,0.0,0.0,0.0,0.0,0.0,0.0,0.0,0.0,0.0,0.0,0.0,0.0,0.0,0.0,0.0,0.0,0.0,0.0,0.0,0.0,0.0,0.0,0.0,0.0,0.0,0.0,0.0,0.0,0.0,0.0,0.0,0.0,0.0,0.0,0.0,0.0,0.0,0.0,0.0,0.0,0.0,0.0,0.0,0.0,0.0,0.0,0.0,0.0,0.0,0.0,0.0,0.0,0.0,0.0,0.0,0.0,0.0,0.0,0.0,0.0,0.0,0.0,0.0,0.0,0.0,0.0,0.0,0.0,0.0,0.0,0.0,0.0,0.0,0.0,0.0,0.0,0.0,0.0,0.0,0.0,0.0,0.0,0.0,0.0,0.0,0.0,0.0,0.0,0.0,0.0,0.0,0.0,0.0,0.0,0.0,0.0,0.0,0.0,0.0,0.0,0.0,0.0,0.0,0.0,0.0,0.0,0.0,0.0,0.0,0.0,0.0,0.0,0.0,0.0,0.0,0.0,0.0,0.0,0.0,0.0,0.0,0.0,0.0,0.0,0.0,0.0,0.0,0.0,0.0,0.0,0.0,0.0,0.0,0.0,0.0,0.0,0.0,0.0,0.0,0.0,0.0,0.0,0.0,0.0,0.0,0.0,0.0,0.0,0.0,0.0,0.0,0.0,0.0,0.0,0.0,0.0,0.0,0.0,0.0,0.0,0.0,0.0,0.0,0.0,0.0,0.0,0.0,0.0,0.0,0.0,0.0,0.0,0.0,0.0,0.0,0.0,0.0,0.0,0.0,0.0,0.0,0.0,0.0,0.0,0.0,0.0,0.0,0.0,0.0,0.0,0.0,0.0,0.0,0.0,0.0,0.0,0.0,0.0,0.0,0.0,0.0,0.0,0.0,0.0,0.0,0.0,0.0,0.0,0.0,0.0,0.0,0.0,0.0,0.0,0.0,0.0,0.0,0.0,0.0,0.0,0.0,0.0,0.0,0.0,0.0,0.0,0.0,0.0,0.0,0.0,0.0,0.0,0.0,0.0,0.0,0.0,0.0,0.0,0.0,0.0,0.0,0.0,0.0,0.0,0.0,0.0,0.0,0.0,0.0,0.0,0.0,0.0,0.0,0.0,0.0,0.0,0.0,0.0,0.0,0.0,0.0,0.0,0.0,0.0,0.0,0.0,0.0,0.0,0.0,0.0,0.0,0.0,0.0,0.0,0.0,0.0,0.0,0.0,0.0,0.0,0.0,0.0,0.0,0.0,0.0,0.0,0.0,0.0,0.0,0.0,0.0,0.0,0.0,0.0,0.0,0.0,0.0,0.0,0.0,0.0,0.0,0.0,0.0,0.0,0.0,0.0,0.0,0.0,0.0,0.0,0.0,0.0,0.0,0.0,0.0,0.0,0.0,0.0,0.0,0.0,0.0,0.0,0.0,0.0,0.0,0.0,0.0,0.0,0.0,0.0,0.0,0.0,0.0,0.0,0.0,0.0,0.0,0.0,0.0,0.0,0.0,0.0,0.0,0.0,0.0,0.0,0.0,0.0,0.0,0.0,0.0,0.0,0.0,0.0,0.0,0.0,0.0,0.0,0.0,0.0,0.0,0.0,0.0,0.0,0.0,0.0,0.0,0.0,0.0,0.0,0.0,0.0,0.0,0.0,0.0,0.0,0.0,0.0,0.0,0.0,0.0,0.0,0.0,0.0,0.0,0.0,0.0,0.0,0.0,0.0,0.0,0.0,0.0,0.0,0.0,0.0,0.0,0.0,0.0,0.0,0.0,0.0,0.0,0.0,0.0,0.0,0.0,0.0,0.0,0.0,0.0,0.0,0.0,0.0,0.0,0.0,0.0,0.0,0.0,0.0,0.0,0.0,0.0,0.0,0.0,0.0,0.0,0.0,0.0,0.0,0.0,0.0,0.0,0.0,0.0,0.0,0.0,0.0,0.0,0.0,0.0,0.0,0.0,0.0,0.0,0.0,0.0,0.0,0.0,0.0,0.0,0.0,0.0,0.0,0.0,0.0,0.0,0.0,0.0,0.0,0.0,0.0,0.0,0.0,0.0,0.0,0.0,0.0,0.0,0.0,0.0,0.0,0.0,0.0,0.0,0.0,0.0,0.0,0.0,0.0,0.0,0.0,0.0,0.0,0.0,0.0,0.0,0.0,0.0,0.0,0.0,0.0,0.0,0.0,0.0,0.0,0.0,0.0,0.0,0.0,0.0,0.0,0.0,0.0,0.0,0.0,0.0,0.0,0.0,0.0,0.0,0.0,0.0,0.0,0.0,0.0,0.0,0.0,0.0,0.0,0.0,0.0,0.0,0.0,0.0,0.0,0.0,0.0,0.0,0.0,0.0,0.0,0.0,0.0,0.0,0.0,0.0,0.0,0.0,0.0,0.0,0.0,0.0,0.0,0.0,0.0,0.0,0.0,0.0,0.0,0.0,0.0,0.0,0.0,0.0,0.0,0.0,0.0,0.0,0.0,0.0,0.0,0.0,0.0,0.0,0.0,0.0,0.0,0.0,0.0,0.0,0.0,0.0,0.0,0.0,0.0,0.0,0.0,0.0,0.0,0.0,0.0,0.0,0.0,0.0,0.0,0.0,0.0,0.0,0.0,0.0,0.0,0.0,0.0,0.0,0.0,0.0,0.0,0.0,0.0,0.0,0.0,0.0,0.0,0.0,0.0,0.0,0.0,0.0,0.0,0.0,0.0,0.0,0.0,0.0,0.0,0.0,0.0,0.0,0.0,0.0,0.0,0.0,0.0,0.0,0.0,0.0,0.0,0.0,0.0,0.0,0.0,0.0,0.0,0.0,0.0,0.0,0.0,0.0,0.0,0.0,0.0,0.0,0.0,0.0,0.0,0.0,0.0,0.0,0.0,0.0,0.0,0.0,0.0,0.0,0.0,0.0,0.0,0.0,0.0,0.0,0.0,0.0,0.0,0.0,0.0,0.0,0.0,0.0,0.0,0.0,0.0,0.0,0.0,0.0,0.0,0.0,0.0,0.0,0.0,0.0,0.0,0.0,0.0,0.0,0.0,0.0,0.0,0.0,0.0,0.0,0.0,0.0,0.0,0.0,0.0,0.0,0.0,0.0,0.0,0.0,0.0,0.0,0.0,0.0,0.0,0.0,0.0,0.0,0.0,0.0,0.0,0.0,0.0,0.0,0.0,0.0,0.0,0.0,0.0,0.0,0.0,0.0,0.0,0.0,0.0,0.0,0.0,0.0,0.0,0.0,0.0,0.0,0.0,0.0,0.0,0.0,0.0,0.0,0.0,0.0,0.0,0.0,0.0,0.0,0.0,0.0,0.0,0.0,0.0,0.0,0.0,0.0,0.0,0.0,0.0,0.0,0.0,0.0,0.0,0.0,0.0,0.0,0.0,0.0,0.0,0.0,0.0,0.0,0.0,0.0,0.0,0.0,0.0,0.0,0.0,0.0,0.0,0.0,0.0,0.0,0.0,0.0,0.0,0.0,0.0,0.0,0.0,0.0,0.0,0.0,0.0,0.0,0.0,0.0,0.0,0.0,0.0,0.0,0.0,0.0,0.0,0.0,0.0,0.0,0.0,0.0,0.0,0.0,0.0,0.0,0.0,0.0,0.0,0.0,0.0,0.0,0.0,0.0,0.0,0.0,0.0,0.0,0.0,0.0,0.0,0.0,0.0,0.0,0.0,0.0,0.0,0.0,0.0,0.0,0.0,0.0,0.0,0.0,-0.9545,0.0,0.0,0.0,0.0,0.0,0.0,0.0,0.0,0.0,0.0,0.0,0.0,0.0,0.0,0.0,0.0,0.0,0.0,0.0,0.0,0.0,0.0,0.0,0.0,0.0,0.0,0.0,0.0,0.0,0.0,0.0,0.0,0.0,0.0,0.0,0.0,0.0,0.0,0.0,-1.3985,-1.4107,-1.4444,-1.4781,-1.5238,-1.5813,0.0,0.0,0.0,0.0,0.0,0.0,0.0,0.0,0.0,0.0,0.0,0.0,0.0,0.0,0.0,0.0,0.0,0.0,0.0,0.0,0.0,0.0,0.0,0.0,0.0,0.0,0.0,0.0,0.0,0.0,0.0,0.0,0.0,0.0,0.0,0.0,0.0,0.0,0.0,0.0,0.0,0.0,0.0,0.0,0.0,0.0,0.0,0.0,0.0,0.0,0.0,0.0,0.0,0.0,0.0,0.0,0.0,0.0,0.0,0.0,0.0,0.0,0.0,0.0,0.0,0.0,0.0,0.0,0.0,0.0,0.0,-0.9922,0.0,0.0,0.0,0.0,0.0,0.0,0.0,0.0,0.0,0.0,0.0,0.0,0.0,0.0,0.0,0.0,0.0,0.0,0.0,0.0,0.0,0.0,0.0,0.0,0.0,0.0,0.0,0.0,0.0,0.0,0.0,0.0,0.0,0.0,0.0,0.0,0.0,0.0,-1.4098,-1.4316,-1.5301,-1.6213,-1.675,-1.7003,-1.8084,0.0,0.0,0.0,0.0,0.0,0.0,0.0,0.0,0.0,0.0,0.0,0.0,0.0,0.0,0.0,0.0,0.0,0.0,0.0,0.0,0.0,0.0,0.0,0.0,0.0,0.0,0.0,0.0,0.0,0.0,0.0,0.0,0.0,0.0,0.0,0.0,0.0,0.0,0.0,0.0,0.0,0.0,0.0,0.0,0.0,0.0,0.0,0.0,0.0,0.0,0.0,0.0,0.0,0.0,0.0,0.0,0.0,0.0,0.0,0.0,0.0,0.0,0.0,-1.2068,-1.1998,-1.308,-1.1473,-1.0732,-1.0732,-1.0732,-1.0732,-1.0672,-0.9654,0.0,0.0,0.0,0.0,0.0,0.0,0.0,0.0,0.0,0.0,0.0,0.0,0.0,0.0,0.0,0.0,0.0,0.0,0.0,0.0,0.0,0.0,-1.3895,-1.3883,-1.2972,0.0,0.0,0.0,0.0,0.0,0.0,0.0,0.0,-1.5594,-1.5611,-1.5632,-1.5533,-1.6049,-1.7158,-1.8334,-1.8959,-1.9027,-1.773,-1.7826,-1.8872,0.0,0.0,0.0,0.0,0.0,0.0,0.0,0.0,0.0,0.0,0.0,0.0,0.0,0.0,0.0,0.0,0.0,0.0,0.0,0.0,0.0,0.0,0.0,0.0,0.0,0.0,0.0,0.0,0.0,0.0,0.0,0.0,0.0,0.0,0.0,0.0,0.0,0.0,0.0,0.0,0.0,-1.2468,-1.2453,0.0,0.0,0.0,0.0,0.0,0.0,0.0,0.0,0.0,0.0,0.0,0.0,0.0,-1.384,-1.5805,-1.5733,-1.5783,-1.602,-1.577,-1.4716,-1.2943,-1.2671,-1.2539,-1.2539,-1.2539,0.0,-1.2422,-1.0784,0.0,0.0,0.0,0.0,0.0,0.0,0.0,0.0,0.0,0.0,0.0,0.0,0.0,0.0,0.0,0.0,0.0,0.0,0.0,0.0,0.0,-1.5489,-1.5318,-1.5311,-1.5401,-1.5196,0.0,0.0,0.0,0.0,0.0,0.0,0.0,-1.538,-1.5132,-1.5179,-1.7233,-1.839,-1.8763,-1.9869,-2.0607,-2.0961,-1.9662,-1.9062,-1.8963,-1.8501,0.0,0.0,0.0,0.0,0.0,0.0,0.0,0.0,0.0,0.0,0.0,0.0,0.0,0.0,0.0,0.0,0.0,0.0,0.0,0.0,0.0,0.0,0.0,0.0,0.0,0.0,0.0,0.0,0.0,0.0,0.0,0.0,0.0,0.0,0.0,0.0,0.0,0.0,0.0,-1.3983,-1.4178,-1.3323,-1.37,-1.4065,0.0,0.0,0.0,0.0,0.0,0.0,0.0,0.0,0.0,-1.7421,-1.7074,-1.7388,-1.8355,-1.8355,-1.8355,-1.8355,-1.8355,-1.78,-1.6765,-1.5485,-1.4926,-1.4994,-1.6256,-1.5284,-1.2822,-1.2106,-1.0951,-0.9732,0.0,0.0,0.0,0.0,-0.8275,-0.7572,0.0,0.0,0.0,0.0,0.0,0.0,0.0,0.0,0.0,0.0,0.0,0.0,-1.6499,-1.6505,-1.668,-1.7339,-1.7608,-1.727,-1.617,0.0,0.0,0.0,0.0,0.0,-1.653,-1.6161,-1.6175,-1.6637,-1.953,-2.1066,-2.1309,-2.2184,-2.2872,-2.3382,-2.2619,-2.1338,-1.9717,-1.925,-1.859,-1.7879,0.0,0.0,0.0,0.0,0.0,0.0,0.0,0.0,0.0,0.0,0.0,0.0,0.0,0.0,0.0,0.0,0.0,0.0,0.0,0.0,0.0,0.0,0.0,0.0,0.0,0.0,0.0,0.0,0.0,0.0,0.0,0.0,0.0,0.0,0.0,0.0,0.0,-1.5058,-1.5407,-1.4653,-1.4606,-1.4874,0.0,0.0,0.0,0.0,0.0,0.0,-1.8683,-2.3679,-2.4985,-2.1829,-2.1037,-2.0652,-2.0652,-2.0652,-2.0363,-1.9798,-1.9798,-1.9798,-1.9748,-1.8103,-1.7363,-1.7451,-1.9095,-1.7415,-1.3496,-1.3057,-1.2119,-1.1006,-1.1296,-1.0846,-0.9982,-0.9982,-0.9358,-0.8429,0.0,0.0,0.0,0.0,0.0,0.0,0.0,0.0,0.0,0.0,0.0,-1.4799,-1.7278,-1.6905,-1.7465,-1.9896,-1.8678,-1.808,-1.8755,-1.7292,-1.6682,-1.7331,-1.733,-1.7614,-1.8261,-1.9164,-2.0372,-2.1928,-2.2806,-2.4038,-2.5587,-2.6116,-2.6445,-2.6637,-2.6405,-2.4596,-2.1625,-1.9904,-1.9084,-1.8912,-1.8789,0.0,0.0,0.0,0.0,0.0,0.0,0.0,0.0,0.0,0.0,0.0,0.0,0.0,0.0,0.0,0.0,0.0,0.0,0.0,0.0,0.0,0.0,0.0,0.0,0.0,0.0,0.0,0.0,0.0,0.0,0.0,0.0,0.0,0.0,0.0,0.0,0.0,0.0,-1.6769,-1.6362,0.0,0.0,0.0,0.0,-1.5712,-1.8007,-2.164,-2.6707,-2.4664,-2.452,-2.7121,-2.4442,-2.2902,-2.2902,-2.2902,-2.1907,-1.9798,-1.9798,-1.9798,-1.9798,-1.9685,-1.9635,-1.9648,-1.9748,-1.8097,-1.5156,-1.3545,-1.2832,-1.2754,-1.2793,-1.2745,-1.2696,-1.2696,-1.2648,-1.2241,0.0,0.0,0.0,0.0,0.0,0.0,0.0,0.0,0.0,-1.5486,-1.5884,-1.6891,-1.8926,-1.949,-2.0084,-2.0999,-2.1121,-2.0557,-1.9156,-1.8934,-1.8459,0.0,0.0,0.0,-1.858,-2.0638,-2.1848,-2.2168,-2.4209,-2.5596,-2.6375,-2.6653,-2.6762,-2.67,-2.6636,-2.5972,-2.478,-2.2575,-2.126,-2.0517,-1.8872,-1.852,0.0,0.0,0.0,0.0,0.0,0.0,0.0,0.0,0.0,0.0,0.0,0.0,0.0,0.0,0.0,0.0,0.0,0.0,0.0,0.0,0.0,0.0,0.0,0.0,0.0,0.0,0.0,0.0,0.0,0.0,0.0,0.0,0.0,0.0,0.0,0.0,0.0,-1.8629,-1.9679,0.0,-2.0101,-1.813,-1.7225,-1.8104,-2.2282,-2.5631,-2.752,-2.6573,-2.5631,-2.4741,-2.5522,-2.5078,-2.3138,-2.3078,-2.2677,-2.1945,-2.1945,-2.1945,-2.1907,-2.0464,-1.9798,-1.9798,-1.9798,-1.8155,-1.5361,-1.4766,-1.4512,-1.4394,-1.3311,-1.2881,-1.3018,-1.4102,-1.3818,-1.2774,0.0,0.0,0.0,0.0,0.0,0.0,0.0,0.0,0.0,-1.5065,-1.6421,-1.7947,-1.9431,-2.0736,-2.1872,-2.2738,-2.2641,-2.1914,-2.0477,-1.9983,-1.9353,0.0,-1.9017,0.0,0.0,-2.2293,-2.36,-2.3694,-2.5861,-2.7242,-2.7824,-2.7959,-2.7938,-2.7824,-2.7824,-2.7824,-2.7695,-2.5823,-2.3895,-2.1917,-2.0242,-1.9831,-2.0085,0.0,0.0,0.0,0.0,0.0,0.0,0.0,0.0,0.0,0.0,0.0,0.0,0.0,0.0,0.0,0.0,0.0,0.0,0.0,0.0,0.0,0.0,0.0,0.0,0.0,0.0,0.0,0.0,0.0,0.0,0.0,0.0,0.0,0.0,0.0,-2.0161,-2.0586,-2.2028,-2.2864,-2.2515,-2.1332,-2.0938,-2.1739,-2.621,-2.8712,-2.8329,-2.7786,-2.6614,-2.4697,-2.5577,-2.5134,-2.3138,-2.3078,-2.3078,-2.3078,-2.3078,-2.3078,-2.3002,-2.0815,-2.0213,-2.0878,-2.0125,-1.8155,-1.541,-1.541,-1.541,-1.5244,-1.3545,-1.2881,-1.3086,-1.4785,-1.4336,-1.2774,0.0,0.0,0.0,0.0,0.0,0.0,0.0,0.0,0.0,-1.354,-1.5702,-1.7776,-1.8724,-2.0504,-2.263,-2.5178,-2.3074,-2.1971,-2.2833,-2.0394,-1.9209,0.0,0.0,0.0,-2.2369,-2.4255,-2.5768,-2.686,-2.7937,-2.9045,-3.0191,-3.0252,-3.0246,-3.0246,-3.0246,-3.0246,-3.0191,-2.9415,-2.6848,-2.3235,-2.2993,-2.2213,-2.1078,0.0,0.0,0.0,0.0,0.0,0.0,0.0,0.0,0.0,0.0,0.0,0.0,0.0,0.0,0.0,0.0,0.0,0.0,0.0,0.0,0.0,0.0,0.0,0.0,0.0,0.0,0.0,0.0,0.0,0.0,0.0,0.0,0.0,-1.9779,-2.037,-2.1272,-2.2682,-2.34,-2.4044,-2.4672,-2.5764,-2.6441,-2.6441,-2.9594,-3.0971,-2.9669,-2.8154,-2.7371,-2.7604,-2.4865,-2.3261,-2.3078,-2.3078,-2.3078,-2.3078,-2.3078,-2.3078,-2.3002,-2.0891,-2.1079,-2.2952,-2.0765,-1.8155,-1.541,-1.541,-1.541,-1.5254,-1.3603,-1.293,-1.3086,-1.4727,-1.4287,-1.252,0.0,0.0,0.0,0.0,0.0,0.0,0.0,0.0,-1.5116,-1.4286,-1.7442,-1.9744,-1.9668,-2.2284,-2.4394,-2.5245,-2.3044,-2.1941,-2.2777,-2.0306,0.0,0.0,0.0,0.0,-2.4366,-2.5595,-2.6866,-2.8256,-2.9133,-2.9883,-3.0494,-3.1091,-3.1256,-3.1072,-3.1072,-3.1072,-3.1091,-3.1458,-3.065,-2.8888,-2.6515,-2.529,-2.4701,0.0,0.0,0.0,0.0,0.0,0.0,0.0,0.0,0.0,0.0,0.0,0.0,0.0,0.0,0.0,0.0,0.0,0.0,0.0,0.0,0.0,0.0,0.0,0.0,0.0,0.0,0.0,0.0,0.0,0.0,0.0,0.0,-2.1804,-2.1734,-2.3178,-2.4747,-2.6063,-2.7245,-2.8008,-2.8203,-2.8771,-2.9146,-2.9146,-3.0627,-3.1049,-3.0103,-2.8414,-2.7543,-2.7575,-2.8604,-2.7211,-2.315,-2.3078,-2.3078,-2.3078,-2.3078,-2.3078,-2.3053,-2.2439,-2.2489,-2.2952,-2.0765,-1.8155,-1.541,-1.541,-1.541,-1.5361,-1.4902,-1.3965,-1.2939,-1.3408,-1.3281,-1.2774,0.0,0.0,0.0,0.0,0.0,0.0,0.0,0.0,-1.5232,-1.3581,-1.7628,-2.0079,-1.8583,-2.1746,-2.3922,-2.3717,-2.2726,-2.198,-2.1684,0.0,0.0,0.0,0.0,-2.4602,-2.6663,-2.7336,-2.8447,-3.0067,-3.0265,-3.0904,-3.1964,-3.2432,-3.2558,-3.2412,-3.2761,-3.2724,-3.2449,-3.3275,-3.355,-3.3311,-3.177,-3.0241,-2.8628,-2.6595,-2.5909,-2.5868,-2.4396,-2.4277,-2.4538,-2.2643,0.0,0.0,0.0,0.0,0.0,0.0,0.0,0.0,0.0,0.0,0.0,0.0,0.0,0.0,0.0,0.0,0.0,0.0,0.0,0.0,0.0,0.0,0.0,0.0,-2.3278,-2.4911,-2.5418,-2.6048,-2.6931,-2.8263,-2.9116,-2.9684,-2.9939,-3.0133,-3.0332,-3.069,-3.1183,-3.1258,-3.075,-2.9789,-2.922,-2.922,-3.0731,-2.993,-2.6654,-2.5236,-2.4054,-2.3078,-2.3078,-2.3078,-2.3078,-2.3078,-2.3078,-2.3002,-2.1757,-1.9689,-1.7169,-1.5911,-1.541,0.0,0.0,0.0,0.0,0.0,-1.3486,-1.2881,0.0,0.0,0.0,0.0,0.0,0.0,0.0,0.0,-1.53,-1.2305,-1.6876,-1.9291,-1.6356,-1.9783,-2.2076,-2.1537,-2.2015,-2.1702,0.0,0.0,0.0,-2.284,-2.4618,-2.6651,-2.8935,-2.9295,-3.0266,-3.1888,-3.1411,-3.211,-3.3842,-3.3952,-3.3999,-3.41,-3.4835,-3.4761,-3.4137,-3.5055,-3.5862,-3.6652,-3.7533,-3.5791,-3.2528,-3.1217,-3.0982,-3.1084,-2.8782,-2.7713,-2.721,-2.6112,0.0,0.0,0.0,0.0,0.0,0.0,0.0,0.0,0.0,0.0,0.0,0.0,0.0,0.0,0.0,0.0,0.0,0.0,0.0,0.0,0.0,0.0,0.0,0.0,-2.6108,-2.8263,-2.9609,-2.8831,-2.8547,-2.9669,-2.9864,-3.0103,-3.0567,-3.0567,-3.075,-3.1422,-3.1482,-3.1482,-3.1482,0.0,0.0,0.0,0.0,-3.1482,-3.1482,-2.8182,-2.5473,-2.3514,-2.3514,-2.3514,-2.3502,-2.3251,-2.3078,-2.3078,-2.3078,-2.2008,-1.9927,-1.6705,-1.541,-1.541,-1.541,-1.541,-1.5391,-1.5195,-1.418,-1.2881,0.0,0.0,0.0,0.0,0.0,0.0,0.0,0.0,-1.5386,-1.3007,-1.6514,-1.8173,-1.5376,-1.8227,-2.0625,-2.1359,-2.0287,-1.9678,0.0,0.0,-2.2637,-2.4599,-2.679,-2.8621,-3.0061,-3.124,-3.2019,-3.2362,-3.2732,-3.3339,-3.413,-3.4847,-3.5399,-3.5826,-3.5973,-3.5954,-3.5899,-3.7367,-3.8083,-3.8358,-3.9827,-3.8438,-3.5494,-3.5182,-3.4724,-3.3973,-3.2224,-3.2334,-3.291,-3.0051,-2.9728,-2.9915,-2.6354,0.0,0.0,0.0,0.0,0.0,0.0,0.0,0.0,0.0,0.0,0.0,0.0,0.0,0.0,0.0,0.0,0.0,0.0,0.0,0.0,-2.5873,-2.785,-2.9654,-3.0971,-3.139,-3.1465,-3.1195,-3.1629,-3.1779,-3.1375,-3.1885,-3.2049,-3.1511,-3.1482,-3.1482,-3.1482,-3.1482,-3.1482,-3.1482,-3.1482,-3.1482,-3.1482,-2.8182,-2.6319,-2.5812,0.0,0.0,-2.5749,-2.3954,-2.3078,-2.3078,-2.3078,-2.2827,-2.2101,-1.736,-1.541,-1.541,-1.541,-1.541,-1.5244,-1.3877,-1.3164,-1.2881,0.0,0.0,0.0,0.0,0.0,0.0,0.0,0.0,-1.5607,-1.4106,-1.6453,-1.7625,-1.5984,-1.7732,-1.9298,-1.9893,-1.9498,0.0,0.0,-2.275,-2.4595,-2.6333,-2.8556,-3.0503,-3.2072,-3.2222,-3.2655,-3.3354,-3.3248,-3.3682,-3.4626,-3.5483,-3.603,-3.634,-3.7551,-3.7881,-3.7606,-3.9221,-3.99,-4.001,-4.1222,-4.0744,-3.9258,-3.8854,-3.8432,-3.7833,-3.6248,-3.5917,-3.5881,-3.3508,-3.2629,-3.2067,-2.9278,-2.7442,-2.5687,0.0,0.0,0.0,0.0,0.0,0.0,0.0,0.0,0.0,0.0,0.0,0.0,0.0,0.0,-2.2888,0.0,0.0,-2.763,-2.8914,-3.0462,-3.1764,-3.2422,-3.2617,-3.2632,-3.2527,-3.2811,-3.2796,-3.2184,-3.2781,-3.2706,-3.1556,-3.2766,-3.3514,-3.3514,-3.3514,-3.2916,-3.1511,-3.1482,-3.1482,-3.1482,-2.8182,-2.6533,-2.6533,-2.6533,-2.6533,-2.6496,-2.531,-2.4795,-2.4732,-2.3627,-2.3078,-2.2797,-1.8468,-1.6709,-1.6709,-1.6709,-1.6182,-1.5312,-1.4463,-1.415,-1.415,0.0,0.0,0.0,0.0,0.0,0.0,0.0,0.0,0.0,-1.4983,-1.6182,-1.6888,-1.6338,-1.7038,-1.7727,-1.8151,0.0,0.0,0.0,-2.453,-2.6497,-2.7923,-3.011,-3.2072,-3.3686,-3.2921,-3.3056,-3.42,-3.351,-3.3876,-3.5275,-3.5973,-3.6541,-3.7074,-3.9019,-3.9625,-3.9258,-4.0726,-4.135,-4.1405,-4.2213,-4.2525,-4.2451,-4.1644,-4.135,-4.113,-3.9515,-3.8212,-3.7095,-3.5954,-3.4341,-3.264,-3.1561,-2.9913,-2.7716,-2.4169,-2.2671,0.0,0.0,0.0,0.0,0.0,0.0,0.0,0.0,0.0,-2.4171,-2.4112,-2.467,-2.583,-2.8036,-2.9447,-3.0593,-3.1719,-3.2811,-3.3529,-3.3619,-3.332,-3.3305,-3.3814,-3.3649,-3.326,-3.2587,-3.338,-3.344,-3.2392,-3.4292,-3.5504,-3.5504,-3.5504,-3.4517,-3.2377,-3.2302,-3.1738,-3.0524,-2.7855,-2.6533,-2.6533,-2.6533,-2.6533,-2.6533,-2.6533,-2.6533,-2.6433,-2.4556,-2.3778,-2.3517,-1.9959,-1.8506,-1.8477,-1.8135,-1.7148,-1.5869,-1.5537,-1.541,-1.541,0.0,0.0,0.0,0.0,0.0,0.0,0.0,0.0,0.0,-1.4896,-1.5135,-1.5053,-1.4463,-1.4654,-1.5428,0.0,0.0,0.0,-2.2885,-2.5189,-2.7359,-2.9302,-3.1534,-3.2997,-3.343,-3.3783,-3.4037,-3.42,-3.3869,-3.455,-3.6156,-3.6248,-3.7441,-3.9496,-3.9772,-4.0249,-4.091,-4.1791,-4.2176,-4.2249,-4.3039,-4.3369,-4.3277,-4.247,-4.2176,-4.1956,-4.0341,-3.8322,-3.6395,-3.624,-3.5064,-3.3642,-3.3493,-3.2309,-3.0186,-2.6173,0.0,-2.2136,-2.0152,-1.9899,-2.0816,-2.3401,-2.322,-2.3436,0.0,0.0,-2.6795,-2.7795,-2.8944,-3.0013,-3.0926,-3.1689,-3.2422,-3.3155,-3.3395,-3.3649,-3.4053,-3.4083,-3.4352,-3.519,-3.4218,-3.3021,-3.1735,-3.3858,-3.522,-3.507,-3.534,-3.5504,-3.5504,-3.5504,-3.537,-3.507,-3.5055,-3.2493,-2.7121,-2.6714,-2.6533,-2.6533,-2.6533,-2.6533,-2.6533,-2.6533,-2.6533,-2.6508,-2.6269,-2.6088,-2.5791,-2.1956,-2.0283,-2.0127,-1.8603,-1.7891,-1.7529,-1.5986,-1.541,-1.541,0.0,0.0,0.0,0.0,0.0,0.0,0.0,0.0,0.0,0.0,0.0,-1.587,-1.6569,-1.6489,-1.682,0.0,0.0,0.0,-2.199,-2.5319,-2.7899,-2.942,-3.2038,-3.3592,-3.3855,-3.3931,-3.3961,-3.3961,-3.4301,-3.4871,-3.5587,-3.7019,-3.8248,-3.9258,-4.0671,-4.1479,-4.1864,-4.2653,-4.3002,-4.302,-4.3351,-4.3497,-4.3351,-4.2084,-4.0726,-3.9294,-3.7601,-3.6325,0.0,0.0,-3.2535,-3.2279,-3.1836,-3.0571,-2.864,-2.5458,-2.3907,0.0,-2.1797,-2.2219,0.0,0.0,-2.6945,-2.839,-2.9694,-3.0098,-3.0319,-3.0744,-3.1614,-3.2572,-3.3649,-3.4068,-3.4352,0.0,-3.4666,-3.4741,-3.4936,-3.4966,-3.51,-3.5459,-3.5011,-3.4442,-3.3888,-3.4846,-3.5504,-3.5504,-3.5504,-3.5504,-3.5504,-3.5504,-3.5504,-3.5504,-3.5504,-3.4273,-3.1748,-2.9568,-2.8398,-2.8398,-2.8398,-2.772,-2.6533,-2.6533,-2.6533,-2.6533,-2.6533,-2.6533,-2.6383,-2.4684,-2.4024,-2.3716,-2.0698,-1.9492,-1.9568,-1.9813,-1.8606,-1.6924,0.0,0.0,0.0,0.0,0.0,0.0,0.0,0.0,0.0,0.0,0.0,0.0,0.0,0.0,0.0,0.0,0.0,0.0,0.0,-2.492,-2.7589,-2.8905,-3.1642,-3.3331,-3.374,-3.4013,-3.4137,-3.4137,-3.4963,-3.5477,-3.5734,-3.7533,-3.8726,-3.9441,-4.1203,-4.2213,-4.2671,-4.324,-4.3497,-4.3461,-4.3259,-4.3039,-4.2598,-4.0561,-3.8414,-3.6274,-3.4759,-3.3497,0.0,0.0,-2.9423,-2.9501,-2.9722,-2.8766,-2.7182,-2.523,-2.4172,-2.3531,-2.3133,0.0,0.0,-2.7774,-3.0411,-3.242,-3.1709,-3.2508,-3.3319,-3.3094,-3.3574,-3.4352,-3.5325,-3.5504,-3.5504,-3.5504,-3.5504,-3.5504,-3.5504,-3.5504,-3.5235,-3.4487,-3.4412,-3.4696,-3.5429,-3.5504,-3.5504,-3.5504,-3.5504,-3.5504,-3.5504,-3.5504,-3.5504,-3.5504,-3.5504,-3.5504,-3.5504,-3.1723,-2.9792,-2.9792,-2.9792,-2.8938,-2.7381,-2.7381,-2.7381,-2.7381,-2.7381,-2.6686,-2.5542,-2.5542,-2.5274,-2.4612,-2.1745,-2.0566,-2.0851,-2.3202,-2.2086,-1.942,0.0,0.0,0.0,0.0,0.0,0.0,0.0,0.0,0.0,0.0,0.0,0.0,0.0,0.0,0.0,0.0,0.0,0.0,0.0,-2.3785,-2.6066,-2.7772,-3.0197,-3.1843,-3.2632,-3.4174,-3.4954,-3.4954,-3.5844,-3.6652,-3.7422,-3.7507,-3.8781,-4.1038,-4.1111,-4.2011,-4.3461,-4.3479,-4.3497,-4.3424,-4.2653,-4.1882,-4.0836,-3.7661,-3.5347,-3.3707,-3.2866,0.0,0.0,0.0,-2.641,-2.5344,-2.7924,-2.8105,0.0,-2.6444,-2.5023,-2.3692,0.0,0.0,-2.807,-3.1167,-3.2647,-3.355,-3.4304,-3.4978,-3.5282,-3.4574,-3.4966,-3.5459,-3.5489,-3.5504,-3.5504,-3.5504,-3.5504,-3.5504,-3.5504,-3.5504,-3.4547,-3.19,-3.1601,-3.2662,0.0,-3.5504,-3.5504,-3.5504,-3.5504,-3.5504,-3.5504,-3.5504,-3.5504,-3.5504,-3.5504,-3.5504,-3.5504,-3.1723,-2.9792,-2.9792,-2.9792,-2.9754,-2.9691,-2.9691,-2.9691,-2.9691,-2.9691,-2.7198,-2.3221,-2.3221,-2.2237,-2.0789,-2.0644,-2.0566,-2.1078,-2.498,-2.4918,-2.2944,0.0,0.0,0.0,0.0,0.0,0.0,0.0,0.0,0.0,0.0,0.0,0.0,0.0,0.0,0.0,0.0,0.0,0.0,0.0,-2.2186,-2.4164,-2.5786,-2.7881,-2.9641,-3.098,-3.1549,-3.2082,-3.2614,-3.3972,-3.478,-3.5073,-3.6725,-3.8212,-3.9533,-4.0065,-4.091,-4.1919,-4.1919,-4.1607,-4.0983,-3.9643,-3.8946,-3.8285,-3.4337,-3.2092,-3.0703,0.0,0.0,0.0,0.0,-2.2329,-2.25,-2.3997,-2.3911,-2.3426,-2.4407,-2.5049,-2.5774,0.0,0.0,-3.2004,-3.4408,-3.5694,-3.643,-3.6641,-3.6885,-3.6579,-3.4863,-3.4134,-3.3668,-3.3186,-3.3155,-3.3291,-3.3683,-3.4373,-3.4981,-3.5444,-3.5504,-3.4951,-3.3484,-3.3021,0.0,0.0,0.0,0.0,-3.5504,-3.5504,-3.5504,-3.5504,-3.5504,-3.5504,-3.5504,-3.5504,-3.5504,-3.5504,-3.1723,-2.9792,-2.9792,-2.9792,-2.9792,-2.9792,-2.9792,-2.9792,-2.9792,-2.9792,-2.7209,-2.3135,-2.3135,-2.2119,-2.0566,-2.0566,-2.0566,-2.0789,-2.2113,-2.3743,-2.5347,0.0,0.0,0.0,0.0,0.0,0.0,0.0,0.0,0.0,0.0,0.0,0.0,0.0,0.0,0.0,0.0,0.0,0.0,0.0,0.0,-2.2007,-2.3378,-2.5185,-2.6786,-2.8118,-2.8718,-2.946,-3.0405,-3.1722,-3.2554,-3.2981,-3.4559,-3.5734,-3.656,-3.7349,-3.8175,-3.8927,-3.8927,-3.8634,-3.7991,-3.6054,-3.5072,-3.4338,-3.0366,-2.8272,0.0,0.0,0.0,0.0,0.0,-2.0474,-2.11,-2.2357,-2.3257,-2.4003,-2.4596,-2.6554,-2.9041,-3.1365,-3.3341,-3.5392,-3.8117,-3.8728,-3.8606,-3.8262,-3.779,-3.6748,-3.4303,-3.3592,-3.3064,-3.195,-3.0864,-3.0721,-3.2523,-3.3126,-3.3903,-3.531,-3.5504,-3.519,-3.4307,-3.4203,-3.4427,0.0,0.0,0.0,-3.5504,-3.5504,-3.5504,-3.5504,-3.5504,-3.5504,-3.5504,-3.5504,-3.5504,-3.5504,-3.1723,-2.9792,-2.9792,-2.9792,-2.9792,-2.9792,-2.9792,-2.9792,-2.9792,-2.9792,-2.7209,-2.3135,-2.3135,-2.249,-2.1484,-2.1484,-2.1484,-2.1484,-2.1484,-2.359,-2.6314,0.0,0.0,0.0,0.0,0.0,0.0,0.0,0.0,0.0,0.0,0.0,0.0,0.0,0.0,0.0,0.0,0.0,0.0,0.0,0.0,0.0,-2.0653,-2.2175,-2.3413,-2.4319,-2.5847,-2.7187,-2.8311,-2.9134,-3.0061,-3.1047,-3.1084,-3.1561,-3.2368,-3.312,-3.3908,-3.4679,-3.4679,-3.466,-3.4403,-3.1978,-3.0432,-2.9275,-2.587,0.0,0.0,0.0,0.0,0.0,0.0,0.0,0.0,0.0,-2.6092,-2.8585,-2.7232,-2.9716,-3.3423,-3.5805,-3.6926,-3.8294,-4.2033,-4.1544,-3.9949,-3.9046,-3.7719,-3.5903,-3.3108,-3.3245,-3.3381,0.0,0.0,-2.8065,-3.2017,-3.2093,-3.2557,-3.519,-3.5549,-3.5265,0.0,0.0,0.0,0.0,0.0,0.0,-3.5579,0.0,-3.5579,-3.5504,-3.5504,-3.5504,-3.5504,-3.5504,-3.5504,-3.5504,-3.1723,-2.9792,-2.9792,-2.9792,-2.9792,-2.9792,-2.9792,-2.9792,-2.9792,-2.9546,-2.7046,-2.3135,-2.3135,-2.3135,-2.3135,-2.3135,-2.3135,-2.3135,-2.3135,-2.4639,-2.6103,0.0,0.0,0.0,0.0,0.0,0.0,0.0,0.0,0.0,0.0,0.0,0.0,0.0,0.0,0.0,0.0,0.0,0.0,0.0,0.0,0.0,0.0,0.0,0.0,0.0,0.0,0.0,-2.4444,-2.5386,-2.6027,-2.6423,-2.7085,-2.7858,-2.873,-2.893,-2.9482,-3.0228,-3.0228,-2.9926,-2.9259,0.0,-2.6449,-2.5927,0.0,0.0,0.0,0.0,0.0,0.0,0.0,0.0,0.0,0.0,-2.887,-3.1046,-3.2363,-3.5386,-3.8544,-3.9577,-4.1397,-4.3153,-4.3669,-4.2719,-4.1067,-3.8683,-3.6669,-3.4848,-3.3049,-3.1106,-2.9302,0.0,0.0,0.0,-3.0819,-3.2243,0.0,-3.5938,-3.6237,0.0,0.0,0.0,-3.6836,-3.6611,-3.6791,0.0,0.0,-3.6761,-3.6507,-3.5549,-3.5504,-3.5504,-3.5504,-3.5504,-3.5504,-3.5504,-3.1723,-2.9792,-2.9792,-2.9792,-2.9792,-2.9792,-2.9792,-2.9792,-2.9624,-2.6295,-2.4135,-2.3135,-2.3135,-2.3135,-2.3135,-2.3135,-2.3135,-2.3135,-2.3135,-2.5574,-2.8371,0.0,0.0,0.0,0.0,0.0,0.0,0.0,0.0,0.0,0.0,0.0,0.0,0.0,0.0,0.0,0.0,0.0,0.0,0.0,0.0,0.0,0.0,0.0,0.0,0.0,0.0,0.0,0.0,0.0,0.0,-2.3137,-2.3607,-2.4163,-2.4747,-2.5091,-2.5511,-2.5909,-2.5909,0.0,0.0,0.0,0.0,0.0,0.0,0.0,0.0,0.0,0.0,0.0,0.0,0.0,-2.7167,-3.0339,-3.3053,-3.5446,-3.6914,0.0,-4.214,-4.2975,-4.4144,-4.5101,-4.5098,-4.3763,-4.196,-3.9919,-3.7254,-3.4514,-3.1928,-2.9398,0.0,0.0,0.0,0.0,0.0,0.0,0.0,-3.5235,-3.6118,-3.6611,0.0,-3.724,0.0,-3.7404,-3.7404,-3.7404,0.0,-3.7404,-3.736,-3.7225,-3.7225,-3.7225,-3.7225,-3.7225,-3.6671,-3.5519,-3.1723,-2.9792,-2.9792,-2.9792,-2.9792,-2.9792,-2.9792,-2.9792,-2.9546,0.0,-2.3135,-2.3135,-2.3135,-2.3135,-2.3135,-2.3135,-2.3135,-2.3135,-2.3135,-2.5344,-2.7828,0.0,0.0,0.0,0.0,0.0,0.0,0.0,0.0,0.0,0.0,0.0,0.0,0.0,0.0,0.0,0.0,0.0,0.0,0.0,0.0,0.0,0.0,0.0,0.0,0.0,0.0,0.0,0.0,0.0,0.0,0.0,0.0,0.0,0.0,0.0,0.0,0.0,0.0,0.0,0.0,0.0,0.0,0.0,0.0,0.0,0.0,0.0,0.0,0.0,0.0,-2.9329,-3.0516,-3.4526,-3.7883,-4.0473,-4.1166,-4.3044,-4.5069,-4.5891,-4.5992,-4.5961,-4.6543,-4.4929,-4.2996,-4.187,-3.8046,-3.3754,-2.9992,0.0,-2.6116,-2.5351,0.0,-2.5336,-3.0498,0.0,-3.114,-3.4435,-3.5869,-3.6641,-3.6731,-3.7285,-3.7674,-3.7674,-3.7764,-3.7943,-3.8272,-3.7913,-3.8182,-3.9364,-3.9424,-3.9424,-3.9424,-3.9424,-3.8153,-3.5534,-3.1723,-2.9792,-2.9792,-2.9792,-2.9792,-2.9792,-2.9792,-2.9792,-2.9546,-2.5052,-2.3135,-2.3135,-2.3135,-2.3135,-2.3135,-2.3135,-2.3135,-2.3135,-2.3135,-2.4738,-2.6562,0.0,0.0,0.0,0.0,0.0,0.0,0.0,0.0,0.0,0.0,-1.5469,-1.5138,0.0,0.0,0.0,0.0,0.0,0.0,0.0,0.0,0.0,0.0,0.0,0.0,0.0,0.0,0.0,0.0,0.0,0.0,0.0,0.0,0.0,0.0,0.0,0.0,0.0,0.0,0.0,0.0,0.0,0.0,0.0,0.0,0.0,0.0,0.0,0.0,0.0,0.0,-3.1622,-3.4315,-3.902,-4.1751,-4.3547,-4.5394,-4.742,-4.8795,-4.7559,-4.8497,-4.9503,-4.8302,-4.6845,-4.5124,-4.2698,-3.5602,0.0,0.0,0.0,-2.3777,-2.498,-2.573,0.0,-3.1489,0.0,0.0,0.0,0.0,-3.7449,0.0,0.0,0.0,0.0,0.0,0.0,0.0,0.0,-3.917,-3.9409,-3.9424,-3.9424,-3.9424,-3.9424,-3.8153,-3.5534,-3.1723,-2.9792,-2.9792,-2.9792,-2.9792,-2.9792,-2.9792,-2.9792,-2.9546,-2.5052,0.0,-2.3135,-2.3135,-2.3135,-2.3135,-2.3135,-2.3135,-2.3135,-2.3135,-2.5661,-2.8614,0.0,0.0,0.0,0.0,0.0,0.0,0.0,-1.4945,-1.5274,-1.6098,-1.5902,-1.5448,-1.4846,-1.509,-1.5343,0.0,0.0,0.0,0.0,0.0,0.0,0.0,0.0,0.0,0.0,0.0,0.0,0.0,0.0,0.0,0.0,0.0,0.0,0.0,0.0,0.0,0.0,0.0,0.0,0.0,0.0,0.0,0.0,0.0,0.0,0.0,0.0,0.0,0.0,0.0,-2.9714,-3.5113,-4.0985,-4.404,-4.5802,-4.7495,-4.8536,-4.8998,-4.8457,-4.953,-5.0602,-4.9798,-4.8475,-4.5666,-3.9174,0.0,0.0,0.0,0.0,-2.3034,-2.4807,0.0,0.0,0.0,0.0,0.0,0.0,0.0,0.0,0.0,0.0,0.0,0.0,0.0,0.0,0.0,0.0,-3.9424,-3.9424,-3.9424,-3.9424,-3.9424,-3.9424,-3.8153,-3.5534,-3.1723,-2.9792,-2.9792,-2.9792,-2.9792,-2.9792,-2.9792,-2.8542,-2.6213,-2.4059,-2.3135,-2.3135,-2.3135,-2.3135,-2.3135,-2.3135,-2.3135,-2.3387,-2.5714,-2.7959,-2.9456,0.0,0.0,0.0,0.0,0.0,0.0,0.0,-1.5206,-1.5621,-1.6675,-1.6657,-1.6199,-1.5241,-1.4915,-1.4796,0.0,0.0,0.0,0.0,0.0,0.0,0.0,0.0,0.0,0.0,0.0,0.0,0.0,0.0,0.0,0.0,0.0,0.0,0.0,0.0,0.0,0.0,0.0,0.0,0.0,0.0,0.0,0.0,0.0,0.0,0.0,0.0,0.0,0.0,0.0,-2.5972,-3.2533,-3.9223,-4.3176,-4.5649,-4.7003,-4.7661,-4.8257,-4.9627,-5.0785,-5.154,-5.1338,-4.7962,-4.2255,-3.3098,-2.6826,0.0,0.0,-2.231,-2.2856,-2.4637,0.0,0.0,0.0,0.0,0.0,0.0,0.0,0.0,0.0,0.0,0.0,0.0,0.0,0.0,0.0,0.0,0.0,-3.9424,-3.9424,-3.9424,-3.9424,-3.9424,-3.8153,-3.5534,-3.1723,-2.9792,-2.9792,-2.9792,-2.9792,-2.9792,-2.9792,-2.7371,-2.3135,-2.3135,-2.3135,-2.3135,-2.3135,-2.3135,-2.3135,-2.3135,-2.3724,-2.4967,-2.8542,-2.9792,-2.9792,0.0,0.0,0.0,0.0,0.0,0.0,0.0,-1.5976,-1.6659,-1.827,-1.7826,-1.7097,-1.6348,-1.5494,-1.5401,0.0,0.0,0.0,0.0,0.0,0.0,0.0,0.0,0.0,0.0,0.0,0.0,0.0,0.0,0.0,0.0,0.0,0.0,0.0,0.0,0.0,0.0,0.0,0.0,0.0,0.0,0.0,0.0,0.0,0.0,0.0,0.0,0.0,0.0,0.0,0.0,-2.4649,-3.0924,-3.6389,-4.077,-4.2416,0.0,0.0,-5.1798,-5.3476,-5.3981,-5.3179,-4.279,-3.1127,-2.4774,0.0,0.0,-2.2665,-2.231,-2.2767,-2.4272,-2.4452,0.0,0.0,0.0,0.0,0.0,0.0,0.0,0.0,0.0,0.0,0.0,0.0,0.0,0.0,0.0,0.0,-3.9424,-3.9424,-3.9424,-3.9424,-3.9424,-3.8153,-3.5534,-3.1723,-2.9792,-2.9792,-2.9792,-2.9792,-2.9792,-2.9792,-2.7371,-2.3135,-2.3135,-2.3135,0.0,-2.3135,-2.3135,-2.3135,-2.3135,-2.5546,-2.9209,-2.9624,-2.9792,-2.9792,0.0,0.0,0.0,0.0,0.0,0.0,-1.4933,-1.5245,-1.5958,-1.7701,-1.7684,-1.7595,-1.7807,-1.6653,-1.5604,-1.4986,0.0,0.0,0.0,0.0,0.0,0.0,0.0,0.0,0.0,0.0,0.0,0.0,0.0,0.0,0.0,0.0,0.0,0.0,0.0,0.0,0.0,0.0,0.0,0.0,0.0,0.0,0.0,0.0,0.0,0.0,0.0,0.0,0.0,0.0,0.0,0.0,-2.4887,-2.8489,0.0,0.0,-4.2938,-4.6177,-4.9929,-5.0885,-5.0675,-5.0352,-3.9274,-2.7858,-2.549,0.0,0.0,-2.2598,-2.231,-2.2738,-2.4177,-2.4447,-2.5292,-2.7791,0.0,0.0,0.0,0.0,0.0,0.0,0.0,0.0,0.0,0.0,0.0,0.0,0.0,0.0,-3.9424,-3.9424,-3.9424,-3.9424,-3.9424,-3.8916,-3.7868,-3.2509,-2.9792,-2.9792,-2.9792,-2.9792,-2.9792,-2.9792,-2.7371,-2.3135,-2.3135,-2.4638,0.0,-2.7128,-2.5557,-2.3135,-2.3135,-2.5797,-2.9792,-2.9792,-2.9792,-2.9792,0.0,0.0,0.0,0.0,0.0,-1.3529,-1.4381,-1.4624,-1.5245,-1.6764,-1.6994,-1.7312,-1.795,-1.6814,-1.5475,-1.423,-1.421,0.0,0.0,0.0,0.0,0.0,0.0,0.0,0.0,0.0,0.0,-1.7805,-1.817,0.0,0.0,0.0,0.0,0.0,0.0,0.0,0.0,0.0,0.0,0.0,0.0,0.0,0.0,0.0,0.0,0.0,0.0,0.0,0.0,0.0,0.0,0.0,0.0,0.0,0.0,0.0,-3.8962,-4.2656,-4.6637,-4.7763,-4.7902,-4.8233,-3.8492,-2.8373,0.0,0.0,0.0,-2.2598,-2.231,-2.2688,-2.3961,-2.4228,-2.4656,-2.6009,0.0,-2.6759,0.0,0.0,0.0,0.0,0.0,0.0,0.0,0.0,0.0,0.0,0.0,0.0,-3.9424,-3.9424,-3.9424,-3.9424,-3.9424,-3.9424,-3.9424,-3.3041,-2.9792,-2.9792,-2.9792,-2.9792,-2.9792,-2.9792,-2.8039,-2.5052,-2.5052,-2.6883,0.0,-2.9792,-2.7959,-2.5052,-2.5052,-2.7035,-2.9792,-2.9792,-2.9792,-2.9792,0.0,0.0,0.0,0.0,0.0,0.0,-1.4182,-1.4411,-1.4845,-1.5779,-1.5974,-1.6063,-1.622,-1.55,-1.5025,-1.509,-1.4117,0.0,0.0,0.0,0.0,0.0,0.0,0.0,0.0,0.0,-1.7492,-1.809,-1.8296,-1.8569,-1.8895,-1.9035,0.0,0.0,0.0,0.0,0.0,0.0,0.0,0.0,0.0,0.0,0.0,0.0,0.0,0.0,0.0,0.0,0.0,0.0,0.0,0.0,0.0,0.0,0.0,0.0,-3.2147,-3.7186,-4.2213,-4.5094,-4.6966,-4.8031,-4.1071,-3.2283,0.0,0.0,0.0,-2.2767,-2.231,-2.2615,-2.3613,-2.3691,-2.4175,-2.5926,-2.6187,0.0,0.0,0.0,0.0,0.0,0.0,0.0,0.0,0.0,0.0,0.0,0.0,0.0,-3.9424,-3.9424,-3.9424,-3.9424,-3.9424,-3.9424,-3.9424,-3.3041,-2.9792,-2.9792,-2.9792,-2.9792,-2.9792,-2.9792,-2.9792,-2.9714,-2.9714,-2.9792,0.0,-2.9792,-2.9792,-2.9714,-2.9714,-2.9792,-2.9792,-2.9792,-2.9792,-2.9792,0.0,0.0,0.0,0.0,0.0,0.0,0.0,-1.3451,-1.3848,-1.4773,-1.4967,-1.5315,-1.6063,-1.5498,-1.5074,-1.5108,-1.4166,0.0,0.0,0.0,0.0,0.0,0.0,0.0,0.0,0.0,-1.8035,-1.8368,-1.868,-1.886,-1.8964,-1.912,-1.9219,0.0,0.0,0.0,0.0,0.0,0.0,0.0,0.0,0.0,0.0,0.0,0.0,0.0,0.0,0.0,0.0,0.0,0.0,0.0,0.0,0.0,0.0,-2.437,0.0,0.0,-3.5581,-3.82,-3.9483,-3.8238,-3.2517,-2.6498,-2.3716,0.0,0.0,-2.2507,-2.2242,-2.2529,-2.3506,-2.2862,-2.3533,-2.7479,-2.7885,0.0,0.0,0.0,0.0,0.0,0.0,0.0,0.0,0.0,0.0,0.0,0.0,0.0,-3.9424,-3.9424,-3.9424,-3.9424,-3.9424,-3.9424,-3.9424,-3.4486,-3.1286,-2.9792,-2.9792,-2.9792,-2.9792,-2.9792,-2.9792,-2.9792,-2.9792,-2.9792,-2.9792,-2.9792,-2.9792,-2.9792,-2.9792,-2.9792,-2.9792,-2.9792,-2.9792,-2.9792,0.0,0.0,0.0,0.0,0.0,0.0,0.0,-1.2938,-1.3233,-1.3759,-1.3971,-1.4452,-1.5419,-1.4913,-1.4646,-1.5057,-1.4181,0.0,0.0,0.0,0.0,0.0,0.0,0.0,0.0,-1.8246,-1.86,-1.8733,-1.8998,-1.9178,-1.9222,-1.9311,-1.9375,-1.9413,-1.8658,0.0,0.0,0.0,0.0,0.0,0.0,0.0,-1.9485,0.0,0.0,0.0,0.0,0.0,0.0,0.0,0.0,0.0,0.0,0.0,0.0,0.0,-2.4401,0.0,0.0,-3.3146,-3.4333,-3.2253,-2.88,0.0,0.0,0.0,0.0,-2.2406,-2.2225,-2.2382,-2.2895,-2.2302,-2.2936,-2.6521,-2.8431,0.0,0.0,0.0,0.0,0.0,0.0,0.0,0.0,0.0,0.0,0.0,0.0,0.0,-3.9424,-3.9424,-3.9424,-3.9424,-3.9424,-3.862,-3.7035,-3.3577,-3.1148,-2.9792,-2.9792,-2.9792,-2.9792,-2.9792,-2.9792,-2.9792,-2.9792,-2.9792,0.0,-2.9792,-2.9792,-2.9792,-2.9792,-2.9792,-2.9792,-2.9792,-2.9792,-2.9792,0.0,0.0,0.0,0.0,0.0,0.0,0.0,-1.2864,-1.2885,-1.2889,-1.307,-1.3496,-1.4399,-1.3888,-1.3898,-1.4933,0.0,0.0,0.0,0.0,0.0,0.0,0.0,0.0,0.0,-1.8699,-1.9087,-1.9087,-1.9308,-1.9536,-1.9798,-1.9675,-1.962,-1.9633,-1.9483,0.0,0.0,0.0,0.0,0.0,0.0,0.0,0.0,0.0,0.0,0.0,0.0,0.0,0.0,0.0,0.0,0.0,0.0,0.0,0.0,0.0,0.0,0.0,0.0,-2.9546,0.0,0.0,0.0,0.0,0.0,0.0,0.0,0.0,0.0,0.0,-2.2128,-2.2103,-2.2578,-2.4065,0.0,0.0,0.0,0.0,0.0,0.0,0.0,0.0,0.0,0.0,0.0,0.0,0.0,0.0,-3.9113,-3.9173,-3.9071,-3.8705,-3.8735,-3.6858,-3.2928,-3.0809,-2.9792,-2.9792,-2.9792,-2.9792,-2.9792,-2.9792,-2.9792,0.0,-2.9792,-2.9792,-2.9792,-2.9792,-2.9792,-2.9792,-2.9792,-2.9792,-2.9792,-2.9792,-2.9792,-2.9792,0.0,0.0,0.0,0.0,0.0,0.0,0.0,0.0,0.0,0.0,-1.2908,-1.3082,-1.3424,-1.3447,-1.3661,0.0,0.0,0.0,0.0,0.0,0.0,0.0,0.0,0.0,0.0,-1.7774,-1.9087,-1.9087,-1.9246,-2.0168,-2.1783,-2.0445,-2.0233,-2.0913,-1.9978,-1.9541,0.0,0.0,0.0,0.0,0.0,0.0,0.0,0.0,0.0,0.0,-1.9562,-2.0146,0.0,0.0,0.0,0.0,0.0,0.0,0.0,0.0,-2.2764,-2.292,-2.3772,0.0,-2.483,-2.4398,-2.4195,0.0,0.0,0.0,0.0,0.0,0.0,0.0,0.0,0.0,0.0,0.0,0.0,0.0,0.0,0.0,0.0,0.0,0.0,0.0,0.0,0.0,0.0,0.0,0.0,-3.6395,-3.6398,-3.7362,-3.6083,-3.2213,-3.2031,-3.159,-3.057,-3.0055,-2.9792,-2.9792,-2.9792,-2.9792,-2.9792,-2.9792,-2.9792,-2.9792,-2.9792,-2.9792,-2.9792,-2.9792,-2.9792,-2.9792,-2.9792,-2.9792,-2.9792,-2.9792,-2.9792,-2.9792,0.0,0.0,0.0,0.0,0.0,0.0,0.0,0.0,0.0,0.0,0.0,0.0,0.0,0.0,0.0,0.0,0.0,0.0,0.0,0.0,0.0,0.0,0.0,0.0,-1.4293,-1.7457,-1.9087,-1.9087,-1.9402,-2.0896,-2.3464,-2.1859,-2.097,-2.0733,-2.0064,-1.9782,0.0,0.0,0.0,0.0,-1.9398,0.0,0.0,0.0,0.0,0.0,-1.9895,-2.0619,0.0,-2.1744,-2.221,-2.2789,0.0,0.0,0.0,0.0,-2.297,-2.2816,-2.2738,-2.2738,-2.2824,-2.3089,-2.2819,-2.2583,0.0,0.0,0.0,0.0,0.0,0.0,0.0,0.0,0.0,0.0,0.0,0.0,0.0,0.0,0.0,0.0,0.0,0.0,0.0,0.0,0.0,0.0,0.0,-3.5493,-3.5526,-3.6179,-3.4868,-3.1196,-3.0253,-2.9792,-2.9792,-2.9792,-2.9792,-2.9792,-2.9792,-2.9792,-2.9792,-2.9792,-2.9792,-2.9792,-2.9792,-2.9792,-2.9792,-2.9792,-2.9792,-2.9792,-2.9792,-2.9792,-2.9792,-2.9792,-2.9792,-2.9792,0.0,0.0,0.0,0.0,0.0,0.0,0.0,0.0,0.0,0.0,0.0,0.0,0.0,0.0,0.0,0.0,0.0,0.0,0.0,0.0,0.0,0.0,0.0,-1.4926,-1.5017,-1.7693,-1.9153,-1.9232,-2.0172,-2.1958,-2.4486,-2.3411,-2.2144,-2.0766,-2.0251,-1.996,0.0,0.0,0.0,0.0,-1.9416,0.0,0.0,0.0,0.0,0.0,0.0,0.0,0.0,-2.2404,-2.3027,-2.3671,-2.354,0.0,0.0,0.0,0.0,0.0,-2.2842,-2.2894,-2.311,-2.3467,-2.2997,-2.2624,0.0,0.0,0.0,0.0,0.0,0.0,0.0,0.0,0.0,0.0,0.0,0.0,0.0,0.0,0.0,0.0,0.0,0.0,0.0,0.0,0.0,0.0,0.0,-3.5504,-3.5504,-3.5359,-3.4558,-3.3101,-3.1206,-3.0075,-2.9792,-2.9792,-2.9792,-2.9792,-2.9792,-2.9792,-2.9792,-2.9792,-2.9792,-2.9792,0.0,0.0,-2.9792,-2.9792,-2.9792,-2.9792,-2.9792,-2.9792,-2.9792,-2.9792,-2.9792,-2.9792,0.0,0.0,0.0,0.0,0.0,0.0,0.0,0.0,0.0,0.0,0.0,0.0,0.0,0.0,0.0,0.0,0.0,0.0,0.0,0.0,0.0,0.0,-1.6807,-1.8346,-1.8363,-1.8851,-1.9357,-1.9861,-2.289,-2.411,-2.3624,-2.4419,-2.4652,-2.4259,-2.132,-1.9782,-1.9409,-1.9555,-1.9573,-1.9483,-1.9372,0.0,0.0,0.0,0.0,0.0,0.0,0.0,0.0,-2.2775,-2.3041,-2.3714,-2.3871,0.0,0.0,0.0,0.0,0.0,-2.3151,-2.3784,-2.4216,-2.318,-2.2754,-2.2613,0.0,0.0,0.0,0.0,0.0,0.0,0.0,0.0,0.0,0.0,0.0,0.0,0.0,0.0,0.0,0.0,0.0,0.0,0.0,0.0,0.0,0.0,0.0,-3.5504,-3.5504,-3.4691,-3.4461,-3.5067,-3.3185,-3.1415,-2.9792,-2.9792,-2.9792,-2.9792,-2.9792,-2.9792,-2.9792,-2.9792,-2.9792,-2.9792,0.0,-2.9792,-2.9792,-2.9792,-2.9792,-2.9792,-2.9792,-2.9792,-2.9792,-2.9792,-2.9792,-2.9792,0.0,0.0,0.0,0.0,0.0,0.0,0.0,0.0,0.0,0.0,0.0,0.0,0.0,0.0,0.0,0.0,0.0,0.0,0.0,0.0,0.0,-1.41,-1.7307,-1.9087,-1.9087,-2.1176,-2.2422,-2.2703,-2.3438,-2.398,-2.4385,-2.4931,-2.4216,-2.2448,-2.271,-2.1557,-1.9446,-1.9446,-1.9416,-1.9387,0.0,0.0,0.0,0.0,0.0,0.0,0.0,0.0,0.0,0.0,-2.3672,-2.3996,-2.4072,0.0,0.0,0.0,0.0,0.0,-2.3389,-2.3625,-2.3992,-2.4378,-2.4347,-2.4191,0.0,0.0,0.0,0.0,0.0,0.0,0.0,0.0,0.0,0.0,0.0,0.0,0.0,0.0,0.0,0.0,0.0,0.0,0.0,0.0,0.0,0.0,0.0,0.0,-3.5504,-3.4543,-3.3959,-3.3905,-3.3071,-3.1723,-2.9792,-2.9792,-2.9792,-2.9792,-2.9792,-2.9792,-2.9792,-2.9792,-2.9792,-2.9792,0.0,-2.9792,-2.9792,-2.9792,-2.9792,-2.9792,-2.9792,-2.9792,-2.9792,-2.9792,-2.9792,-2.9792,0.0,0.0,0.0,0.0,0.0,0.0,0.0,0.0,0.0,0.0,0.0,0.0,0.0,0.0,0.0,0.0,0.0,0.0,0.0,0.0,-1.4463,-1.5278,-1.7857,-1.9219,-1.9087,-2.3783,-2.5815,-2.501,-2.4043,-2.3999,-2.4809,-2.5077,-2.3796,-2.1368,-2.3065,-2.223,-1.9508,-1.9368,-1.9305,-1.9305,0.0,0.0,0.0,0.0,0.0,0.0,0.0,0.0,0.0,0.0,0.0,0.0,0.0,0.0,0.0,-2.4036,-2.3876,-2.371,-2.362,-2.3417,-2.3602,-2.5034,0.0,0.0,0.0,0.0,0.0,0.0,0.0,0.0,0.0,0.0,0.0,0.0,0.0,0.0,0.0,0.0,0.0,0.0,0.0,0.0,0.0,0.0,0.0,0.0,0.0,0.0,-3.5133,-3.4177,-3.3241,-3.2407,-3.2071,-3.1232,-2.9792,-2.9792,-2.9792,-2.9792,-2.9792,-2.9792,-2.9792,-2.9792,-2.9792,-2.9792,-2.9792,-2.9792,-2.9792,-2.9792,-2.9792,-2.9792,-2.9792,-2.9792,-2.9792,-2.9792,-2.9792,-2.9792,0.0,0.0,0.0,0.0,0.0,0.0,0.0,0.0,0.0,0.0,0.0,0.0,0.0,0.0,0.0,0.0,0.0,0.0,0.0,0.0,-1.554,-1.8782,-1.9457,-1.955,-1.9104,-2.6155,-2.8245,-2.501,-2.6015,-2.5523,-2.3651,-2.4694,-2.5077,-2.4671,-2.1246,-1.9571,-1.932,-1.9305,-1.9305,-1.9305,-1.9305,0.0,0.0,0.0,0.0,0.0,0.0,0.0,0.0,0.0,0.0,0.0,0.0,0.0,-2.4173,-2.4113,-2.4092,-2.4032,-2.3915,-2.3795,-2.3768,-2.3826,-2.3382,0.0,-2.3513,-2.6253,0.0,0.0,0.0,0.0,0.0,0.0,0.0,0.0,0.0,0.0,0.0,0.0,0.0,0.0,0.0,0.0,0.0,0.0,0.0,0.0,0.0,0.0,-3.4177,-3.3241,-3.2407,-3.1796,-3.0596,-2.9959,-2.9792,-2.9792,-2.9792,-2.9792,-2.9792,-2.9792,-2.9792,-2.9792,-2.9792,-2.9792,-2.9792,-2.9792,-2.9792,-2.9792,-2.9792,-2.9792,-2.9792,-2.9792,-2.9792,-2.9792,-2.9792,-2.9792,0.0,0.0,0.0,0.0,0.0,0.0,0.0,0.0,0.0,0.0,0.0,0.0,0.0,0.0,0.0,0.0,0.0,0.0,0.0,0.0,-1.7921,-1.9234,-1.9532,-1.9638,-1.955,-2.3685,-2.5582,-2.501,-2.4962,-2.4434,-2.3498,-2.3556,-2.4048,-2.4814,-2.3241,-2.133,-1.9418,-2.1473,-2.2336,-2.2336,-2.2336,-2.1492,0.0,0.0,0.0,0.0,0.0,0.0,0.0,0.0,-2.4209,-2.421,-2.417,-2.419,-2.4192,-2.4172,-2.4095,-2.4014,-2.3971,-2.4917,-2.5568,-2.4118,-2.3707,0.0,0.0,-3.1221,-3.801,0.0,0.0,0.0,0.0,0.0,0.0,0.0,0.0,0.0,0.0,0.0,0.0,0.0,0.0,0.0,0.0,0.0,0.0,0.0,0.0,0.0,-3.3241,-3.2407,-3.1928,-3.1723,-3.0432,-2.9792,-2.9792,-2.9792,-2.9792,-2.9792,-2.9792,-2.9792,-2.9792,-2.9792,-2.9792,-2.9792,-2.9792,-2.9792,-2.9792,-2.9792,-2.9792,-2.9792,-2.9792,-2.9792,-2.9792,-2.9792,-2.9792,-2.9792,0.0,0.0,0.0,0.0,0.0,0.0,0.0,0.0,0.0,0.0,0.0,0.0,0.0,0.0,0.0,0.0,0.0,0.0,-1.5681,-1.799,-1.9305,-1.9305,-1.946,-1.9736,-2.0087,-2.1913,-2.3307,-2.4187,-2.4201,-2.401,-2.3621,-2.3498,-2.3695,-2.4212,-2.3902,-2.2715,-2.1021,-2.2169,-2.329,-2.4284,-2.4284,-2.2957,0.0,0.0,0.0,0.0,0.0,0.0,0.0,0.0,-2.4266,-2.4284,-2.4247,-2.4247,-2.4266,-2.4247,-2.4172,-2.4094,-2.4071,-2.5069,-2.6008,-2.5514,0.0,0.0,-2.5823,-3.4926,-4.3497,0.0,0.0,0.0,0.0,0.0,0.0,0.0,0.0,0.0,0.0,0.0,0.0,0.0,0.0,0.0,0.0,0.0,0.0,0.0,0.0,0.0,0.0,-3.1608,-3.1163,-3.0795,-3.0126,-2.9679,-2.9453,-2.9679,-2.944,-2.8737,-2.8737,-2.9114,-2.9792,-2.9792,-2.9792,-2.9754,-2.9038,-2.9139,-2.9792,-2.9792,-2.9792,-2.9792,-2.9792,-2.9792,-2.9792,-2.9792,-2.9792,-2.9792,0.0,0.0,0.0,0.0,0.0,0.0,0.0,0.0,0.0,0.0,0.0,0.0,0.0,0.0,0.0,0.0,0.0,0.0,-1.9032,-1.9271,-1.9305,-1.9305,-1.9431,-1.9874,-2.0663,-2.1681,-2.2262,-2.242,-2.4201,-2.4676,-2.3931,-2.4767,-2.4486,-2.3194,-2.2518,-2.3072,-2.4276,-2.0834,-2.1364,-2.4517,-2.4517,-2.45,-2.45,0.0,0.0,0.0,0.0,0.0,0.0,0.0,-2.4394,-2.4482,-2.4339,-2.4339,-2.4394,-2.4321,-2.4303,-2.4284,-2.4209,-2.4014,-2.4617,0.0,0.0,0.0,0.0,-3.6541,-4.3442,0.0,0.0,0.0,0.0,0.0,0.0,0.0,0.0,0.0,0.0,0.0,0.0,0.0,0.0,0.0,0.0,0.0,0.0,0.0,0.0,0.0,0.0,-3.0639,-2.9913,-2.8913,-2.9478,-2.9415,-2.8687,-2.9402,-2.8649,-2.6533,-2.6533,-2.762,-2.9767,-2.9767,-2.9767,-2.9641,-2.7419,-2.772,-2.9767,-2.9767,-2.9779,-2.9792,-2.9792,-2.9792,-2.9792,-2.9792,-2.9792,-2.9792,0.0,0.0,0.0,0.0,0.0,0.0,0.0,0.0,0.0,0.0,0.0,0.0,0.0,0.0,0.0,0.0,0.0,0.0,-1.5918,-1.8041,-1.9368,-1.9508,-1.946,-1.96,-1.9917,-2.0989,-2.2093,-2.3182,-2.3107,-2.3234,-2.3609,-2.3833,-2.41,-2.4393,-2.4341,-2.4466,-2.4659,-2.3853,-2.4093,-2.4999,-2.4999,-2.4783,-2.45,0.0,0.0,0.0,0.0,0.0,0.0,0.0,0.0,0.0,-2.4339,-2.4339,-2.4394,-2.4376,-2.4266,-2.4171,-2.4191,-2.4899,0.0,0.0,0.0,0.0,0.0,0.0,0.0,0.0,0.0,0.0,0.0,0.0,0.0,0.0,0.0,0.0,0.0,0.0,0.0,0.0,0.0,0.0,0.0,0.0,0.0,0.0,0.0,0.0,-2.9091,-2.8682,-2.8308,-2.7971,-2.8134,-2.7871,-2.713,-2.7344,-2.7118,-2.6533,-2.6533,-2.6804,-2.7457,-2.7457,-2.7457,-2.7406,-2.6753,-2.6898,-2.7457,-2.7457,-2.8373,-2.9792,-2.9792,-2.9792,-2.9792,-2.9792,-2.9792,-2.9792,0.0,0.0,0.0,0.0,0.0,0.0,0.0,0.0,0.0,0.0,0.0,0.0,0.0,0.0,0.0,0.0,0.0,0.0,0.0,0.0,-1.9383,-1.955,-1.9513,-1.9731,-2.0257,-2.0811,-2.1581,-2.2585,-2.2547,-2.2872,-2.354,-2.3853,-2.4341,-2.4953,-2.5113,-2.5106,-2.4962,-2.5168,-2.5228,-2.5191,-2.5191,-2.5025,-2.4787,0.0,0.0,0.0,0.0,0.0,0.0,0.0,0.0,0.0,-2.4444,-2.441,-2.4394,-2.4376,-2.4266,-2.4153,-2.4191,0.0,0.0,0.0,0.0,0.0,0.0,0.0,0.0,0.0,0.0,0.0,0.0,0.0,0.0,0.0,0.0,0.0,0.0,0.0,0.0,0.0,0.0,0.0,0.0,0.0,0.0,0.0,0.0,-2.9587,-2.8182,-2.7682,-2.7444,-2.7444,-2.7301,-2.6974,-2.6533,-2.6533,-2.6533,-2.6533,-2.6533,-2.6533,-2.6533,-2.6533,-2.6533,-2.6533,-2.6533,-2.6533,-2.6533,-2.6533,-2.7326,-2.8473,-2.8473,-2.8473,-2.8473,-2.8473,-2.9038,-2.9792,0.0,0.0,0.0,0.0,0.0,0.0,0.0,0.0,0.0,0.0,0.0,0.0,0.0,0.0,0.0,0.0,0.0,0.0,0.0,0.0,-1.9383,-1.9513,-1.9577,-2.0103,-2.1115,-2.0852,-2.0856,-2.1183,-2.2339,-2.3059,-2.3385,-2.4298,-2.4834,-2.5006,-2.5149,-2.5206,-2.5212,-2.5195,-2.5191,-2.5191,-2.5203,-2.5222,-2.5191,-2.5191,0.0,0.0,0.0,0.0,0.0,0.0,0.0,0.0,-2.4607,-2.4513,-2.4394,-2.4339,-2.4266,-2.4192,0.0,0.0,0.0,0.0,0.0,0.0,0.0,0.0,0.0,0.0,0.0,0.0,0.0,0.0,0.0,0.0,0.0,0.0,0.0,0.0,0.0,0.0,0.0,0.0,0.0,0.0,0.0,0.0,-2.8679,-2.8776,-2.8019,-2.7482,-2.7205,-2.7205,-2.6716,-2.6533,-2.6533,-2.6458,-2.6433,-2.6433,-2.6496,-2.6533,-2.6533,-2.6533,-2.6533,-2.6533,-2.6533,-2.6533,-2.6533,-2.6533,-2.6533,-2.6533,-2.6533,-2.6533,-2.6533,-2.6533,-2.7745,-2.9515,0.0,0.0,0.0,0.0,0.0,0.0,0.0,0.0,0.0,0.0,0.0,0.0,0.0,0.0,0.0,0.0,0.0,0.0,0.0,0.0,-1.9442,-1.9725,-1.9794,-1.9888,-1.9967,-1.9884,-2.0247,-2.1049,-2.1779,-2.1975,-2.1652,-2.2915,-2.4028,-2.5013,-2.5209,-2.5262,-2.5212,-2.5195,-2.5191,-2.5203,-2.5261,-2.525,-2.5191,-2.5191,-2.5191,0.0,0.0,0.0,0.0,0.0,0.0,0.0,-2.4566,-2.4498,-2.4465,-2.4412,-2.4284,-2.421,0.0,0.0,0.0,0.0,0.0,0.0,0.0,0.0,0.0,0.0,0.0,0.0,0.0,0.0,0.0,0.0,0.0,0.0,0.0,0.0,0.0,0.0,0.0,0.0,0.0,0.0,0.0,0.0,-2.6253,-2.6587,-2.6861,-2.6703,-2.664,-2.664,-2.6596,-2.6533,-2.6533,-2.5954,-2.5665,-2.5611,-2.6244,-2.6533,-2.6533,-2.6533,-2.6533,-2.6533,-2.6533,-2.6533,-2.6533,-2.6533,-2.6533,-2.6533,-2.6533,-2.6533,-2.6533,-2.6533,-2.6766,-2.7431,0.0,0.0,0.0,0.0,0.0,0.0,0.0,0.0,0.0,0.0,0.0,0.0,0.0,0.0,0.0,0.0,0.0,0.0,0.0,0.0,0.0,-1.9934,-1.9985,-1.9934,-1.9788,-1.9757,-1.9982,-2.0427,-2.1587,-2.2129,-2.2129,-2.3274,-2.4242,-2.5013,-2.5176,-2.5252,-2.5243,-2.5206,-2.5225,-2.525,-2.5283,-2.5271,-2.5191,-2.5248,-2.5236,-2.5191,-2.5191,0.0,0.0,0.0,0.0,0.0,0.0,0.0,-2.4393,-2.4358,-2.4229,-2.4114,0.0,0.0,0.0,0.0,0.0,0.0,0.0,0.0,0.0,0.0,0.0,0.0,0.0,0.0,0.0,0.0,0.0,0.0,0.0,0.0,0.0,0.0,0.0,0.0,0.0,0.0,0.0,-2.482,-2.5071,-2.536,-2.5661,-2.5674,-2.5674,-2.5674,-2.585,-2.6005,-2.6005,-2.5967,-2.5624,-2.5109,-2.5485,-2.5385,-2.487,-2.487,-2.5448,-2.6533,-2.6533,-2.6533,-2.6533,-2.6533,-2.6533,-2.6533,-2.6533,-2.6533,-2.6533,-2.6533,-2.713,-2.8072,0.0,0.0,0.0,0.0,0.0,0.0,0.0,0.0,0.0,0.0,0.0,0.0,0.0,0.0,0.0,0.0,0.0,0.0,0.0,0.0,0.0,-2.0098,-2.0108,-2.0058,-2.0004,-1.9963,-1.9998,-2.0127,-2.1587,0.0,0.0,0.0,-2.4749,-2.5056,-2.5172,-2.5239,-2.5273,-2.5248,-2.525,-2.5303,-2.5293,-2.525,-2.5203,-2.5271,-2.525,-2.5191,-2.5191,-2.5191,-2.5191,-2.5191,0.0,0.0,0.0,0.0,-2.4321,-2.4266,-2.4152,-2.4016,0.0,0.0,0.0,0.0,0.0,0.0,0.0,0.0,0.0,0.0,0.0,0.0,0.0,0.0,0.0,0.0,0.0,0.0,0.0,0.0,0.0,0.0,0.0,0.0,0.0,0.0,0.0,-2.3979,-2.4431,-2.4695,-2.472,-2.4782,-2.482,-2.482,-2.5109,-2.5297,-2.5426,-2.5812,-2.5598,-2.472,-2.4594,-2.4042,-2.3078,-2.3078,-2.4142,-2.59,-2.6219,-2.6408,-2.6533,-2.6533,-2.6533,-2.6533,-2.6533,-2.6533,-2.6533,-2.6533,-2.7632,-2.895,0.0,0.0,0.0,0.0,0.0,0.0,0.0,0.0,0.0,0.0,0.0,0.0,0.0,0.0,0.0,0.0,0.0,0.0,0.0,0.0,0.0,-2.0079,-2.0108,-2.006,-1.9991,-2.0039,-2.0524,-2.1441,0.0,0.0,0.0,0.0,0.0,-2.5253,0.0,-2.5261,-2.5214,-2.5271,-2.5293,-2.5303,-2.5228,-2.5203,-2.5191,-2.5203,-2.5203,-2.5191,-2.5191,-2.5191,-2.5191,-2.5191,-2.5044,0.0,0.0,0.0,-2.4339,-2.4115,-2.4075,-2.4056,0.0,0.0,0.0,0.0,0.0,0.0,0.0,0.0,0.0,0.0,0.0,0.0,0.0,0.0,0.0,0.0,0.0,0.0,0.0,0.0,0.0,0.0,0.0,0.0,0.0,0.0,0.0,-2.3215,-2.3791,-2.4167,-2.4293,-2.4632,-2.482,-2.482,-2.487,-2.5046,-2.5426,-2.4669,-2.4318,-2.4293,-2.3603,-2.3215,-2.3078,-2.3078,-2.3301,-2.3653,-2.4946,-2.5942,-2.6533,-2.6533,-2.6533,-2.6533,-2.6533,-2.6533,-2.6533,-2.6533,-2.6722,-2.6936,0.0,0.0,0.0,0.0,0.0,0.0,0.0,0.0,0.0,0.0,0.0,0.0,0.0,0.0,0.0,0.0,0.0,0.0,0.0,0.0,0.0,-2.0108,-2.0088,-2.0098,-2.0117,-2.0098,-2.0346,-2.0862,0.0,0.0,0.0,-2.5115,-2.5214,0.0,0.0,0.0,0.0,-2.537,-2.5332,-2.5303,-2.5312,-2.5271,-2.5198,-2.5203,-2.5191,-2.5191,-2.5191,-2.5191,-2.5191,-2.5191,-2.5088,-2.4898,-2.4599,0.0,0.0,0.0,0.0,0.0,0.0,0.0,0.0,0.0,0.0,0.0,0.0,0.0,0.0,0.0,0.0,0.0,0.0,0.0,0.0,0.0,0.0,0.0,0.0,0.0,0.0,0.0,0.0,0.0,0.0,0.0,0.0,-2.2489,-2.2849,-2.3088,-2.315,-2.3326,-2.3552,-2.3866,-2.3879,-2.3954,-2.4117,-2.31,-2.2523,-2.2339,-2.2585,-2.2673,-2.2698,-2.3326,-2.3615,-2.3665,-2.4406,-2.5034,-2.5586,-2.6214,-2.6533,-2.6533,-2.6533,-2.6533,-2.6533,-2.6533,-2.6533,-2.6533,0.0,0.0,0.0,0.0,0.0,0.0,0.0,0.0,0.0,0.0,0.0,0.0,0.0,0.0,0.0,0.0,0.0,0.0,0.0,0.0,0.0,-2.0088,-2.0088,-2.0135,-2.0216,-2.0153,-2.0153,0.0,0.0,0.0,-2.5313,-2.5448,-2.6008,0.0,-2.5977,-2.557,0.0,0.0,0.0,0.0,-2.5369,-2.5332,-2.5243,-2.5228,-2.5214,-2.5191,-2.5191,-2.5191,-2.5191,-2.5191,-2.5132,-2.5004,-2.4757,-2.4549,0.0,0.0,0.0,0.0,0.0,0.0,0.0,0.0,0.0,0.0,0.0,0.0,0.0,0.0,0.0,0.0,0.0,0.0,0.0,0.0,0.0,0.0,0.0,0.0,0.0,0.0,0.0,0.0,0.0,0.0,0.0,-2.1945,-2.202,-2.2108,-2.2108,-2.2108,-2.2297,-2.2711,-2.2711,-2.2702,-2.2802,-2.1857,-2.1305,-2.1174,-2.182,-2.2246,-2.2548,-2.3251,-2.364,-2.3791,-2.4054,-2.4418,-2.4883,-2.5711,-2.6214,-2.6533,-2.6533,-2.6533,-2.6533,-2.6533,-2.6533,-2.6533,0.0,0.0,0.0,0.0,0.0,0.0,0.0,0.0,0.0,0.0,0.0,0.0,0.0,0.0,-1.9786,-1.98,0.0,0.0,0.0,0.0,0.0,-2.0088,-2.0088,0.0,-2.0285,-2.0225,0.0,0.0,0.0,0.0,-2.5293,-2.549,-2.7283,-3.0201,-2.7025,-2.5639,-2.5698,0.0,0.0,0.0,0.0,0.0,-2.5389,-2.5313,-2.5261,-2.5191,-2.5191,-2.5191,-2.5191,-2.5191,-2.521,-2.5199,-2.5168,-2.4898,-2.4547,0.0,0.0,0.0,0.0,0.0,0.0,0.0,0.0,0.0,0.0,0.0,0.0,0.0,0.0,0.0,0.0,0.0,0.0,0.0,0.0,0.0,0.0,0.0,0.0,0.0,0.0,0.0,0.0,0.0,0.0,-2.1556,-2.1531,-2.1531,-2.1531,-2.1531,-2.1543,-2.1568,-2.1568,-2.1744,-2.2038,-2.1299,-2.1262,-2.1926,-2.1681,-2.2083,-2.3015,-2.2611,-2.2686,-2.3153,-2.3766,-2.4318,-2.4833,-2.4883,-2.5523,-2.6533,-2.6533,-2.6533,-2.6533,-2.6533,-2.6533,-2.6533,0.0,0.0,0.0,0.0,0.0,0.0,0.0,0.0,0.0,0.0,0.0,0.0,0.0,-1.9947,-2.0207,-2.072,-2.1945,0.0,0.0,0.0,0.0,-2.1835,-2.0728,-2.0153,-2.0304,-2.033,0.0,0.0,0.0,-2.4246,-2.5423,-2.5507,-2.623,-2.7406,-2.6107,-2.557,-2.5639,-2.555,0.0,0.0,0.0,0.0,0.0,0.0,0.0,0.0,0.0,0.0,0.0,-2.5191,-2.5191,-2.518,-2.5095,-2.5004,-2.4846,-2.4444,0.0,0.0,0.0,0.0,0.0,0.0,0.0,0.0,0.0,0.0,0.0,0.0,0.0,0.0,0.0,0.0,0.0,0.0,0.0,0.0,0.0,0.0,0.0,0.0,0.0,0.0,0.0,0.0,0.0,0.0,-2.0966,-2.0966,-2.0966,-2.0966,-2.1129,-2.1481,-2.1493,-2.138,-2.1154,-2.0891,-2.0715,-2.0602,-2.084,-2.1355,-2.2083,-2.2234,-2.2611,-2.3078,-2.3351,-2.3552,-2.3791,-2.4531,-2.4619,-2.4469,-2.59,-2.6533,-2.6533,-2.6533,-2.6533,-2.6533,0.0,0.0,0.0,0.0,0.0,0.0,0.0,0.0,0.0,0.0,0.0,0.0,0.0,0.0,-2.1253,-2.1988,-2.2774,-2.3149,-2.292,-2.2988,-2.3235,-2.37,-2.2577,-2.1971,-2.2034,0.0,0.0,0.0,0.0,0.0,0.0,-2.5456,-2.5503,-2.5629,-2.5589,-2.557,0.0,0.0,0.0,-2.5632,0.0,0.0,-2.5608,0.0,0.0,0.0,0.0,0.0,0.0,0.0,-2.5191,-2.5168,-2.5076,0.0,0.0,0.0,0.0,0.0,0.0,0.0,0.0,0.0,0.0,0.0,0.0,0.0,0.0,0.0,0.0,0.0,0.0,0.0,0.0,0.0,0.0,0.0,0.0,0.0,0.0,0.0,0.0,0.0,0.0,0.0,0.0,-2.0413,-2.0213,0.0,-2.0363,-2.0213,-2.0363,-2.0903,-2.0928,-2.074,-2.0376,-2.0376,-2.0188,-1.9811,-2.0188,-2.0702,-2.1317,-2.1619,-2.2133,-2.2702,-2.2702,-2.2852,-2.3128,-2.3941,-2.3816,-2.3215,-2.477,-2.5347,-2.5347,-2.5347,-2.5812,-2.6533,0.0,0.0,0.0,0.0,0.0,0.0,0.0,0.0,0.0,-1.99,0.0,0.0,0.0,0.0,0.0,-2.3452,-2.3052,-2.3486,-2.5187,-2.433,-2.4265,-2.5445,0.0,0.0,0.0,0.0,0.0,0.0,0.0,0.0,0.0,0.0,-2.5388,-2.5519,-2.5629,-2.5618,-2.5499,0.0,-2.571,-2.5707,0.0,-2.5625,-2.5622,0.0,0.0,0.0,-2.5726,-2.5303,0.0,0.0,0.0,0.0,0.0,0.0,0.0,0.0,0.0,0.0,0.0,0.0,0.0,0.0,0.0,0.0,0.0,0.0,0.0,0.0,0.0,0.0,0.0,0.0,0.0,0.0,0.0,0.0,0.0,0.0,0.0,0.0,0.0,0.0,0.0,0.0,0.0,-1.9798,-1.9284,-1.9221,-1.9723,-1.9284,-1.9233,-1.9748,-1.9773,-1.9773,-1.9773,-1.9798,-1.9798,-1.9798,-1.9798,-2.02,-2.0886,-2.0765,-2.1167,-2.1963,-2.2001,-2.2414,-2.3078,-2.3078,-2.3078,-2.3078,-2.3078,-2.3078,-2.3078,-2.3078,-2.4506,-2.6433,0.0,0.0,0.0,0.0,0.0,0.0,0.0,0.0,0.0,0.0,0.0,0.0,-2.1773,-2.2297,-2.2861,-2.3445,-2.4124,-2.473,-2.5264,-2.5014,-2.506,-2.5484,-2.5515,-2.5464,0.0,0.0,0.0,0.0,0.0,0.0,0.0,0.0,0.0,0.0,-2.5388,-2.5341,-2.536,-2.5495,0.0,0.0,-2.5703,-2.5691,0.0,0.0,0.0,0.0,0.0,-2.5303,-2.5303,0.0,-2.5262,-2.519,0.0,0.0,0.0,0.0,0.0,0.0,-2.3728,0.0,0.0,0.0,0.0,0.0,0.0,0.0,0.0,0.0,0.0,0.0,0.0,0.0,0.0,0.0,0.0,0.0,0.0,0.0,0.0,0.0,0.0,0.0,0.0,0.0,-1.8819,0.0,-1.8518,-1.8493,-1.8643,-1.8505,-1.8606,-1.8995,-1.9158,-1.9246,-1.9246,-1.961,-1.9798,-1.9798,-1.9798,-2.02,-2.0886,-2.0836,-2.1154,-2.1681,-2.2485,-2.289,-2.3078,-2.3078,-2.3078,-2.3078,-2.3078,-2.3078,-2.3078,-2.3078,-2.3527,-2.4054,0.0,0.0,0.0,0.0,0.0,0.0,-1.9613,-1.9824,-2.042,0.0,0.0,0.0,0.0,-2.3629,-2.3919,-2.4192,-2.4823,-2.522,-2.5303,-2.5303,-2.5351,-2.5484,-2.5511,-2.5415,-2.5271,0.0,0.0,0.0,0.0,0.0,0.0,0.0,0.0,0.0,0.0,0.0,0.0,0.0,0.0,0.0,-2.5707,0.0,0.0,-2.5957,-2.5972,0.0,0.0,0.0,-2.7206,-2.5783,-2.516,0.0,0.0,0.0,0.0,0.0,0.0,0.0,0.0,0.0,0.0,0.0,0.0,0.0,-2.2849,-2.2825,0.0,0.0,0.0,0.0,0.0,0.0,0.0,0.0,0.0,0.0,0.0,0.0,0.0,0.0,0.0,0.0,0.0,-1.8204,-1.8204,-1.8204,-1.799,-1.7865,-1.7865,-1.7928,-1.8129,-1.8493,-1.8756,-1.8832,-1.8681,-1.9133,-1.9271,-1.9133,-1.9271,-1.9572,-1.9972,-2.0273,-2.0577,-2.0828,-2.1468,-2.1744,-2.182,-2.2689,-2.3078,-2.3078,-2.3078,-2.3078,-2.3078,-2.3078,-2.3078,-2.3078,0.0,0.0,0.0,-2.0215,-2.0139,-2.0126,-2.0527,-2.057,-2.0593,0.0,0.0,0.0,0.0,-2.5448,-2.5416,-2.5225,-2.5209,-2.5243,-2.5303,-2.5293,-2.5361,-2.5468,-2.5476,-2.5379,-2.5214,-2.5252,0.0,0.0,0.0,0.0,0.0,0.0,0.0,0.0,0.0,0.0,0.0,0.0,0.0,-2.5673,-2.5687,-2.7348,0.0,0.0,-2.5264,0.0,-2.8581,-2.9736,-2.936,-2.6322,-2.5031,0.0,0.0,0.0,0.0,0.0,-2.3504,0.0,0.0,0.0,0.0,0.0,0.0,0.0,-2.285,-2.2607,-2.2385,0.0,0.0,0.0,0.0,0.0,0.0,0.0,0.0,0.0,0.0,0.0,0.0,0.0,0.0,0.0,-1.8016,-1.8016,-1.8016,-1.8016,-1.7564,-1.7287,-1.7287,-1.7413,-1.7652,-1.8003,-1.8392,-1.8405,-1.8016,-1.8442,-1.8493,-1.8204,-1.8505,-1.8719,-1.8844,-1.951,-1.9798,-1.9798,-1.9798,-1.9798,-1.9949,-2.1945,-2.2852,-2.3078,-2.3078,-2.3078,-2.3078,-2.3078,-2.3078,-2.3078,0.0,0.0,-2.0386,-2.1836,-2.0929,-2.0937,-2.3751,-2.4232,-2.4264,0.0,0.0,0.0,0.0,0.0,-2.5322,-2.5283,-2.5283,-2.5293,-2.5303,-2.525,-2.525,-2.5332,-2.5341,-2.5322,-2.5283,-2.5239,-2.5225,0.0,0.0,0.0,0.0,0.0,0.0,0.0,0.0,0.0,0.0,0.0,0.0,-2.5544,-2.5601,0.0,-2.6226,-2.5553,-2.5284,-2.537,-2.6022,-2.6263,-2.6187,0.0,-2.5243,-2.5091,0.0,0.0,0.0,0.0,0.0,0.0,0.0,0.0,0.0,0.0,0.0,0.0,-2.2254,-2.2108,-2.1931,0.0,0.0,0.0,0.0,0.0,0.0,0.0,0.0,0.0,0.0,0.0,0.0,0.0,0.0,0.0,-1.6848,-1.6848,-1.6848,-1.6848,-1.6748,-1.6685,-1.6685,-1.671,-1.6773,-1.6848,-1.7488,-1.7513,-1.6861,-1.7815,-1.8267,-1.8204,-1.8279,-1.8756,-1.9597,-1.9736,-1.9798,-1.9798,-1.9798,-1.9798,-1.9836,-2.0275,-2.1506,-2.3078,-2.3078,-2.3078,-2.3078,-2.3078,-2.3078,-2.3078,0.0,0.0,-2.0327,-2.1204,-2.2074,-2.3223,-2.4943,-2.5261,0.0,0.0,0.0,0.0,0.0,0.0,0.0,0.0,-2.5303,-2.5303,-2.5303,-2.5282,-2.5252,-2.5303,-2.5303,-2.5303,-2.5303,-2.5228,-2.5214,0.0,0.0,0.0,0.0,0.0,0.0,0.0,0.0,0.0,0.0,0.0,-2.5258,-2.537,-2.5571,0.0,-2.5303,-2.5303,-2.5303,-2.5303,-2.5303,-2.5303,-2.5303,-2.5303,-2.5303,0.0,0.0,-2.534,-2.5597,0.0,-2.4378,-2.4646,0.0,0.0,0.0,-2.2738,0.0,0.0,0.0,-2.2022,-2.1878,-2.1462,-2.0588,0.0,0.0,0.0,0.0,0.0,0.0,0.0,0.0,0.0,0.0,0.0,0.0,0.0,-1.6522,-1.6522,-1.6522,-1.6522,-1.6522,-1.6522,-1.6522,-1.6522,-1.6522,-1.6522,-1.6873,-1.6886,-1.6522,-1.7087,-1.7363,-1.7363,-1.7363,-1.7639,-1.8204,-1.9309,-1.9798,-1.9798,-1.9798,-1.9798,-1.9798,-1.9798,-2.0464,-2.1468,-2.1468,-2.1468,-2.1468,-2.1468,-2.2171,-2.3078,-2.0069,0.0,0.0,-2.0967,-2.3429,-2.5273,-2.5206,-2.5271,0.0,0.0,0.0,0.0,0.0,0.0,0.0,0.0,0.0,-2.5303,0.0,0.0,0.0,-2.5303,-2.5303,-2.5303,-2.5303,-2.525,-2.5261,-2.5332,0.0,0.0,0.0,0.0,0.0,0.0,0.0,0.0,0.0,0.0,0.0,-2.5217,0.0,-2.5473,-2.5303,-2.5303,-2.5303,-2.5303,-2.5303,-2.5303,-2.5399,-2.6,-2.5781,-2.538,-2.5751,-2.5934,0.0,0.0,0.0,0.0,0.0,0.0,0.0,0.0,0.0,-2.2508,0.0,0.0,0.0,-2.1323,-2.0648,0.0,0.0,0.0,0.0,0.0,0.0,0.0,0.0,0.0,0.0,0.0,0.0,0.0,-1.6522,-1.6522,-1.6522,-1.6522,-1.6522,-1.6522,-1.6522,-1.6522,-1.6522,-1.6522,-1.6522,-1.6522,-1.6522,-1.6522,-1.6522,-1.6522,-1.6522,-1.6522,-1.6572,-1.8355,-1.9397,-1.9798,-1.9798,-1.9798,-1.9798,-1.9798,-1.9798,-1.9798,-1.9798,-1.9798,-1.9798,-1.9798,-2.0941,-2.256,-2.0297,-2.0004,0.0,0.0,-2.5004,-2.5283,-2.5212,-2.5253,0.0,0.0,0.0,0.0,0.0,0.0,0.0,0.0,0.0,0.0,-2.5303,0.0,0.0,-2.5303,-2.5303,-2.5303,-2.5303,-2.5293,-2.5341,-2.5476,0.0,0.0,0.0,0.0,0.0,0.0,-2.5252,0.0,0.0,0.0,-2.6615,0.0,-2.5241,-2.5264,0.0,-2.5303,-2.5303,-2.5303,-2.5303,-2.5303,-2.5714,0.0,-2.7561,-2.5618,0.0,-2.707,-2.5909,0.0,0.0,0.0,0.0,0.0,0.0,0.0,-2.2388,0.0,0.0,0.0,-2.137,-2.1023,0.0,-1.9551,-1.891,0.0,0.0,0.0,0.0,0.0,0.0,0.0,0.0,0.0,0.0,0.0,-1.6522,-1.6522,-1.6522,-1.6522,-1.6522,-1.6522,-1.6522,-1.6522,-1.6522,-1.6522,-1.6522,-1.6522,-1.6522,-1.6522,-1.6522,-1.6522,-1.6522,-1.6522,-1.6522,-1.6773,-1.7953,-1.9798,-1.9798,-1.9798,-1.9798,-1.9798,-1.9798,-1.9798,-1.9798,-1.9798,-1.9798,-1.9798,-1.9962,-2.0464,-2.305,-2.2928,0.0,0.0,-2.5233,-2.5303,-2.5264,-2.5274,0.0,0.0,0.0,0.0,0.0,0.0,0.0,0.0,0.0,-2.7418,0.0,0.0,0.0,0.0,0.0,0.0,-2.5303,-2.5271,-2.5322,-2.5511,-2.5416,0.0,0.0,0.0,0.0,0.0,-2.5313,0.0,-2.5249,0.0,0.0,0.0,0.0,0.0,0.0,-2.7416,-2.696,-2.5303,-2.5303,-2.5303,-2.5504,0.0,-2.7644,0.0,0.0,0.0,0.0,0.0,0.0,0.0,0.0,0.0,0.0,0.0,0.0,0.0,-2.1721,0.0,-2.1276,0.0,0.0,0.0,0.0,0.0,0.0,0.0,-1.5703,0.0,0.0,0.0,0.0,0.0,0.0,0.0,-1.6207,-1.6064,-1.6139,-1.6466,-1.6522,-1.6522,-1.6522,-1.6522,-1.6522,-1.6522,-1.6522,-1.6522,-1.6522,-1.6522,-1.6522,-1.6522,-1.6522,-1.6522,-1.6522,-1.6522,-1.7024,-1.7903,-1.7903,-1.8618,-1.9798,-1.9798,-1.9798,-1.9798,-1.9798,-1.9798,-1.9798,-1.9798,-1.9798,-2.0125,-2.505,0.0,0.0,0.0,0.0,0.0,-2.5332,0.0,0.0,0.0,0.0,0.0,-2.5387,-2.5561,0.0,0.0,0.0,-2.805,0.0,0.0,-2.5303,-2.5303,-2.5303,0.0,0.0,0.0,-2.5341,-2.5451,-2.5476,0.0,0.0,0.0,0.0,0.0,0.0,-2.5287,-2.521,0.0,0.0,-2.6627,-2.6627,-2.6085,-2.5562,-2.7961,-2.7378,-2.5303,-2.5303,-2.5303,-2.5303,-2.5303,-2.6883,0.0,-2.7508,0.0,0.0,0.0,0.0,0.0,-2.3432,0.0,0.0,0.0,0.0,0.0,0.0,0.0,0.0,0.0,0.0,0.0,0.0,0.0,-1.6527,0.0,0.0,-1.5367,0.0,0.0,0.0,0.0,0.0,0.0,0.0,-1.58,-1.592,-1.6337,0.0,-1.6522,-1.6522,-1.6522,-1.6522,-1.6522,-1.6522,-1.6522,-1.6522,-1.6522,-1.6522,-1.6522,-1.6522,-1.6522,-1.6522,-1.6522,-1.6522,-1.6522,-1.6522,-1.7426,-1.8945,-1.9547,-1.9798,-1.9798,-1.9798,-1.9798,-1.9798,-1.9798,-1.9798,-2.0037,-2.511,-2.5303,0.0,0.0,0.0,0.0,0.0,0.0,0.0,0.0,0.0,0.0,0.0,0.0,0.0,0.0,0.0,-2.58,-2.5683,0.0,-2.5303,-2.5303,-2.5303,-2.5262,0.0,0.0,0.0,-2.5313,0.0,0.0,0.0,0.0,0.0,0.0,0.0,-2.5191,-2.5229,-2.5554,-2.7443,-3.0225,-3.0225,-2.8245,-2.5303,0.0,-2.5399,-2.5303,-2.5303,0.0,0.0,-2.5303,-2.536,0.0,0.0,0.0,0.0,0.0,0.0,0.0,0.0,0.0,0.0,-2.2867,0.0,0.0,0.0,0.0,-2.1987,0.0,0.0,0.0,0.0,-1.7162,-1.6502,-1.5635,0.0,0.0,0.0,0.0,0.0,0.0,0.0,0.0,0.0,0.0,0.0,0.0,-1.6306,-1.6522,-1.6522,-1.6522,-1.6522,-1.6522,-1.6522,-1.6522,-1.6522,-1.6522,-1.6522,-1.6522,-1.6522,-1.6522,-1.6522,-1.6522,-1.6522,-1.6522,-1.6522,-1.6559,-1.6785,-1.8932,-1.9798,-1.9798,-1.9798,-1.9798,-1.9798,-1.9798,-1.9798,-1.9811,0.0,0.0,0.0,0.0,0.0,0.0,0.0,-2.5499,0.0,0.0,0.0,0.0,0.0,0.0,-3.0409,0.0,0.0,-2.7857,-2.5583,-2.5337,0.0,0.0,0.0,-2.5262,0.0,0.0,0.0,0.0,0.0,0.0,0.0,0.0,0.0,0.0,0.0,-2.5191,0.0,0.0,0.0,0.0,0.0,-2.7546,-2.8117,0.0,-2.5303,-2.5303,-2.5303,-2.5303,0.0,-2.5303,-2.5303,-2.5388,-2.5933,-2.6635,-2.7215,-2.7006,-2.5981,-2.4762,0.0,0.0,-2.3063,-2.2678,0.0,0.0,0.0,0.0,0.0,0.0,0.0,0.0,0.0,0.0,-1.6269,-1.5603,-1.5142,0.0,0.0,0.0,0.0,0.0,0.0,0.0,0.0,0.0,0.0,0.0,-1.6293,0.0,-1.6522,-1.6522,-1.6522,-1.6522,-1.6522,-1.6522,-1.6522,-1.6522,-1.6522,-1.6522,-1.6522,-1.6522,-1.6522,-1.6522,-1.6522,-1.6522,-1.6522,-1.6522,-1.6572,-1.7325,-1.7626,-1.7777,-1.9233,-1.9798,-1.9798,-1.9798,-1.9798,-1.9798,-2.5332,0.0,0.0,0.0,0.0,0.0,0.0,0.0,0.0,0.0,-2.7472,0.0,-2.9038,0.0,-3.3328,0.0,-3.2502,-2.9456,-2.7264,-2.711,0.0,-3.0302,-2.711,0.0,0.0,0.0,0.0,0.0,0.0,-2.6564,0.0,0.0,0.0,0.0,0.0,0.0,-2.6911,0.0,-2.5466,0.0,0.0,-2.6493,0.0,0.0,-2.5072,-2.5264,0.0,-2.5024,-2.5152,-2.5138,-2.5126,-2.5103,-2.5019,-2.5536,-2.6148,-2.5852,-2.5411,-2.4868,-2.4137,-2.3714,0.0,-2.2848,-2.2842,0.0,-2.1784,0.0,0.0,0.0,0.0,0.0,0.0,0.0,0.0,-1.5691,-1.5232,-1.4915,0.0,-1.4834,0.0,0.0,0.0,0.0,0.0,0.0,0.0,-1.5988,-1.6262,-1.6436,0.0,-1.6522,-1.6522,-1.6522,-1.6522,-1.6522,-1.6522,-1.6522,-1.6522,-1.6522,-1.6522,-1.6522,-1.6522,-1.6522,-1.6522,-1.6522,-1.6522,-1.6522,-1.6522,-1.6522,-1.6522,-1.6735,-1.8945,-1.9798,-1.9798,-1.9798,-1.9798,-1.9798,0.0,0.0,0.0,0.0,-2.5507,0.0,0.0,0.0,-2.8904,0.0,-3.0998,-3.3186,-3.5264,-3.5493,-3.5493,-3.5493,-3.2359,0.0,-3.0398,-3.0398,0.0,0.0,-2.7033,-2.6822,-3.0071,0.0,0.0,0.0,0.0,0.0,0.0,0.0,0.0,0.0,-2.5191,0.0,-2.9989,-2.6691,-2.5303,-2.5303,-2.5274,-2.5302,-2.5288,-2.4512,-2.4685,-2.5228,-2.4495,-2.4508,-2.4858,-2.4785,-2.4775,-2.4832,-2.5149,-2.4766,-2.419,-2.419,-2.419,-2.419,-2.419,-2.3996,-2.3714,-2.3369,-2.3568,0.0,0.0,0.0,-2.2657,0.0,0.0,0.0,0.0,0.0,0.0,-1.5836,-1.5277,-1.4823,0.0,0.0,0.0,0.0,0.0,0.0,0.0,0.0,-1.5647,-1.5944,-1.6144,-1.6275,0.0,-1.6479,-1.6479,-1.6522,-1.6522,-1.6522,-1.6522,-1.6522,-1.6522,-1.6522,-1.6522,-1.6522,-1.6522,-1.6522,-1.6522,-1.6522,-1.6522,-1.6522,-1.6522,-1.6522,-1.6522,-1.6722,-1.8832,-1.9648,-1.9648,-1.9761,-1.9798,-1.9798,-2.5341,-2.5415,-2.5499,0.0,-2.5498,-2.5531,0.0,0.0,0.0,0.0,-3.1874,-3.3079,-3.527,-3.5493,-3.5493,-3.5493,-3.2359,0.0,0.0,0.0,0.0,-2.6726,-2.5764,-2.5707,-2.6591,-2.5725,0.0,-2.5191,0.0,0.0,-2.5191,0.0,0.0,0.0,0.0,0.0,-2.9989,-2.6691,-2.5303,-2.5293,-2.5031,-2.5435,-2.6081,0.0,-2.5107,-2.5645,-2.4907,-2.4526,-2.4374,-2.4357,-2.4357,-2.4375,-2.4461,-2.4357,-2.419,-2.419,-2.419,-2.419,-2.419,-2.3896,-2.3522,-2.3212,-2.3005,-2.2607,0.0,0.0,0.0,0.0,0.0,0.0,0.0,0.0,0.0,0.0,0.0,0.0,0.0,0.0,0.0,-1.4811,0.0,0.0,0.0,0.0,-1.5736,-1.5724,-1.6001,-1.6275,-1.6479,0.0,-1.651,-1.6522,-1.6522,-1.6522,-1.6522,-1.6522,-1.6522,-1.6522,-1.6522,-1.6522,-1.6522,-1.6522,-1.6522,-1.6522,-1.6522,-1.6522,-1.6522,-1.6522,-1.6522,-1.6572,-1.7137,-1.7363,-1.7564,-1.9196,-1.9798,-1.9798,-2.5369,0.0,0.0,-2.5495,0.0,0.0,-2.6935,0.0,0.0,-3.1862,-3.2551,0.0,-3.5315,-3.5051,-3.4359,-3.3359,-3.1513,0.0,-3.0398,0.0,0.0,-2.5437,-2.5303,-2.5303,-2.5303,-2.5303,0.0,-2.7474,0.0,0.0,-2.7351,0.0,0.0,0.0,0.0,-2.8382,0.0,-2.6499,-2.508,-2.5049,-2.4888,-2.5152,0.0,-2.4818,-2.4858,-2.5227,-2.4711,-2.4444,-2.4321,-2.4228,-2.419,-2.419,-2.419,-2.419,-2.419,-2.419,-2.419,-2.419,-2.419,-2.3876,-2.3437,-2.3189,-2.3127,-2.2822,-2.1634,-2.1376,-2.1126,0.0,-1.9177,-1.8263,0.0,0.0,0.0,0.0,0.0,0.0,0.0,0.0,0.0,0.0,-1.4857,0.0,0.0,-1.5468,-1.5736,-1.5591,-1.5824,-1.5957,-1.6076,0.0,-1.6268,-1.6306,-1.6673,-1.6773,-1.6522,-1.6773,-1.6773,-1.6522,-1.6522,-1.6522,-1.6522,-1.6522,-1.6522,-1.6522,-1.6522,-1.6522,-1.6522,-1.6522,-1.6522,-1.6522,-1.6522,-1.6522,-1.6672,-1.7903,-1.8982,-1.9798,0.0,0.0,0.0,0.0,0.0,0.0,0.0,-3.1551,0.0,-3.1734,0.0,-3.3936,-3.4936,-3.4301,-3.2878,-3.059,0.0,-3.0398,-3.0398,-3.0398,-2.886,-2.5437,-2.5303,-2.5303,-2.5303,-2.5303,0.0,0.0,0.0,0.0,0.0,0.0,0.0,0.0,0.0,0.0,0.0,-2.6415,-2.4904,-2.4731,-2.4746,-2.4685,-2.4545,-2.4303,-2.4303,-2.4445,-2.4247,-2.4321,-2.4426,-2.4266,-2.419,-2.419,-2.419,-2.419,-2.419,-2.419,-2.419,-2.419,-2.4133,-2.3756,-2.3369,-2.3165,-2.3388,-2.3232,-2.185,-2.1714,-2.1528,-2.0438,-1.9059,-1.8027,-1.8066,0.0,0.0,0.0,0.0,0.0,0.0,0.0,0.0,0.0,0.0,0.0,0.0,0.0,-1.5736,-1.5635,-1.5635,-1.5635,0.0,0.0,-1.6032,-1.6076,-1.6878,-1.7061,-1.6635,-1.7049,-1.7049,-1.6635,-1.6559,-1.6522,-1.6522,-1.6522,-1.6552,-1.6595,-1.6522,-1.6552,-1.6595,-1.6522,-1.6522,-1.6522,-1.6522,-1.6522,-1.6522,-1.6522,-1.7727,-1.9409,0.0,0.0,0.0,0.0,0.0,-3.0925,-3.4276,-3.27,-3.1025,-3.0775,-3.1693,-3.2455,-3.2667,-3.3359,-3.2878,-3.059,-3.0398,0.0,0.0,0.0,0.0,-2.5437,-2.5303,-2.5303,-2.5303,-2.5303,-2.5591,0.0,0.0,0.0,0.0,0.0,0.0,0.0,0.0,0.0,-2.9739,-2.7307,0.0,-2.4321,-2.4478,-2.4545,-2.4495,-2.4284,-2.4228,-2.4247,-2.4209,-2.4228,-2.4247,-2.4209,-2.419,-2.419,-2.419,-2.419,-2.419,-2.419,-2.419,-2.4133,-2.3728,-2.3315,-2.2965,-2.2822,-2.2398,-2.1867,-2.1245,-2.0843,-2.0454,-1.994,-1.9229,-1.8574,-1.8027,0.0,0.0,0.0,0.0,0.0,0.0,0.0,0.0,0.0,0.0,-1.5647,0.0,0.0,0.0,-1.5736,0.0,0.0,0.0,0.0,-1.6231,0.0,-1.6566,0.0,0.0,0.0,-1.6861,-1.7225,-1.6748,-1.6522,-1.6522,-1.6522,-1.6752,-1.7146,-1.668,-1.6752,-1.7105,-1.668,-1.6522,-1.6522,-1.6522,-1.6522,-1.6522,-1.6522,-1.676,-1.735,0.0,0.0,0.0,0.0,0.0,0.0,0.0,-3.4284,0.0,-3.3147,-3.2782,-3.2506,-3.2506,-3.2237,-3.1821,-3.1321,-3.0744,-3.0398,-3.0398,-3.0398,-2.886,-2.5437,-2.5303,0.0,-2.5303,-2.5303,-2.5303,-2.5303,0.0,0.0,0.0,0.0,0.0,0.0,0.0,-2.9754,0.0,0.0,0.0,-2.5189,-2.4598,-2.441,-2.4478,-2.4266,-2.419,-2.419,-2.419,-2.419,-2.419,-2.419,-2.419,-2.419,-2.419,-2.419,-2.419,-2.419,-2.4016,-2.3798,-2.366,-2.3117,-2.2554,-2.2415,-2.1955,-2.1334,-2.0781,-2.0449,-2.0193,-1.9782,-1.9043,-1.8224,-1.7353,-1.671,0.0,0.0,0.0,0.0,0.0,0.0,0.0,0.0,0.0,0.0,0.0,0.0,0.0,0.0,0.0,0.0,0.0,0.0,-1.612,0.0,0.0,0.0,-1.6936,0.0,-1.6961,-1.6936,-1.6647,-1.6522,-1.6522,-1.6795,-1.6909,-1.6879,-1.6909,-1.6909,-1.6879,-1.6595,-1.6522,-1.6522,-1.6522,-1.6522,-1.6522,-1.6522,-1.6522,-1.6672,0.0,-2.9979,0.0,0.0,-3.2122,0.0,-3.5089,-3.5493,-3.5526,-3.5584,-3.4026,-3.2891,-3.2891,-3.141,-3.0763,-3.1648,-3.0917,-3.0398,-3.0398,-2.9706,-2.811,-2.5418,-2.5303,-2.5303,-2.5303,-2.5303,-2.5303,0.0,0.0,0.0,0.0,0.0,0.0,0.0,0.0,0.0,0.0,0.0,-2.6243,-2.5757,-2.4635,-2.4303,-2.4428,-2.4247,-2.419,-2.419,-2.419,-2.419,-2.419,-2.419,-2.419,-2.419,-2.419,-2.419,-2.4152,-2.402,-2.378,-2.3526,-2.3446,-2.2898,-2.2343,-2.2175,-2.1749,-2.1238,-2.0585,-2.0302,-2.0081,-1.9782,-1.8855,-1.7787,-1.671,-1.6479,0.0,0.0,0.0,0.0,0.0,0.0,0.0,0.0,0.0,0.0,-1.5534,0.0,0.0,0.0,0.0,0.0,-1.5395,0.0,0.0,0.0,0.0,-1.7036,-1.671,0.0,-1.7024,-1.6697,-1.6701,-1.6595,-1.6522,-1.7118,-1.7146,-1.6866,-1.704,-1.6886,-1.6522,-1.6522,-1.6522,-1.6522,-1.6522,-1.6522,-1.6522,-1.6522,-1.681,-1.7149,0.0,0.0,0.0,0.0,0.0,0.0,-3.5435,-3.5493,-3.5493,-3.5526,-3.3987,-3.2891,-3.2891,-3.141,-3.0436,-3.0552,-3.0456,-3.0398,-3.0398,-2.7495,-2.563,-2.5303,-2.5303,-2.5303,-2.5303,-2.5303,-2.5303,0.0,0.0,-3.0204,0.0,0.0,0.0,0.0,0.0,0.0,0.0,-2.4808,-2.4579,-2.4727,-2.434,-2.4209,-2.4228,-2.4209,-2.419,-2.419,-2.419,-2.419,-2.419,-2.419,-2.419,-2.419,-2.419,-2.419,-2.4077,-2.3467,-2.3473,-2.3508,-2.2653,-2.2539,-2.2599,-2.236,-2.1861,-2.1315,-2.1007,-2.0311,-1.9745,-1.9702,-1.8855,-1.7787,-1.671,-1.6479,-1.6479,0.0,0.0,0.0,0.0,0.0,0.0,0.0,0.0,0.0,0.0,-1.5901,0.0,0.0,-1.5591,0.0,0.0,0.0,0.0,-1.6423,-1.6516,-1.6823,-1.73,-1.6835,-1.6835,-1.7287,-1.7251,-1.6951,-1.6522,-1.7229,-1.7706,-1.788,-1.6969,-1.6555,-1.6522,-1.6522,-1.6522,-1.6522,-1.6522,-1.6522,-1.6522,-1.6522,-1.7777,-1.9208,0.0,0.0,0.0,0.0,0.0,0.0,0.0,-3.5493,-3.5488,-3.5509,-3.3975,-3.2788,-3.2449,-3.1218,-3.0398,-3.0398,-3.0398,-2.9533,-2.7475,-2.6053,-2.5303,-2.5303,-2.5303,-2.5303,-2.5303,-2.5303,-2.5303,0.0,0.0,0.0,0.0,0.0,0.0,0.0,0.0,-2.9144,-2.738,-2.5153,-2.4727,-2.5476,-2.4561,-2.4266,-2.4357,-2.4247,-2.419,-2.419,-2.419,-2.419,-2.419,-2.419,-2.419,-2.419,-2.419,-2.4074,-2.3858,-2.3587,-2.3302,-2.3028,-2.2642,-2.2521,-2.2381,-2.1986,-2.1652,-2.1254,-2.0699,-2.0304,-2.0001,-1.9767,-1.8855,-1.7787,-1.671,-1.6522,-1.6522,-1.6522,0.0,0.0,0.0,0.0,0.0,0.0,0.0,0.0,0.0,0.0,0.0,0.0,0.0,0.0,0.0,0.0,0.0,-1.6367,0.0,-1.6635,-1.6861,-1.6635,-1.6635,-1.6861,-1.6824,-1.671,-1.6522,-1.7271,-1.8145,-1.8954,-1.7235,-1.6511,-1.6522,-1.6522,-1.6522,-1.6522,-1.6522,-1.6522,-1.6522,-1.6522,-1.7074,-1.7702,-3.5353,0.0,-3.366,0.0,-3.468,-3.5493,-3.5493,-3.5064,-3.4924,-3.5445,-3.3975,-3.2769,-3.2372,-3.1179,-3.0398,-3.0398,-2.9475,-2.7879,-2.5457,-2.5303,-2.5303,-2.5303,-2.5303,0.0,-2.5303,-2.5303,-2.5303,-2.5303,-2.6303,0.0,0.0,0.0,0.0,0.0,-3.0114,-2.9886,-2.8852,-2.6583,-2.5671,-2.5693,-2.4617,-2.4284,-2.4393,-2.4247,-2.419,-2.419,-2.419,-2.419,-2.419,-2.419,-2.419,-2.417,-2.4094,-2.3896,-2.3671,-2.3459,-2.3069,-2.2669,-2.2599,-2.2436,-2.2209,-2.1899,-2.1744,-2.1456,-2.0667,-2.0436,-2.0184,-1.9413,-1.8612,-1.7787,-1.671,-1.6522,-1.6522,-1.6522,0.0,0.0,0.0,0.0,0.0,0.0,-1.6522,-1.6436,-1.6318,-1.6275,0.0,0.0,0.0,0.0,0.0,0.0,0.0,0.0,0.0,0.0,-1.6522,-1.6522,-1.6522,-1.6522,-1.6837,-1.6909,-1.6879,-1.7787,-1.8765,-1.9566,-1.7422,-1.6879,-1.7422,-1.7422,-1.7076,-1.6552,-1.7188,-1.7076,-1.6522,-1.6522,-1.6522,-1.6522,-3.5507,-3.5474,-3.5468,-3.5468,-3.5488,-3.5493,-3.5493,-3.4045,-3.3545,-3.5276,-3.3981,-3.2904,-3.2884,-3.1391,-3.0398,-3.0398,-2.7302,-2.5341,-2.5303,-2.5303,-2.5303,0.0,0.0,-2.5303,-2.5303,-2.5303,-2.5303,-2.5303,0.0,0.0,-2.9701,0.0,-3.0398,-3.0367,-3.0398,-2.9879,-2.9004,-2.8963,-2.7359,-2.4779,-2.4375,-2.419,-2.419,-2.419,-2.419,-2.419,-2.419,-2.419,-2.419,-2.419,-2.419,-2.4151,-2.3816,-2.3692,-2.3566,-2.2923,-2.2721,-2.2634,-2.2388,-2.231,-2.231,-2.2282,-2.2282,-2.2049,-2.1197,-2.0799,-2.0115,-1.8464,-1.8106,-1.7787,-1.671,-1.6522,-1.6522,-1.6522,0.0,0.0,0.0,0.0,0.0,0.0,-1.6522,-1.6522,-1.6522,-1.6522,0.0,0.0,0.0,0.0,0.0,0.0,0.0,-1.6466,-1.6522,0.0,-1.6522,-1.6522,-1.6522,-1.6522,-1.7585,-1.7907,-1.7626,-1.9043,-1.969,-1.9566,-1.7422,-1.7706,-1.9639,-1.9639,-1.8419,-1.671,-1.8817,-1.838,-1.6522,-1.6522,-1.6522,-1.6522,-3.5493,-3.5493,-3.5493,-3.5493,-3.5493,-3.5493,-3.5493,-3.5026,-3.4026,-3.2263,-3.357,-3.3775,-3.1448,-3.0717,-3.0398,0.0,-2.7264,-2.5303,0.0,-2.5303,-2.5303,-2.5303,-2.5303,-2.5303,-2.5303,-2.5303,-2.5303,-2.5303,0.0,0.0,0.0,-3.0174,-3.0052,-2.9456,-2.9456,-2.9282,-2.8981,-2.9012,-2.7856,-2.5912,-2.4688,-2.419,-2.419,-2.419,-2.419,-2.419,-2.419,-2.419,-2.419,-2.419,-2.4054,-2.3795,-2.3459,-2.3369,-2.3259,-2.2822,-2.2563,-2.2398,-2.2321,-2.231,-2.231,-2.231,-2.231,-2.2077,-2.1197,-2.0467,-1.9641,-1.8352,-1.8106,-1.7787,-1.671,-1.6522,-1.6522,-1.6522,-1.6522,0.0,-1.6522,0.0,0.0,0.0,-1.6522,-1.6522,-1.6522,-1.6522,0.0,0.0,0.0,0.0,0.0,0.0,0.0,0.0,-1.6479,0.0,-1.6522,-1.6522,-1.6522,-1.6522,-1.6837,-1.6963,-1.6877,-1.7303,-1.8341,-1.9639,-1.8968,-1.8263,-1.7626,-1.9095,-1.9281,-1.8727,-1.9442,-1.9281,-1.8496,-1.7034,-1.6522,-1.6522,-3.5493,-3.5493,-3.5493,-3.5493,-3.5493,-3.5493,-3.5493,-3.5493,-3.4263,-3.084,-3.2261,-3.2774,-3.0641,-3.0398,0.0,-2.8591,-2.6533,-2.5303,-2.5303,-2.5303,-2.5303,-2.5303,-2.5303,-2.5303,-2.5303,-2.5303,0.0,-2.5303,-2.711,-2.8621,-2.978,-2.9848,-2.9551,-2.8994,-2.8994,-2.8994,-2.8994,-2.8994,-2.8407,-2.742,-2.641,-2.5529,-2.4795,-2.4685,-2.4447,-2.419,-2.419,-2.419,-2.417,-2.4036,-2.3876,-2.361,-2.3165,-2.3021,-2.2947,-2.2625,-2.2426,-2.231,-2.231,-2.231,-2.231,-2.231,-2.231,-2.2077,-2.1197,-2.0345,-1.9406,-1.8341,-1.8106,-1.7787,-1.671,-1.6522,-1.6522,-1.6522,-1.6522,-1.6522,-1.6522,0.0,-1.6522,0.0,0.0,0.0,0.0,-1.6522,-1.6522,0.0,0.0,0.0,0.0,0.0,-1.6392,-1.6436,-1.6479,-1.6522,-1.6522,-1.6522,-1.6522,-1.6522,-1.6909,-1.71,-1.7116,-1.7518,-1.7987,-1.8535,-1.9369,-1.893,-1.7827,-1.9169,-1.969,-1.969,-1.969,-1.969,-1.953,-1.8224,-1.7188,-1.6522,-3.5493,-3.5493,-3.5493,-3.5493,-3.5493,-3.5493,-3.5493,-3.5315,-3.3993,-3.0821,-3.0398,-3.0398,-3.0398,-3.0186,-2.8764,-2.5572,0.0,0.0,-2.5303,-2.5303,-2.5303,-2.5303,-2.5303,-2.5303,-2.5303,-2.5303,-2.5322,-2.537,-2.7262,-2.873,-2.9747,-2.9277,-2.9021,-2.8994,-2.8994,-2.8994,-2.8994,-2.8994,-2.8994,-2.8975,-2.8755,-2.7548,-2.5823,-2.5438,-2.4832,-2.419,-2.419,-2.419,-2.4151,-2.3837,-2.3692,-2.3566,-2.2923,-2.2695,-2.2608,-2.236,-2.231,-2.231,-2.231,-2.231,-2.231,-2.231,-2.2237,-2.1991,-2.1134,-2.0261,-1.9369,-1.8302,-1.8066,-1.7747,-1.668,-1.6522,-1.6522,-1.6522,-1.6522,-1.6522,-1.6522,-1.6522,-1.6522,0.0,0.0,0.0,-1.6522,-1.6522,-1.6522,0.0,0.0,0.0,0.0,0.0,-1.6275,-1.6479,-1.6522,-1.6522,-1.6522,-1.6522,-1.6522,-1.6522,-1.7544,-1.8106,-1.8252,-1.9184,-1.8535,-1.6837,-1.8817,-1.969,-1.969,-1.969,-1.969,-1.969,-1.969,-1.969,-1.969,-1.969,-1.8341,-1.6522,0.0,0.0,-3.5493,-3.5493,-3.5493,-3.5493,-3.5493,-3.3282,-3.1321,-3.0513,-3.0398,-3.0398,-3.0398,-2.8071,-2.6168,-2.536,-2.5303,-2.5303,-2.5303,-2.5303,-2.5303,-2.5303,-2.5303,-2.5303,-2.5303,-2.5303,-2.554,-2.607,-2.7347,-2.8174,-2.8539,-2.9118,-2.9249,-2.8994,-2.8994,-2.8994,-2.8994,-2.8994,-2.8994,-2.8773,-2.6337,-2.5768,-2.6282,-2.4979,-2.4373,-2.419,-2.419,-2.419,-2.419,-2.4113,-2.3735,-2.33,-2.3117,-2.2755,-2.2388,-2.2338,-2.231,-2.231,-2.231,-2.231,-2.231,-2.231,-2.1781,-2.115,-2.0583,-1.9743,-1.8893,-1.8263,-1.7787,-1.7312,-1.6637,-1.6522,-1.6522,-1.6522,-1.6522,-1.6522,-1.6522,-1.6522,-1.6522,0.0,-1.6522,-1.6522,-1.6522,-1.6522,-1.6522,0.0,0.0,-1.6362,-1.6479,-1.6318,-1.6275,-1.6479,-1.6522,-1.6522,-1.6522,-1.6522,-1.6522,-1.6522,-1.7146,-1.8124,-1.931,-1.8754,-1.865,-1.8968,-1.9479,-1.969,-1.969,-1.969,-1.969,-1.969,-1.969,-1.969,-1.969,-1.969,-1.8341,-1.6522,-3.5493,-3.5493,-3.5493,-3.5493,-3.5493,-3.4955,-3.3397,-3.159,-3.0398,-3.0398,-3.0398,-2.9802,-2.8245,-2.6399,-2.5303,-2.5303,-2.5303,-2.5303,-2.5303,-2.5303,-2.5303,-2.5303,-2.5303,-2.5303,-2.5303,-2.5303,-2.5484,-2.5849,-2.7001,-2.7418,-2.7173,-2.859,-2.8904,-2.8301,-2.8773,-2.8994,-2.8994,-2.8994,-2.8572,-2.7695,-2.5199,-2.4942,-2.597,-2.5217,-2.463,-2.419,-2.419,-2.419,-2.417,-2.4016,-2.3714,-2.3369,-2.3069,-2.2755,-2.2463,-2.2349,-2.231,-2.231,-2.231,-2.231,-2.2254,-2.2032,-2.1477,-2.0862,-2.0416,-1.9758,-1.9043,-1.8263,-1.7867,-1.7422,-1.6637,-1.6522,-1.6522,-1.6522,-1.6522,-1.6522,-1.6522,-1.6522,-1.6522,-1.6522,-1.6522,-1.6522,-1.6522,-1.6522,-1.6522,-1.6522,-1.6392,0.0,-1.6479,-1.6392,-1.6392,-1.6522,-1.6522,-1.6522,-1.6522,-1.6752,-1.6993,-1.7229,-1.7787,-1.8609,-1.9678,-1.9107,-1.9169,-1.969,-1.969,-1.969,-1.969,-1.969,-1.969,-1.969,-1.969,-1.969,-1.969,-1.969,-1.8341,-1.6522,-3.5493,-3.5493,-3.5493,-3.5493,-3.507,-3.3743,-3.084,-3.0398,-3.0398,-3.0398,-3.0398,-2.9091,-2.5668,-2.5303,-2.5303,-2.5303,-2.5303,-2.5303,-2.5303,-2.5303,-2.5303,-2.5303,-2.5303,-2.5303,-2.5303,-2.5303,-2.5303,-2.5303,-2.6388,-2.6582,-2.5979,-2.7746,-2.8107,-2.7328,-2.8374,-2.8888,-2.9003,-2.8833,-2.7783,-2.613,-2.4739,-2.4612,-2.5256,-2.5474,-2.4997,-2.419,-2.419,-2.419,-2.4151,-2.3876,-2.3735,-2.3588,-2.2972,-2.2746,-2.266,-2.2388,-2.231,-2.231,-2.231,-2.231,-2.218,-2.1628,-2.1244,-2.0862,-2.0314,-1.9894,-1.9281,-1.8302,-1.8027,-1.7666,-1.668,-1.6522,-1.6522,-1.6522,-1.6522,-1.6522,-1.6522,0.0,-1.6522,-1.6522,-1.6522,-1.6522,-1.6522,-1.6522,-1.6522,-1.6522,-1.6522,-1.6522,-1.6522,-1.6522,-1.6522,-1.6522,-1.6522,-1.6552,-1.6637,-1.7076,-1.7585,-1.8106,-1.865,-1.9132,-1.9566,-1.9639,-1.969,-1.969,-1.969,-1.969,-1.969,-1.969,-1.969,-1.969,-1.969,-1.969,-1.969,-1.969,-1.8341,-1.6522,-3.5493,-3.5493,-3.5493,-3.5493,-3.3109,-3.1013,-3.0475,-3.0398,-3.0398,-3.0398,-3.0398,-2.9091,-2.5668,-2.5303,-2.5303,-2.5303,-2.5303,-2.5303,-2.5303,-2.5303,-2.5303,-2.5303,-2.5303,-2.5303,-2.5303,-2.5303,-2.5303,-2.5303,-2.5501,-2.5646,-2.576,-2.6355,-2.6674,-2.6759,-2.7603,-2.8346,-2.8931,-2.8033,-2.645,-2.4551,-2.4315,-2.4263,-2.4392,-2.4428,-2.4337,-2.419,-2.419,-2.419,-2.419,-2.4151,-2.3937,-2.3631,-2.3236,-2.2923,-2.266,-2.2388,-2.231,-2.231,-2.231,-2.231,-2.2123,-2.1291,-2.1055,-2.0797,-1.998,-1.9391,-1.8855,-1.8224,-1.7747,-1.7229,-1.6595,-1.6522,-1.6522,-1.6522,-1.6522,-1.6522,-1.6522,0.0,-1.6522,-1.6522,-1.6522,-1.6522,-1.6522,-1.6522,-1.6522,-1.6522,-1.6522,-1.6522,-1.6522,-1.6522,-1.6522,-1.6522,-1.6522,-1.671,-1.7146,-1.7271,-1.7585,-1.8106,-1.865,-1.893,-1.9043,-1.9479,-1.969,-1.969,-1.969,-1.969,-1.969,-1.969,-1.969,-1.969,-1.969,-1.969,-1.969,-1.969,-1.8341,-1.6522,-3.5493,-3.5493,-3.5493,-3.5493,-3.2667,-3.0398,-3.0398,-3.0398,-3.0398,-3.0398,-3.0398,-2.9091,-2.5668,-2.5303,-2.5303,-2.5303,-2.5303,-2.5303,-2.5303,-2.5303,-2.5303,-2.5303,-2.5303,-2.5303,-2.5303,-2.5303,-2.5303,-2.5303,-2.5303,-2.5317,-2.5351,-2.6277,-2.6278,-2.5523,-2.6762,-2.7606,-2.811,-2.7607,-2.6493,-2.5022,-2.4426,-2.419,-2.419,-2.419,-2.419,-2.419,-2.419,-2.419,-2.419,-2.419,-2.3976,-2.3649,-2.3323,-2.2972,-2.266,-2.2388,-2.231,-2.231,-2.231,-2.231,-2.2077,-2.1229,-2.0991,-2.0764,-1.9909,-1.953,-1.9169,-1.865,-1.8341,-1.7987,-1.7463,-1.7353,-1.7271,-1.6993,-1.6909,-1.6837,-1.6552,-1.6522,-1.6522,-1.6522,-1.6522,-1.6522,-1.6522,-1.6522,-1.6522,-1.6522,-1.6522,-1.6522,-1.6522,-1.6522,-1.6522,-1.6522,-1.6795,-1.7034,-1.7312,-1.7867,-1.8302,-1.8535,-1.908,-1.9332,-1.9332,-1.9603,-1.969,-1.969,-1.969,-1.969,-1.969,-1.969,-1.969,-1.969,-1.969,-1.969,-1.969,-1.969,-1.8341,-1.6522,-3.5339,-3.4859,-3.4301,-3.4301,-3.2128,-3.0398,-3.0398,-2.9725,-2.9494,-3.0302,-3.0398,-2.9398,-2.6764,-2.5783,-2.5303,-2.5303,-2.5303,-2.5303,-2.5303,-2.5303,-2.5303,-2.5303,-2.5303,-2.5303,-2.5303,-2.5303,-2.5303,-2.5303,-2.5303,-2.5214,-2.5096,-2.6132,-2.5858,-2.4551,-2.5931,-2.6594,-2.6667,-2.6924,-2.641,-2.5364,-2.452,-2.419,-2.419,-2.419,-2.419,-2.419,-2.419,-2.419,-2.419,-2.419,-2.4016,-2.3774,-2.3414,-2.3141,-2.2848,-2.249,-2.2349,-2.231,-2.231,-2.231,-2.2077,-2.1229,-2.0991,-2.0764,-1.9909,-1.969,-1.9566,-1.9006,-1.8893,-1.8727,-1.8224,-1.8106,-1.7987,-1.7544,0.0,-1.7312,-1.6752,-1.668,-1.6637,-1.6522,-1.6522,-1.6522,-1.6522,-1.6522,-1.6522,-1.6522,-1.6522,-1.6522,-1.6522,-1.6522,-1.6552,-1.668,-1.7076,-1.7353,-1.7463,-1.8419,-1.8968,-1.9095,-1.9479,-1.969,-1.969,-1.969,-1.969,-1.969,-1.969,-1.969,-1.969,-1.969,-1.969,-1.969,-1.969,-1.969,-1.969,-1.969,-1.8341,-1.6522,-3.4878,-3.2936,-3.0782,-3.0782,-3.0571,-3.0398,-3.0398,-2.7706,-2.6802,-2.9994,-3.0398,-3.0302,-3.0052,-2.7187,-2.5303,-2.5303,-2.5303,-2.5303,-2.5303,-2.5303,-2.5303,-2.5303,-2.5303,-2.5303,-2.5303,-2.5303,-2.5303,-2.5303,-2.5303,-2.5284,-2.5264,-2.4946,-2.469,-2.4532,-2.5207,-2.5109,-2.4502,-2.5493,-2.5309,-2.43,-2.4226,-2.419,-2.419,-2.419,-2.419,-2.419,-2.419,-2.419,-2.419,-2.419,-2.417,-2.4094,-2.3774,-2.3649,-2.35,-2.2848,-2.25,-2.231,-2.231,-2.231,-2.2077,-2.1229,-2.0991,-2.0764,-1.9909,-1.969,-1.9566,-1.9006,-1.8893,-1.8727,-1.8224,-1.8106,-1.8106,-1.8066,0.0,0.0,-1.7312,-1.7229,-1.7076,-1.6552,-1.6522,-1.6522,-1.6522,-1.6522,-1.6522,-1.6522,-1.6522,-1.6522,-1.6522,-1.6522,-1.671,-1.7229,-1.7271,-1.7544,-1.8027,-1.8612,-1.9169,-1.9639,-1.969,-1.969,-1.969,-1.969,-1.969,-1.969,-1.969,-1.969,-1.969,-1.969,-1.969,-1.969,-1.969,-1.969,-1.969,-1.969,-1.8341,-1.6522,-3.2071,-3.1282,-3.0398,-3.0398,-3.0398,-3.0398,-3.0398,-2.7495,-2.5764,-2.7072,-2.9071,-3.0398,-3.0398,-2.9244,-2.761,-2.5495,-2.5303,-2.5303,-2.5303,-2.5303,-2.5303,-2.5303,-2.5303,-2.5303,-2.5303,-2.5303,-2.5303,-2.5303,-2.5091,-2.5012,-2.5053,-2.4828,-2.4639,-2.4513,-2.4743,-2.4875,-2.4924,-2.485,-2.4961,-2.5126,-2.4465,-2.4593,-2.5126,-2.4447,-2.4502,-2.4869,-2.4373,-2.419,-2.419,-2.419,-2.4074,-2.3837,-2.35,-2.3253,-2.2996,-2.2581,-2.2388,-2.231,-2.231,-2.231,-2.2077,-2.1229,-2.0991,-2.0764,-1.9909,-1.969,-1.9639,-1.9442,-1.9406,-1.9332,-1.9132,-1.9095,-1.8968,-1.865,0.0,-1.8302,-1.7435,-1.7312,-1.7118,-1.6552,-1.6522,-1.6522,-1.6522,-1.6522,-1.6522,-1.6522,-1.6522,-1.6522,-1.6522,-1.6837,-1.7076,-1.7312,-1.7947,-1.838,-1.8574,-1.9132,-1.9479,-1.969,-1.969,-1.969,-1.969,-1.969,-1.969,-1.969,-1.969,-1.969,-1.969,-1.969,-1.969,-1.969,-1.969,-1.969,-1.969,-1.969,-1.8341,-1.6522,-3.0398,-3.0398,-3.0052,-2.8994,-2.8802,-2.8802,-2.8802,-2.6802,-2.5303,-2.5303,-2.8283,-3.0398,-3.0398,-2.9437,-2.7841,-2.5495,-2.5303,-2.5303,-2.5303,-2.5303,-2.5303,-2.5303,-2.5303,-2.5303,-2.5303,-2.5303,-2.5182,-2.4943,-2.4949,-2.491,-2.4804,-2.4756,-2.4654,-2.4528,-2.4426,-2.4635,-2.4999,-2.4428,-2.4759,-2.5585,-2.4593,-2.4795,-2.5566,-2.4575,-2.4538,-2.4962,-2.4392,-2.419,-2.4245,-2.4483,-2.4255,-2.3852,-2.3876,-2.3407,-2.2797,-2.25,-2.2377,-2.231,-2.231,-2.231,-2.2077,-2.1229,-2.0991,-2.0764,-1.9909,-1.969,-1.969,-1.969,-1.969,-1.969,-1.969,-1.969,-1.9566,-1.9207,-1.9169,-1.8779,-1.7706,-1.7544,-1.7312,-1.6595,-1.6522,-1.6522,-1.6522,-1.6522,-1.6522,-1.6522,-1.6522,-1.6552,-1.6752,-1.7271,-1.7626,-1.7787,-1.8688,-1.9169,-1.9169,-1.953,-1.969,-1.969,-1.969,-1.969,-1.969,-1.969,-1.969,-1.969,-1.969,-1.969,-1.969,-1.969,-1.969,-1.969,-1.969,-1.969,-1.9603,-1.893,-1.7747,-1.6522,-3.0398,-3.0398,-2.9321,-2.5899,-2.5303,-2.5303,-2.5303,-2.5322,-2.5322,-2.5303,-2.8283,-3.0398,-3.0398,-2.736,-2.5322,-2.5303,-2.5303,-2.5303,-2.5303,-2.5303,-2.5303,-2.5303,-2.5303,-2.5303,-2.5303,-2.5303,-2.4943,-2.4209,-2.493,-2.5049,-2.4594,-2.4594,-2.4594,-2.4596,-2.4321,-2.419,-2.419,-2.419,-2.4649,-2.5329,-2.452,-2.4667,-2.5329,-2.4502,-2.4208,-2.4208,-2.4208,-2.4208,-2.4318,-2.5146,-2.4869,-2.4355,-2.5126,-2.4368,-2.3117,-2.2797,-2.25,-2.231,-2.231,-2.231,-2.2077,-2.1229,-2.0991,-2.0764,-1.9909,-1.969,-1.969,-1.969,-1.969,-1.969,-1.969,-1.969,-1.969,-1.969,-1.969,-1.9332,-1.8263,-1.8106,-1.7706,-1.6637,-1.6522,-1.6522,-1.6522,-1.6522,-1.6522,-1.6522,-1.6522,-1.6752,-1.7271,-1.7827,-1.8341,-1.8893,-1.9406,-1.969,-1.969,-1.969,-1.969,-1.969,-1.969,-1.969,-1.969,-1.969,-1.969,-1.969,-1.969,-1.969,-1.969,-1.969,-1.969,-1.969,-1.969,-1.969,-1.9442,-1.7312,-1.6522,-1.6522,-3.0398,-3.0398,-2.9321,-2.5899,-2.5303,-2.5303,-2.5303,-2.7341,-2.8014,-2.561,-2.8283,-3.0398,-3.0398,-2.9494,-2.7898,-2.5514,-2.5303,-2.5303,-2.5303,-2.5303,-2.5303,-2.5303,-2.5303,-2.5303,-2.5303,-2.5303,-2.5192,-2.4968,-2.4663,-2.4461,-2.4321,-2.4321,-2.4321,-2.4321,-2.4228,-2.419,-2.419,-2.419,-2.4337,-2.4538,-2.43,-2.4795,-2.5621,-2.5199,-2.5054,-2.5127,-2.5676,-2.5511,-2.509,-2.5329,-2.5256,-2.4901,-2.4122,-2.3407,-2.2797,-2.25,-2.236,-2.231,-2.231,-2.231,-2.2077,-2.1229,-2.0991,-2.0764,-1.9909,-1.969,-1.969,-1.969,-1.969,-1.969,-1.969,-1.969,-1.9839,-2.0333,-2.0004,-1.9605,-1.9394,-1.8949,-1.8419,-1.7706,-1.7312,-1.7076,-1.7076,-1.671,-1.6522,-1.6522,-1.6837,-1.7105,-1.7312,-1.8185,-1.8727,-1.8893,-1.9406,-1.969,-1.969,-1.969,-1.969,-1.969,-1.969,-1.969,-1.969,-1.969,-1.969,-1.969,-1.969,-1.969,-1.969,-1.969,-1.969,-1.969,-1.969,-1.969,-1.9442,-1.7312,-1.6522,-1.6522,-3.0398,-3.0398,-2.9744,-2.7668,-2.7322,-2.7322,-2.7322,-2.9071,-2.9648,-2.7591,-2.911,-2.9879,-2.8533,-2.959,-2.9014,-2.5591,-2.5303,-2.5303,-2.5303,-2.5303,-2.5303,-2.5303,-2.5024,-2.4864,-2.4864,-2.4864,-2.4864,-2.4864,-2.4426,-2.419,-2.419,-2.419,-2.419,-2.419,-2.419,-2.419,-2.419,-2.419,-2.4575,-2.5126,-2.4795,-2.5254,-2.6062,-2.5566,-2.5403,-2.5476,-2.5952,-2.5805,-2.5458,-2.5768,-2.5658,-2.5136,-2.3664,-2.3069,-2.2815,-2.2415,-2.231,-2.231,-2.231,-2.231,-2.2135,-2.1415,-2.1118,-2.0764,-1.9909,-1.969,-1.969,-1.969,-1.969,-1.969,-1.969,-1.969,-1.9824,-2.0243,-1.9959,-1.9664,-1.9517,-1.9152,-1.8688,-1.8185,-1.7827,-1.7626,-1.7626,-1.7312,-1.7105,-1.7105,-1.7422,-1.7706,-1.7907,-1.8535,-1.9006,-1.9207,-1.953,-1.969,-1.969,-1.969,-1.969,-1.969,-1.969,-1.969,-1.969,-1.969,-1.969,-1.969,-1.969,-1.969,-1.969,-1.969,-1.969,-1.969,-1.969,-1.9169,-1.8302,-1.6993,-1.6522,-1.6522,-3.0398,-3.0398,-3.0398,-3.0398,-3.0398,-3.0398,-3.0398,-3.0398,-3.0398,-3.0398,-3.0398,-2.9206,-2.6091,-2.8533,-2.9014,-2.5591,-2.5303,-2.5303,-2.5303,-2.5303,-2.5303,-2.5303,-2.4666,-2.4303,-2.4303,-2.4247,-2.419,-2.419,-2.419,-2.4355,-2.463,-2.463,-2.4483,-2.419,-2.419,-2.419,-2.419,-2.419,-2.5052,-2.6319,-2.5585,-2.5768,-2.6429,-2.575,-2.5513,-2.5531,-2.5678,-2.5678,-2.5733,-2.6374,-2.6041,-2.5116,-2.3664,-2.3165,-2.3038,-2.2453,-2.231,-2.231,-2.231,-2.231,-2.218,-2.1718,-2.1337,-2.0829,-1.9945,-1.9726,-1.969,-1.969,-1.969,-1.9705,-1.9765,-1.9735,-1.972,-1.9854,-1.9765,-1.9545,-1.913,-1.9011,-1.8779,-1.8302,-1.8224,-1.8185,-1.8185,-1.8145,-1.8106,-1.8106,-1.8145,-1.838,-1.8855,-1.8968,-1.9207,-1.969,-1.969,-1.969,-1.969,-1.969,-1.969,-1.969,-1.969,-1.969,-1.969,-1.969,-1.969,-1.969,-1.969,-1.969,-1.969,-1.969,-1.969,-1.969,-1.969,-1.838,-1.6522,-1.6522,-1.6522,-1.6522,-3.0398,-3.0398,-3.0398,-3.0398,-3.0398,-3.0398,-3.0398,-3.0398,-3.0398,-3.0398,-3.0398,-3.011,-2.9379,-2.9956,-2.9014,-2.5591,-2.5303,-2.5303,-2.5303,-2.5303,-2.5303,-2.5303,-2.5149,-2.5061,-2.5061,-2.4493,-2.419,-2.419,-2.419,-2.5493,-2.797,-2.797,-2.6612,-2.419,-2.419,-2.419,-2.419,-2.419,-2.4392,-2.4704,-2.452,-2.4942,-2.5695,-2.6172,-2.6337,-2.6502,-2.7769,-2.7805,-2.72,-2.6759,-2.5877,-2.4802,-2.3595,-2.3021,-2.2738,-2.2415,-2.231,-2.231,-2.231,-2.231,-2.218,-2.1718,-2.1521,-2.1228,-2.0382,-1.9945,-1.969,-1.969,-1.969,-1.9854,-2.0393,-2.0049,-2.0034,-2.1096,-2.0378,-1.9833,-2.0258,-1.9857,-1.9479,-1.9369,-1.8968,-1.8727,-1.8727,-1.8341,-1.8106,-1.8106,-1.8496,-1.8779,-1.8893,-1.9281,-1.9566,-1.969,-1.969,-1.969,-1.969,-1.969,-1.969,-1.969,-1.969,-1.969,-1.969,-1.969,-1.969,-1.969,-1.969,-1.969,-1.969,-1.969,-1.969,-1.969,-1.969,-1.838,-1.6522,-1.6522,-1.6522,-1.6522,-3.0398,-3.0398,-3.0398,-3.0398,-3.0398,-3.0398,-3.0398,-2.9014,-2.8552,-3.0186,-2.8975,-2.7975,-2.7975,-2.7975,-2.7245,-2.5457,-2.5303,-2.5303,-2.5303,-2.5303,-2.5303,-2.5303,-2.5303,-2.6053,-2.7687,-2.5766,-2.454,-2.419,-2.419,-2.5052,-2.6722,-2.6722,-2.5805,-2.419,-2.419,-2.419,-2.419,-2.419,-2.441,-2.4759,-2.4759,-2.5035,-2.5458,-2.586,-2.6025,-2.619,-2.742,-2.7585,-2.7108,-2.63,-2.5272,-2.4212,-2.3625,-2.3093,-2.2669,-2.2537,-2.2398,-2.231,-2.231,-2.231,-2.2237,-2.2003,-2.1764,-2.143,-2.0781,-2.0296,-2.0091,-2.0411,-2.03,-2.0378,-2.1051,-2.0887,-2.0872,-2.1575,-2.1096,-2.0662,-2.0707,-2.0408,-2.0049,-1.972,-1.9442,-1.9281,-1.9281,-1.9043,-1.8855,-1.8855,-1.9132,-1.9281,-1.9281,-1.9566,-1.969,-1.969,-1.969,-1.969,-1.969,-1.969,-1.969,-1.969,-1.969,-1.969,-1.969,-1.969,-1.969,-1.969,-1.969,-1.969,-1.969,-1.969,-1.969,-1.969,-1.969,-1.838,-1.6522,-1.6522,-1.6522,-1.6522,-2.9629,-2.9533,-2.9706,-3.0302,-2.9917,-2.9533,-2.9533,-2.711,-2.6322,-2.9148,-2.7052,-2.5303,-2.5303,-2.5303,-2.5303,-2.5303,-2.5822,-2.5918,-2.5341,-2.5303,-2.5303,-2.5303,-2.586,-2.7495,-3.034,-2.761,-2.5869,-2.5262,-2.467,-2.4688,-2.5262,-2.5095,-2.4722,-2.419,-2.419,-2.419,-2.419,-2.419,-2.4575,-2.5201,-2.5201,-2.5293,-2.5403,-2.5403,-2.5568,-2.5917,-2.6576,-2.6814,-2.6686,-2.5878,-2.4853,-2.3873,-2.3728,-2.3236,-2.2695,-2.2695,-2.25,-2.231,-2.231,-2.231,-2.231,-2.231,-2.2003,-2.1661,-2.1469,-2.0827,-2.05,-2.1146,-2.0983,-2.0946,-2.1724,-2.1769,-2.1739,-2.1844,-2.1769,-2.147,-2.0812,-2.0722,-2.0453,-1.9765,-1.969,-1.969,-1.969,-1.969,-1.969,-1.969,-1.969,-1.969,-1.969,-1.969,-1.969,-1.969,-1.969,-1.969,-1.969,-1.969,-1.969,-1.969,-1.969,-1.969,-1.969,-1.969,-1.969,-1.969,-1.969,-1.969,-1.969,-1.969,-1.969,-1.969,-1.969,-1.838,-1.6522,-1.6522,-1.6522,-1.6522,-2.6572,-2.5995,-2.6918,-2.9879,-2.7937,-2.5995,-2.5995,-2.5591,-2.5476,-2.5918,-2.5591,-2.5303,-2.5303,-2.5303,-2.5303,-2.5303,-2.7995,-2.8456,-2.5495,-2.5303,-2.5303,-2.5303,-2.8129,-2.9917,-3.0379,-2.9936,-2.9651,-2.9558,-2.6596,-2.6653,-2.9545,-2.8744,-2.6869,-2.419,-2.419,-2.419,-2.419,-2.419,-2.4263,-2.4355,-2.4355,-2.4777,-2.5403,-2.5403,-2.6266,-2.7475,-2.7603,-2.764,-2.7512,-2.6704,-2.567,-2.4613,-2.3909,-2.3236,-2.2695,-2.2695,-2.25,-2.231,-2.231,-2.231,-2.231,-2.231,-2.2237,-2.2377,-2.2925,-2.1649,-2.05,-2.1146,-2.0983,-2.1096,-2.2323,-2.2084,-2.1874,-2.2458,-2.2069,-2.147,-2.0812,-2.0722,-2.0453,-1.9765,-1.969,-1.969,-1.969,-1.969,-1.969,-1.969,-1.969,-1.969,-1.969,-1.969,-1.969,-1.969,-1.969,-1.969,-1.969,-1.969,-1.969,-1.969,-1.969,-1.969,-1.969,-1.969,-1.969,-1.969,-1.969,-1.969,-1.969,-1.969,-1.969,-1.969,-1.969,-1.838,-1.6522,-1.6522,-1.6522,-1.6522,-2.8071,-2.8148,-2.8014,-2.761,-2.6303,-2.5303,-2.5303,-2.5303,-2.5303,-2.5303,-2.5303,-2.5303,-2.5303,-2.5303,-2.5303,-2.5303,-2.6668,-2.6899,-2.5399,-2.5303,-2.6149,-2.8071,-2.959,-3.0398,-3.0398,-2.9486,-2.9467,-3.0398,-2.6976,-2.7052,-3.0348,-2.8521,-2.6429,-2.4226,-2.4667,-2.4612,-2.419,-2.419,-2.419,-2.419,-2.419,-2.441,-2.4777,-2.5237,-2.5548,-2.5841,-2.6282,-2.6468,-2.6413,-2.6043,-2.5181,-2.4205,-2.4026,-2.3392,-2.2772,-2.3141,-2.2798,-2.2321,-2.2473,-2.2398,-2.231,-2.231,-2.231,-2.2395,-2.2716,-2.1859,-2.1391,-2.2611,-2.2499,-2.2515,-2.3478,-2.3643,-2.3733,-2.4044,-2.3603,-2.2851,-2.1812,-2.1424,-2.0872,-1.9809,-1.969,-1.969,-1.969,-1.9909,-1.9929,-1.9711,-1.9909,-1.9929,-1.9711,-1.969,-1.969,-1.969,-1.969,-1.969,-1.969,-1.969,-1.969,-1.969,-1.969,-1.969,-1.969,-1.969,-1.969,-1.969,-1.969,-1.969,-1.969,-1.969,-1.969,-1.9566,-1.838,-1.7353,-1.6552,-1.7146,-1.6993,-1.6595]}]]